[[{"header":{"parameterUnit":"m.s-1","parameterCategory":1,"la1":30.6,"la2":29.2853,"lo1":-89.7004,"lo2":-87.6739,"dy":0.0162,"dx":0.0183,"nx":112,"ny":82,"refTime":"2023-03-04T06:00:00:Z","depth":0,"parameterNumber":2,"parameterNumberName":"U-component_of_WINDS"},"data":[0.0,0.0,0.0,0.0,0.0,0.0,0.0,0.0,0.0,0.0,0.0,0.0,0.0,0.0,0.0,0.0,0.0,0.0,0.0,0.0,0.0,0.0,0.0,0.0,0.0,0.0,0.0,0.0,0.0,0.0,0.0,0.0,0.0,0.0,0.0,0.0,0.0,0.0,0.0,0.0,0.0,0.0,0.0,0.0,0.0,0.0,0.0,0.0,0.0,0.0,0.0,0.0,0.0,0.0,0.0,0.0,0.0,0.0,0.0,0.0,0.0,0.0,0.0,0.0,0.0,0.0,0.0,0.0,0.0,0.0,0.0,0.0,0.0,0.0,0.0,0.0,0.0,0.0,0.0,0.0,0.0,0.0,0.0,0.0,0.0,0.0,0.0,0.0,0.0,0.0,-3.9313,-3.9374,-4.0114,-4.0611,-4.0657,-4.0749,-4.0056,-3.8291,0.0,0.0,0.0,0.0,0.0,0.0,0.0,0.0,0.0,0.0,0.0,0.0,0.0,0.0,0.0,0.0,0.0,0.0,0.0,0.0,0.0,0.0,0.0,0.0,0.0,0.0,0.0,0.0,0.0,0.0,0.0,0.0,0.0,0.0,0.0,0.0,0.0,0.0,0.0,0.0,0.0,0.0,0.0,0.0,0.0,0.0,0.0,0.0,0.0,0.0,0.0,0.0,0.0,0.0,0.0,0.0,0.0,0.0,0.0,0.0,0.0,0.0,0.0,0.0,0.0,0.0,0.0,0.0,0.0,0.0,0.0,0.0,0.0,0.0,0.0,0.0,0.0,0.0,0.0,0.0,0.0,0.0,0.0,0.0,0.0,0.0,0.0,0.0,0.0,0.0,0.0,0.0,0.0,0.0,0.0,0.0,0.0,0.0,0.0,0.0,0.0,0.0,0.0,0.0,-4.0377,-4.1055,-4.1301,-4.1421,-4.143,-4.1597,-4.0684,-3.8279,0.0,0.0,0.0,0.0,0.0,0.0,0.0,0.0,0.0,0.0,0.0,0.0,0.0,0.0,0.0,0.0,0.0,0.0,0.0,0.0,0.0,0.0,0.0,0.0,0.0,0.0,0.0,0.0,0.0,0.0,0.0,0.0,0.0,0.0,0.0,0.0,0.0,0.0,0.0,0.0,0.0,0.0,0.0,0.0,0.0,0.0,0.0,0.0,0.0,0.0,0.0,0.0,0.0,0.0,0.0,0.0,0.0,0.0,0.0,0.0,0.0,0.0,0.0,0.0,0.0,0.0,0.0,0.0,0.0,0.0,0.0,0.0,0.0,0.0,0.0,0.0,0.0,0.0,0.0,0.0,0.0,0.0,0.0,0.0,0.0,0.0,0.0,0.0,0.0,0.0,0.0,0.0,0.0,0.0,0.0,0.0,0.0,0.0,0.0,0.0,0.0,0.0,0.0,-4.0053,-4.0616,-4.1399,-4.1542,-4.1761,-4.2266,-4.2022,-4.1154,-3.9552,-3.8686,0.0,0.0,0.0,0.0,0.0,0.0,0.0,0.0,0.0,0.0,0.0,0.0,0.0,0.0,0.0,0.0,0.0,0.0,0.0,0.0,0.0,0.0,0.0,0.0,0.0,0.0,0.0,0.0,0.0,0.0,0.0,0.0,0.0,0.0,0.0,0.0,0.0,0.0,0.0,0.0,0.0,0.0,0.0,0.0,0.0,0.0,0.0,0.0,0.0,0.0,0.0,0.0,0.0,0.0,0.0,0.0,0.0,0.0,0.0,0.0,0.0,0.0,0.0,0.0,0.0,0.0,0.0,0.0,0.0,0.0,0.0,0.0,0.0,0.0,0.0,0.0,0.0,0.0,0.0,0.0,0.0,0.0,0.0,0.0,0.0,0.0,0.0,0.0,0.0,0.0,0.0,0.0,0.0,0.0,0.0,0.0,0.0,0.0,0.0,0.0,0.0,0.0,-4.0253,-4.0654,-4.1598,-4.1771,-4.2173,-4.3082,-4.2665,-4.1846,-4.0641,-3.9451,0.0,0.0,0.0,0.0,0.0,0.0,0.0,0.0,0.0,0.0,0.0,0.0,0.0,0.0,0.0,0.0,0.0,0.0,0.0,0.0,0.0,0.0,0.0,0.0,0.0,0.0,0.0,0.0,0.0,0.0,0.0,0.0,0.0,0.0,0.0,0.0,0.0,0.0,0.0,0.0,0.0,0.0,0.0,0.0,0.0,0.0,0.0,0.0,0.0,0.0,0.0,0.0,0.0,0.0,0.0,0.0,0.0,0.0,0.0,0.0,0.0,0.0,0.0,0.0,0.0,0.0,0.0,0.0,0.0,0.0,0.0,0.0,0.0,0.0,0.0,0.0,0.0,0.0,0.0,0.0,0.0,0.0,0.0,0.0,0.0,0.0,0.0,0.0,0.0,0.0,0.0,0.0,0.0,0.0,0.0,0.0,0.0,0.0,0.0,0.0,0.0,0.0,-4.0157,-4.0825,-4.2196,-4.2567,-4.3042,-4.3845,-4.3991,-4.3012,-4.0654,-4.0516,0.0,0.0,0.0,0.0,0.0,0.0,0.0,0.0,0.0,0.0,0.0,0.0,0.0,0.0,0.0,0.0,0.0,0.0,0.0,0.0,0.0,0.0,0.0,0.0,0.0,0.0,0.0,0.0,0.0,0.0,0.0,0.0,0.0,0.0,0.0,0.0,0.0,0.0,0.0,0.0,0.0,0.0,0.0,0.0,0.0,0.0,0.0,0.0,0.0,0.0,0.0,0.0,0.0,0.0,0.0,0.0,0.0,0.0,0.0,0.0,0.0,0.0,0.0,0.0,0.0,0.0,0.0,0.0,0.0,0.0,0.0,0.0,0.0,0.0,0.0,0.0,0.0,0.0,0.0,0.0,0.0,0.0,0.0,0.0,0.0,0.0,0.0,0.0,0.0,0.0,0.0,0.0,0.0,0.0,0.0,0.0,0.0,0.0,0.0,0.0,0.0,0.0,-3.9826,-4.025,0.0,-4.1432,-4.2098,-4.3623,-4.3378,-4.2823,-4.2052,0.0,0.0,0.0,0.0,0.0,0.0,0.0,0.0,0.0,0.0,0.0,0.0,0.0,0.0,0.0,0.0,0.0,0.0,0.0,0.0,0.0,0.0,0.0,0.0,0.0,0.0,0.0,0.0,0.0,0.0,0.0,0.0,0.0,0.0,0.0,0.0,0.0,0.0,0.0,0.0,0.0,0.0,0.0,0.0,0.0,0.0,0.0,0.0,0.0,0.0,0.0,0.0,0.0,0.0,0.0,0.0,0.0,0.0,0.0,0.0,0.0,0.0,0.0,0.0,0.0,0.0,0.0,0.0,0.0,0.0,0.0,0.0,0.0,0.0,0.0,0.0,0.0,0.0,0.0,0.0,0.0,0.0,0.0,0.0,0.0,0.0,0.0,0.0,0.0,0.0,0.0,0.0,0.0,0.0,0.0,0.0,0.0,0.0,0.0,0.0,0.0,0.0,-3.9551,-3.9508,-3.9796,0.0,-4.0685,-4.1374,-4.2961,-4.2628,-4.2357,-4.2355,0.0,0.0,0.0,0.0,0.0,0.0,0.0,0.0,0.0,0.0,0.0,0.0,0.0,0.0,0.0,0.0,0.0,0.0,0.0,0.0,0.0,0.0,0.0,0.0,0.0,0.0,0.0,0.0,0.0,0.0,0.0,0.0,0.0,0.0,0.0,0.0,0.0,0.0,0.0,0.0,0.0,0.0,0.0,0.0,0.0,0.0,0.0,0.0,0.0,0.0,0.0,0.0,0.0,0.0,0.0,0.0,0.0,0.0,0.0,0.0,0.0,0.0,0.0,0.0,0.0,0.0,0.0,0.0,0.0,0.0,0.0,0.0,0.0,0.0,0.0,0.0,0.0,0.0,0.0,0.0,0.0,0.0,0.0,0.0,0.0,0.0,0.0,0.0,0.0,0.0,0.0,0.0,0.0,0.0,0.0,0.0,0.0,0.0,0.0,0.0,0.0,0.0,-3.911,-3.9216,-3.9556,-4.0295,-4.0627,-4.1105,-4.1925,-4.1982,-4.1756,0.0,0.0,0.0,0.0,0.0,0.0,0.0,0.0,0.0,0.0,0.0,0.0,0.0,0.0,0.0,0.0,0.0,0.0,0.0,0.0,0.0,0.0,0.0,0.0,0.0,0.0,0.0,0.0,0.0,0.0,0.0,0.0,0.0,0.0,0.0,0.0,0.0,0.0,0.0,0.0,0.0,0.0,0.0,0.0,0.0,0.0,0.0,0.0,0.0,0.0,0.0,0.0,0.0,0.0,0.0,0.0,0.0,0.0,0.0,0.0,0.0,0.0,0.0,0.0,0.0,0.0,0.0,0.0,0.0,0.0,0.0,0.0,0.0,0.0,0.0,0.0,0.0,0.0,0.0,0.0,0.0,0.0,0.0,0.0,0.0,0.0,0.0,0.0,0.0,0.0,0.0,0.0,0.0,0.0,0.0,0.0,0.0,0.0,0.0,0.0,0.0,0.0,0.0,-3.8631,-3.8643,-3.8762,-3.9034,-3.9124,-3.968,-4.0897,-4.0845,-4.087,-4.1182,0.0,0.0,0.0,0.0,0.0,0.0,0.0,0.0,0.0,0.0,0.0,0.0,0.0,0.0,0.0,0.0,0.0,0.0,0.0,0.0,0.0,0.0,0.0,0.0,0.0,0.0,0.0,0.0,0.0,0.0,0.0,0.0,0.0,0.0,0.0,0.0,0.0,0.0,0.0,0.0,0.0,0.0,0.0,0.0,0.0,0.0,0.0,0.0,0.0,0.0,0.0,0.0,0.0,0.0,0.0,0.0,0.0,0.0,0.0,0.0,0.0,0.0,0.0,0.0,0.0,0.0,0.0,0.0,0.0,0.0,0.0,0.0,0.0,0.0,0.0,0.0,0.0,0.0,0.0,0.0,0.0,0.0,0.0,0.0,0.0,0.0,0.0,0.0,0.0,0.0,0.0,0.0,0.0,0.0,0.0,0.0,0.0,0.0,0.0,0.0,0.0,0.0,-3.7892,-3.8085,-3.8302,-3.8446,-3.8462,-3.8802,-3.9659,-3.9575,-3.9699,-4.0215,0.0,0.0,0.0,0.0,0.0,0.0,0.0,0.0,0.0,0.0,0.0,0.0,0.0,0.0,0.0,0.0,0.0,0.0,0.0,0.0,0.0,0.0,0.0,0.0,0.0,0.0,0.0,0.0,0.0,0.0,0.0,0.0,0.0,0.0,0.0,0.0,0.0,0.0,0.0,0.0,0.0,0.0,0.0,0.0,0.0,0.0,0.0,0.0,0.0,0.0,0.0,0.0,0.0,0.0,0.0,0.0,0.0,0.0,0.0,0.0,0.0,0.0,0.0,0.0,0.0,0.0,0.0,0.0,0.0,0.0,0.0,0.0,0.0,0.0,0.0,0.0,0.0,0.0,0.0,0.0,0.0,0.0,0.0,0.0,0.0,0.0,0.0,0.0,0.0,0.0,0.0,0.0,0.0,0.0,0.0,0.0,0.0,0.0,0.0,0.0,0.0,0.0,-3.7041,-3.7599,-3.8086,-3.8334,-3.8366,-3.8382,-3.8399,-3.8399,-3.8507,-3.8803,0.0,0.0,0.0,0.0,0.0,0.0,0.0,0.0,0.0,0.0,0.0,0.0,0.0,0.0,0.0,0.0,0.0,0.0,0.0,0.0,0.0,0.0,0.0,0.0,0.0,0.0,0.0,0.0,0.0,0.0,0.0,0.0,0.0,0.0,0.0,0.0,0.0,0.0,0.0,0.0,0.0,0.0,0.0,0.0,0.0,0.0,0.0,0.0,0.0,0.0,0.0,0.0,0.0,0.0,0.0,0.0,0.0,0.0,0.0,0.0,-3.6992,0.0,0.0,0.0,0.0,0.0,0.0,0.0,0.0,0.0,0.0,0.0,0.0,0.0,0.0,0.0,0.0,0.0,0.0,0.0,0.0,0.0,0.0,0.0,0.0,0.0,0.0,0.0,0.0,0.0,0.0,0.0,0.0,0.0,0.0,0.0,0.0,0.0,0.0,0.0,0.0,0.0,-3.6641,-3.7377,-3.7968,-3.8069,-3.8136,-3.8251,-3.8462,-3.8385,-3.8478,-3.8857,-3.8824,0.0,0.0,0.0,0.0,0.0,0.0,0.0,0.0,0.0,0.0,0.0,0.0,0.0,0.0,0.0,0.0,0.0,0.0,0.0,0.0,0.0,0.0,0.0,0.0,0.0,0.0,0.0,0.0,0.0,0.0,0.0,0.0,0.0,0.0,0.0,0.0,0.0,0.0,0.0,0.0,0.0,0.0,0.0,0.0,0.0,0.0,0.0,0.0,0.0,0.0,0.0,0.0,0.0,0.0,0.0,0.0,0.0,0.0,0.0,0.0,-3.6933,0.0,0.0,0.0,0.0,0.0,0.0,0.0,0.0,0.0,0.0,0.0,0.0,0.0,0.0,0.0,0.0,0.0,0.0,0.0,0.0,0.0,0.0,0.0,0.0,0.0,0.0,0.0,0.0,0.0,0.0,0.0,0.0,0.0,0.0,0.0,0.0,0.0,0.0,0.0,0.0,-3.6084,-3.7127,-3.7934,-3.7984,-3.8002,-3.8069,-3.8252,-3.8172,-3.8188,-3.841,-3.8423,0.0,0.0,0.0,0.0,0.0,0.0,0.0,0.0,0.0,0.0,0.0,0.0,0.0,0.0,0.0,0.0,0.0,0.0,0.0,0.0,0.0,0.0,0.0,0.0,0.0,0.0,0.0,0.0,0.0,0.0,0.0,0.0,0.0,0.0,0.0,0.0,0.0,0.0,0.0,0.0,0.0,0.0,0.0,0.0,0.0,0.0,0.0,0.0,0.0,0.0,0.0,0.0,0.0,-3.4795,-3.4771,-3.4862,-3.5458,-3.5647,-3.5576,-3.6232,-3.6571,-3.6684,0.0,0.0,0.0,0.0,0.0,0.0,0.0,0.0,0.0,0.0,0.0,0.0,0.0,0.0,0.0,0.0,0.0,0.0,0.0,0.0,0.0,0.0,0.0,0.0,0.0,-3.7577,-3.7559,0.0,0.0,0.0,0.0,0.0,0.0,0.0,0.0,0.0,0.0,0.0,0.0,-3.5669,-3.6948,-3.7863,-3.7915,-3.7933,-3.7933,-3.8002,-3.7968,-3.7951,-3.7951,-3.7984,-3.8153,0.0,0.0,0.0,0.0,0.0,0.0,0.0,0.0,0.0,0.0,0.0,0.0,0.0,0.0,0.0,0.0,0.0,0.0,0.0,0.0,0.0,0.0,0.0,0.0,0.0,0.0,0.0,0.0,0.0,0.0,0.0,0.0,-3.4145,-3.4366,0.0,0.0,0.0,0.0,0.0,0.0,0.0,0.0,0.0,0.0,0.0,0.0,0.0,-3.4951,-3.4841,-3.4591,-3.4463,-3.4487,-3.4227,-3.4128,-3.4153,-3.4471,-3.4577,-3.4537,-3.5138,0.0,-3.6612,-3.6568,0.0,0.0,0.0,0.0,0.0,0.0,0.0,0.0,0.0,0.0,0.0,0.0,0.0,0.0,0.0,0.0,0.0,0.0,0.0,0.0,0.0,0.0,-3.7068,-3.7087,-3.7087,-3.7087,0.0,-3.7411,-3.7685,-3.7685,-3.7577,0.0,0.0,0.0,0.0,0.0,0.0,0.0,-3.5971,-3.6969,-3.7631,-3.7649,-3.7863,-3.7984,-3.8001,-3.8088,-3.8175,-3.8175,-3.8175,-3.8191,-3.8241,-3.8191,0.0,0.0,0.0,0.0,0.0,0.0,0.0,0.0,0.0,0.0,0.0,0.0,0.0,0.0,0.0,0.0,0.0,0.0,0.0,0.0,0.0,0.0,0.0,0.0,0.0,0.0,0.0,0.0,0.0,-3.3777,-3.3754,-3.3556,-3.3694,-3.398,0.0,0.0,0.0,0.0,0.0,0.0,0.0,0.0,0.0,-3.439,-3.4104,-3.393,-3.3855,-3.3836,-3.3847,-3.3847,-3.4128,-3.4278,-3.429,-3.4356,-3.4439,-3.4475,-3.4903,-3.5368,-3.5837,-3.6156,-3.6249,-3.6171,0.0,0.0,0.0,0.0,-3.6026,-3.6676,-3.6564,-3.6841,0.0,0.0,0.0,0.0,0.0,0.0,0.0,0.0,0.0,0.0,0.0,0.0,0.0,-3.627,-3.6172,-3.6113,-3.6113,-3.6267,-3.6591,0.0,-3.7373,-3.6895,-3.5367,0.0,0.0,0.0,0.0,-3.5989,-3.6239,-3.7041,-3.7595,-3.7595,-3.7649,-3.7667,-3.7667,-3.7667,-3.7685,-3.7685,-3.7739,-3.7757,-3.7757,-3.7828,-3.7702,0.0,0.0,0.0,0.0,0.0,0.0,0.0,0.0,0.0,0.0,0.0,0.0,0.0,0.0,0.0,0.0,0.0,0.0,0.0,0.0,0.0,0.0,0.0,0.0,0.0,0.0,0.0,0.0,-3.3296,-3.3354,-3.3205,-3.3013,-3.3161,0.0,0.0,0.0,0.0,0.0,0.0,-3.3398,-3.377,-3.3934,-3.3853,-3.345,-3.3248,-3.3248,-3.337,-3.3429,-3.3545,-3.4081,-3.4401,-3.4519,-3.4472,-3.4548,-3.4679,-3.4821,-3.4946,-3.5122,-3.5706,-3.5851,-3.5622,-3.5396,-3.5127,-3.489,-3.4843,-3.5221,-3.5737,-3.5733,-3.6088,-3.6498,-3.6291,0.0,-3.6454,-3.6603,0.0,0.0,0.0,0.0,-3.5737,-3.5732,-3.5649,-3.556,-3.556,-3.5436,-3.5312,-3.5312,-3.5296,-3.5559,0.0,-3.6761,-3.6459,-3.4995,0.0,0.0,0.0,0.0,-3.6345,-3.6486,-3.6982,-3.7338,-3.7521,-3.7393,-3.7356,-3.7467,-3.7337,-3.7261,-3.7261,-3.7317,-3.7318,-3.7318,-3.7503,-3.7506,-3.7309,0.0,0.0,0.0,0.0,0.0,0.0,0.0,0.0,0.0,0.0,0.0,0.0,0.0,0.0,0.0,0.0,0.0,0.0,0.0,0.0,0.0,0.0,0.0,0.0,0.0,0.0,0.0,0.0,0.0,-3.3563,-3.2551,0.0,0.0,0.0,0.0,-3.2725,-3.252,-3.243,-3.2555,-3.3064,-3.3368,-3.3411,-3.341,-3.338,-3.338,-3.3379,-3.3577,-3.3879,-3.3909,-3.4134,-3.4505,-3.4618,-3.4776,-3.4857,-3.4612,-3.459,-3.4774,-3.5392,-3.5793,-3.5976,-3.4878,-3.4984,-3.5664,-3.5094,-3.495,-3.5138,-3.5623,-3.5574,-3.5284,-3.5205,-3.5284,-3.5397,-3.5458,-3.5464,0.0,0.0,-3.5329,-3.5323,-3.5253,-3.5247,-3.5224,-3.5224,-3.5115,-3.5021,-3.5021,-3.5012,-3.5117,0.0,-3.5537,-3.5382,-3.4716,0.0,-3.5377,-3.5169,-3.5591,-3.6133,-3.6711,-3.6583,-3.6681,-3.7259,-3.7151,-3.721,-3.7649,-3.7377,-3.7209,-3.7209,-3.715,-3.7127,-3.7127,-3.7429,-3.7238,-3.647,-3.722,0.0,0.0,0.0,0.0,0.0,0.0,0.0,0.0,0.0,0.0,0.0,0.0,0.0,0.0,0.0,0.0,0.0,0.0,0.0,0.0,0.0,0.0,0.0,0.0,0.0,0.0,0.0,0.0,-3.3653,-3.3141,0.0,-3.3648,-3.3066,-3.2841,-3.3313,-3.3181,-3.3095,-3.3125,-3.3486,-3.3696,-3.3713,-3.3728,-3.3728,-3.3728,-3.4212,-3.4485,-3.4607,-3.5032,-3.5338,-3.5431,-3.5064,-3.5061,-3.5386,-3.5084,-3.5156,-3.5546,-3.5547,-3.5278,-3.4828,-3.4438,-3.4518,-3.4825,-3.427,-3.4407,-3.4811,-3.4552,-3.4703,-3.5054,-3.4948,-3.4995,-3.5041,-3.4664,-3.4664,-3.4671,-3.4268,-3.426,-3.4382,-3.4366,-3.4366,-3.4366,-3.4366,-3.4243,-3.4168,-3.4168,-3.4168,-3.4202,-3.4292,-3.4868,-3.5116,-3.4347,-3.4941,-3.5365,-3.4903,-3.5414,-3.5931,-3.619,-3.6143,-3.6147,-3.6392,-3.6319,-3.6361,-3.6542,-3.6378,-3.6316,-3.6361,-3.6228,-3.6165,-3.6245,-3.6594,-3.6634,-3.6334,-3.6616,-3.6913,0.0,0.0,0.0,0.0,0.0,0.0,0.0,0.0,0.0,0.0,0.0,0.0,0.0,0.0,0.0,0.0,0.0,0.0,0.0,0.0,0.0,0.0,0.0,0.0,0.0,0.0,-3.3872,-3.4252,-3.3722,-3.3481,-3.3922,-3.345,-3.3238,-3.3546,-3.3423,-3.3524,-3.3971,-3.4159,-3.4479,-3.4898,-3.4898,-3.4898,-3.4898,-3.5396,-3.558,-3.5497,-3.5935,-3.609,-3.599,-3.5549,-3.5523,-3.5844,-3.5355,-3.5378,-3.5688,-3.519,-3.4707,-3.4254,-3.4147,-3.4136,-3.4119,-3.3834,-3.3894,-3.4111,-3.3652,-3.3866,-3.4342,-3.4325,-3.4358,-3.4358,-3.3958,-3.3942,-3.4002,-3.3668,-3.3736,-3.3899,-3.3949,-3.3975,-3.3975,-3.3975,-3.3813,-3.3658,-3.3761,-3.3658,-3.3607,-3.3684,-3.4309,-3.4634,-3.4053,-3.4735,-3.5116,-3.4464,-3.5164,-3.5747,-3.5583,-3.5623,-3.5732,-3.5868,-3.5798,-3.5798,-3.595,-3.5594,-3.5472,-3.5715,-3.5334,-3.5228,-3.5526,-3.5767,-3.6025,-3.6284,-3.6525,-3.6567,-3.6374,0.0,0.0,0.0,0.0,0.0,0.0,0.0,0.0,0.0,0.0,0.0,0.0,0.0,0.0,0.0,0.0,0.0,0.0,0.0,0.0,0.0,0.0,0.0,-3.4528,-3.4343,-3.4518,-3.5382,-3.4224,-3.3703,-3.4472,-3.3868,-3.3432,-3.3432,-3.3263,-3.3701,-3.5001,-3.506,-3.5636,-3.6891,-3.6936,-3.6936,-3.6936,-3.6936,-3.6749,-3.6428,-3.6399,-3.6267,-3.6004,-3.5988,-3.6068,-3.6134,-3.5384,-3.5125,-3.5171,-3.4303,-3.4134,-3.4394,-3.4017,-3.3803,-3.37,-3.3813,-3.345,-3.2924,-3.3058,-3.3112,-3.3123,-3.3256,-3.3309,-3.3282,-3.3282,-3.3372,-3.3503,-3.3617,-3.3745,-3.3899,-3.4025,-3.4075,-3.4075,-3.4075,-3.3771,-3.3581,-3.3822,-3.3581,-3.3372,-3.3658,-3.3797,-3.3873,-3.3873,-3.4391,-3.4584,-3.3987,-3.4959,0.0,-3.4946,-3.5059,-3.5368,-3.5786,-3.5543,-3.552,-3.5977,-3.5069,-3.4727,-3.534,-3.4544,-3.4341,-3.4941,-3.504,-3.5446,-3.622,-3.6952,-3.6573,-3.5061,0.0,0.0,0.0,0.0,0.0,0.0,0.0,0.0,0.0,0.0,0.0,0.0,0.0,0.0,0.0,0.0,0.0,0.0,0.0,0.0,0.0,0.0,-3.461,-3.4765,-3.4538,-3.453,-3.5019,-3.5137,-3.527,-3.5481,-3.5963,-3.6276,-3.6276,-3.6227,-3.6343,-3.6716,-3.6745,-3.6894,-3.7267,-3.7267,-3.7267,-3.7267,-3.7267,-3.7227,-3.7135,-3.6686,-3.6439,-3.6358,-3.5877,-3.5797,-3.6053,-3.5808,-3.5889,-3.6091,-3.5309,-3.5047,-3.5014,-3.3746,-3.3377,-3.3469,-3.2901,-3.2757,-3.2924,-3.315,-3.3256,-3.3256,-3.3282,-3.3176,-3.3005,-3.3005,-3.2866,-3.2726,-3.2753,-3.2846,-3.298,-3.2991,-3.3166,-3.3298,-3.3298,-3.333,-3.3388,-3.345,-3.3372,-3.3335,-3.3414,-3.345,-3.3503,-3.3607,-3.3984,-3.4144,-3.3684,-3.4309,0.0,-3.4371,-3.4615,-3.4691,-3.4282,-3.4147,-3.4163,-3.4284,-3.3849,-3.386,-3.4553,-3.4113,-3.3924,-3.4193,-3.4451,-3.4638,-3.4774,-3.5215,-3.5058,0.0,0.0,0.0,0.0,0.0,0.0,0.0,0.0,0.0,0.0,0.0,0.0,0.0,0.0,0.0,0.0,0.0,0.0,0.0,0.0,0.0,0.0,-3.4162,-3.4317,-3.4796,-3.4806,-3.484,-3.5029,-3.5619,-3.6034,-3.6034,-3.6546,-3.6976,-3.7129,-3.7164,-3.7352,-3.7793,-3.7823,-3.7958,-3.8242,-3.8257,-3.8257,-3.8257,-3.8257,-3.8108,-3.7808,-3.7449,-3.7,-3.6477,-3.6088,-3.5889,0.0,-3.5797,-3.5893,-3.6053,-3.5611,-3.5522,0.0,0.0,0.0,0.0,0.0,-3.2687,-3.2703,-3.2877,-3.2931,-3.2931,-3.2931,-3.2812,-3.2676,-3.2676,-3.2605,-3.2492,-3.2492,-3.2574,-3.2695,-3.2765,-3.2873,-3.3022,-3.3118,-3.3065,-3.3065,-3.324,-3.316,-3.3065,-3.3266,-3.3309,0.0,-3.3256,-3.3529,-3.3598,-3.3105,-3.3629,-3.3937,-3.3505,-3.3931,-3.4112,-3.3689,-3.364,-3.364,-3.364,-3.3218,0.0,0.0,0.0,-3.3271,-3.3557,-3.4113,0.0,0.0,0.0,-3.417,-3.3527,0.0,0.0,0.0,-3.4161,-3.4431,0.0,0.0,0.0,0.0,0.0,0.0,0.0,0.0,0.0,0.0,0.0,0.0,0.0,0.0,0.0,0.0,-3.385,-3.4078,-3.4768,-3.5145,-3.5371,-3.5369,-3.589,-3.6266,-3.6266,-3.6396,-3.6633,-3.6966,-3.7002,-3.7429,-3.8396,0.0,0.0,0.0,0.0,-3.9388,-3.9388,-3.9388,-3.911,-3.8497,-3.8422,-3.7793,-3.6701,-3.6552,-3.6178,-3.5609,-3.5534,-3.5504,-3.5504,-3.5504,-3.5683,-3.5852,-3.4865,-3.4358,-3.4113,-3.3558,-3.2926,-3.237,-3.2398,0.0,0.0,-3.2398,-3.237,-3.2342,-3.2342,-3.241,-3.2492,-3.2492,-3.2559,-3.2668,-3.2792,-3.2861,-3.2915,-3.3081,-3.2807,-3.2656,-3.3081,-3.2834,-3.2656,-3.3107,-3.316,-3.3096,-3.287,-3.3096,-3.3087,-3.2491,-3.3012,-3.3306,-3.272,-3.3233,-3.3652,-3.3556,0.0,0.0,-3.3556,-3.2955,-3.2866,-3.3585,-3.2889,-3.265,-3.3064,-3.3811,-3.3843,-3.3056,-3.3671,-3.363,-3.2843,-3.287,-3.2718,-3.2453,-3.364,-3.4169,0.0,0.0,0.0,0.0,0.0,0.0,0.0,0.0,0.0,0.0,0.0,0.0,0.0,0.0,0.0,-3.403,-3.4128,-3.4375,-3.5032,-3.5591,-3.5852,-3.5669,-3.6206,-3.6607,-3.6607,-3.7461,-3.8098,-3.8187,-3.8304,-3.8509,-3.87,-3.87,0.0,-3.9141,-3.9141,-3.9228,-3.9388,-3.9388,-3.9313,-3.9215,0.0,0.0,-3.7988,-3.6956,-3.6417,-3.6267,-3.5729,-3.5504,-3.5504,-3.5504,-3.5537,-3.5544,-3.5077,-3.4061,-3.29,-3.3029,-3.2644,-3.2122,-3.2315,-3.2398,-3.2398,-3.2398,-3.2247,-3.2066,-3.2066,-3.1925,0.0,-3.171,-3.1739,-3.1768,-3.1768,-3.1896,-3.2025,-3.2081,-3.2109,-3.2178,-3.2358,-3.2262,-3.2178,-3.2358,-3.2318,-3.2262,-3.2318,-3.2866,-3.3087,-3.2486,-3.3024,-3.3324,-3.2897,-3.324,-3.3306,-3.2708,-3.2644,-3.2644,-3.2644,-3.2415,-3.255,-3.3182,-3.296,-3.2855,-3.2945,-3.2933,-3.2879,-3.2701,-3.2741,-3.2683,-3.2496,-3.2621,-3.2621,-3.2551,-3.2711,-3.2776,0.0,0.0,0.0,0.0,0.0,0.0,0.0,0.0,0.0,0.0,0.0,-3.2473,0.0,0.0,-3.3684,-3.414,-3.4564,-3.506,-3.5718,-3.6146,-3.6292,-3.5929,-3.6453,-3.6835,-3.6835,-3.7501,-3.7976,-3.8165,-3.8389,-3.8612,-3.8782,-3.8782,-3.887,-3.8943,-3.8943,-3.898,-3.9104,-3.9104,-3.9141,-3.9265,-3.8907,-3.865,-3.8362,-3.7734,-3.709,-3.6477,-3.6148,-3.5804,-3.5504,-3.5504,-3.5504,-3.5474,-3.5322,-3.4539,-3.3485,-3.3307,-3.2824,-3.2235,-3.2031,-3.1966,-3.1966,-3.1966,-3.1868,-3.1769,-3.1769,-3.1611,-3.1511,-3.1511,-3.1511,-3.1511,-3.1626,-3.1727,-3.1813,-3.1898,-3.1898,-3.1955,-3.2066,-3.1996,-3.194,-3.2066,-3.2053,-3.2025,-3.2094,-3.2456,-3.266,-3.2425,-3.2726,-3.2904,-3.2773,-3.2866,-3.2817,-3.2525,-3.2426,-3.2399,-3.2399,-3.2388,-3.2491,-3.2726,-3.2827,-3.2843,-3.2746,-3.2746,-3.2703,-3.2594,-3.2523,-3.2453,-3.2398,-3.2453,-3.2496,-3.2496,-3.2425,-3.2496,0.0,0.0,0.0,0.0,0.0,0.0,0.0,0.0,-3.094,-3.2171,-3.2527,-3.2765,-3.3269,-3.3856,-3.4341,-3.454,-3.5159,-3.5844,-3.6542,-3.6755,-3.6755,-3.6438,-3.6799,-3.7109,-3.7109,-3.7303,-3.7572,-3.7863,-3.8089,-3.8315,-3.8612,-3.8649,-3.8634,-3.8671,-3.8671,-3.8708,-3.8782,-3.8782,-3.887,-3.9031,-3.9031,-3.8843,-3.8465,-3.8381,-3.7769,-3.6817,-3.6596,-3.6178,-3.5684,-3.5549,-3.5504,-3.5504,-3.5504,-3.516,-3.4592,-3.3933,-3.3185,-3.2407,-3.1884,-3.1615,-3.1511,-3.1539,-3.1568,-3.1568,-3.1597,-3.1597,-3.1597,-3.1597,-3.1597,-3.1626,-3.1813,-3.1841,-3.187,-3.1968,-3.1912,-3.187,-3.2025,-3.194,-3.187,-3.2025,-3.2025,-3.2025,-3.2038,-3.2122,-3.2247,-3.237,-3.2398,-3.2453,-3.2578,-3.248,-3.2425,-3.2551,-3.2453,-3.2398,-3.2398,-3.2496,-3.2523,-3.2425,-3.2648,-3.2746,-3.2578,-3.2718,-3.2746,-3.2551,-3.2551,-3.2523,-3.2398,-3.2398,-3.2398,-3.2398,-3.2398,-3.2551,-2.8709,-2.9277,-2.992,-3.0587,-3.073,-3.0938,0.0,0.0,-3.1785,-3.2291,-3.2977,-3.35,-3.3532,-3.4043,-3.4774,-3.5733,-3.5963,-3.6368,-3.7348,-3.7472,-3.7472,-3.7434,-3.7505,-3.7534,-3.7534,-3.7701,-3.7853,-3.7891,-3.8104,-3.8127,-3.8005,-3.8005,-3.8066,-3.8277,-3.8277,-3.8464,-3.8782,-3.8782,-3.8819,-3.8819,-3.8819,-3.8826,-3.8737,-3.8305,-3.805,-3.7857,-3.6918,-3.6447,-3.6327,-3.5744,-3.5504,-3.5504,-3.5504,-3.5459,-3.531,-3.4653,-3.3589,-3.2497,-3.2392,-3.1989,-3.1539,-3.1698,-3.1756,-3.1784,-3.1912,-3.194,-3.194,-3.194,-3.194,-3.194,-3.1968,-3.1968,-3.1968,-3.1996,-3.1996,-3.2025,-3.215,-3.2066,-3.2025,-3.2135,-3.2066,-3.2038,-3.2163,-3.2191,-3.2247,-3.237,-3.2398,-3.2453,-3.2578,-3.248,-3.2425,-3.2425,-3.2425,-3.2398,-3.2398,-3.2425,-3.2425,-3.2398,-3.2425,-3.2453,-3.2425,-3.2425,-3.2453,-3.2425,-3.2425,-3.2425,-3.2398,-3.2398,-3.2398,-3.2398,-3.2398,-3.2425,-2.9579,-2.9745,-2.9894,0.0,-3.067,-3.0897,-3.1468,-3.1828,-3.2217,-3.2814,-3.3541,-3.413,-3.413,-3.4627,-3.5148,0.0,-3.613,-3.662,-3.7028,-3.738,-3.7625,-3.7625,-3.7801,-3.7877,-3.761,-3.7777,-3.7891,-3.7891,-3.7967,-3.8028,-3.8066,-3.7967,-3.8005,-3.8202,-3.8202,-3.8277,-3.8464,-3.8464,-3.8501,-3.8612,-3.8612,-3.8686,-3.8782,-3.859,-3.8286,-3.7887,-3.7159,-3.6652,-3.6313,-3.6159,-3.5848,-3.5504,-3.5504,-3.5554,-3.5546,-3.479,-3.4175,-3.3682,-3.2886,-3.2494,-3.234,-3.2019,-3.1927,-3.1927,-3.1968,-3.1996,-3.1996,-3.1996,-3.1996,-3.1996,-3.1996,-3.1868,-3.171,-3.171,-3.171,-3.1724,-3.1781,-3.1752,-3.1739,-3.1781,-3.1625,-3.1511,-3.1553,-3.1625,-3.1724,-3.1866,-3.216,-3.2453,-3.2578,-3.248,-3.2398,-3.2398,-3.2398,-3.2398,-3.2398,-3.2398,-3.2398,-3.2398,-3.2247,-3.2178,-3.2178,-3.1979,-3.1879,-3.1879,-3.1879,-3.1879,-3.1879,-3.1879,-3.1879,-3.1879,-3.1879,-3.1879,-2.9323,0.0,0.0,-3.0292,-3.0748,-3.1173,-3.1479,-3.2038,-3.2617,-3.3098,-3.3946,-3.4536,-3.4459,-3.4977,-3.5505,-3.5544,-3.6099,-3.6587,-3.6744,-3.7367,-3.7776,-3.7882,-3.8212,-3.8364,-3.8074,-3.7992,-3.7967,-3.7967,-3.7967,-3.8028,-3.8104,-3.7967,-3.7967,-3.8104,-3.8142,-3.8127,-3.8202,-3.8202,-3.8277,-3.8404,-3.8404,-3.8501,-3.8634,-3.8686,-3.8495,-3.8045,-3.7517,-3.6951,-3.6393,-3.6335,-3.5955,-3.5326,-3.5326,-3.5394,-3.5417,-3.4825,-3.4685,-3.4604,-3.3457,-3.3047,-3.2877,-3.2152,-3.1925,-3.1896,-3.1868,-3.1868,-3.1868,-3.1868,-3.1868,-3.1868,-3.1868,-3.1682,-3.1508,-3.1508,-3.1508,-3.1508,-3.1508,-3.1508,-3.1508,-3.1508,-3.1336,-3.1205,-3.1205,-3.1278,-3.1394,-3.1495,-3.1879,-3.2203,-3.233,-3.2231,-3.216,-3.216,-3.216,-3.216,-3.216,-3.216,-3.216,-3.216,-3.1966,-3.1868,-3.1868,-3.1638,-3.1508,-3.1508,-3.1508,-3.1508,-3.1508,-3.1508,-3.1508,-3.1508,-3.1508,-3.1451,0.0,0.0,-2.9476,-3.023,-3.1233,-3.2222,-3.2777,-3.3117,-3.3208,-3.304,-3.395,-3.4683,-3.43,-3.5009,-3.5763,-3.5964,-3.6017,-3.623,-3.69,-3.7667,-3.8285,-3.8525,-3.8929,-3.9175,0.0,-3.858,-3.8202,-3.8202,-3.8202,-3.8104,-3.7929,-3.7891,-3.7891,-3.7891,-3.7891,-3.7991,-3.8202,-3.8202,-3.8202,-3.8202,-3.8202,-3.8202,-3.824,-3.8404,-3.8612,-3.8723,-3.8074,-3.7441,-3.6836,-3.6173,-3.551,-3.4935,-3.4935,-3.4935,-3.492,-3.4905,-3.4929,-3.488,-3.4197,-3.353,-3.2848,-3.1979,-3.171,-3.1682,-3.1552,-3.1508,-3.1508,-3.1508,-3.1508,-3.1508,-3.1508,-3.1508,-3.1508,-3.1508,-3.1508,-3.1508,-3.1508,-3.1508,-3.1508,-3.1508,-3.148,-3.1495,-3.1495,-3.148,-3.1495,-3.1508,-3.1508,-3.1581,-3.1695,-3.161,-3.1523,-3.1523,-3.1523,-3.1523,-3.1523,-3.1523,-3.1523,-3.1523,-3.1508,-3.1508,-3.1508,-3.1508,-3.1508,-3.1508,-3.1508,-3.1508,-3.1508,-3.1508,-3.1508,-3.1508,-3.1508,-3.135,0.0,0.0,-3.0782,-3.1689,-3.2291,-3.2802,-3.317,-3.3699,-3.4058,-3.3821,-3.4647,-3.5305,-3.5063,-3.5265,-3.5521,-3.5602,-3.548,-3.5656,-3.6443,-3.6988,-3.7589,-3.821,-3.8645,0.0,0.0,0.0,0.0,-3.8202,-3.8066,-3.8028,-3.8104,-3.7967,-3.7967,-3.8104,-3.8104,-3.8127,-3.8202,-3.8202,-3.8202,-3.8202,-3.8202,-3.8202,-3.8202,-3.8277,-3.8352,-3.8412,-3.8304,-3.7666,-3.6705,-3.659,-3.5922,-3.4902,-3.4902,-3.4968,-3.5115,-3.5115,-3.518,-3.5155,-3.4414,-3.3785,-3.3201,-3.2481,-3.1927,-3.1552,-3.1508,-3.1508,-3.1508,-3.1508,-3.1508,-3.1508,-3.1508,-3.1335,-3.1175,-3.1175,-3.1175,-3.1175,-3.1175,-3.1175,-3.1175,-3.1175,-3.1029,-3.0881,-3.0881,-3.0881,-3.0881,-3.0881,-3.1248,-3.1508,-3.1552,-3.1523,-3.1508,-3.1508,-3.1508,-3.1508,-3.1508,-3.1508,-3.1508,-3.1508,-3.1277,-3.1175,-3.1175,-3.0999,-3.0881,-3.0881,-3.0881,-3.0881,-3.0881,-3.0881,-3.0881,-3.0881,-3.0881,-3.0822,0.0,-3.0306,-3.1261,-3.2241,-3.2763,-3.3211,-3.3741,-3.4233,-3.4486,-3.4179,-3.4781,-3.5278,-3.4928,-3.505,-3.5197,-3.5291,-3.5195,-3.5288,-3.5786,-3.6521,-3.7262,-3.7951,-3.863,-3.9019,0.0,0.0,0.0,-3.8299,-3.8121,-3.8066,-3.8202,-3.8066,-3.8066,-3.8202,-3.8202,-3.8202,-3.8202,-3.8202,-3.8202,-3.8202,-3.8202,-3.8202,-3.8202,-3.8202,-3.8202,-3.8202,-3.8329,-3.782,-3.6829,-3.6752,-3.6054,-3.5058,-3.4823,-3.4817,-3.4916,-3.4916,-3.4953,-3.4967,-3.4456,-3.3928,-3.338,-3.2601,-3.1871,-3.1306,-3.1204,-3.1175,-3.1175,-3.1175,-3.1175,-3.1175,-3.1175,-3.1029,-3.0851,-3.0851,-3.0851,-3.0851,-3.0851,-3.0851,-3.0851,-3.0851,-3.0717,-3.0598,-3.0598,-3.0598,-3.0598,-3.0598,-3.0911,-3.1175,-3.1175,-3.1175,-3.1175,-3.1175,-3.1175,-3.1175,-3.1175,-3.1175,-3.1175,-3.1175,-3.097,-3.0851,-3.0851,-3.0687,-3.0598,-3.0598,-3.0598,-3.0598,-3.0598,-3.0598,-3.0598,-3.0598,-3.0598,-3.0598,-2.8612,-3.001,-3.1009,-3.1935,-3.2697,-3.3498,-3.4474,-3.4649,-3.4518,-3.3964,-3.4313,-3.4551,0.0,0.0,-3.4819,-3.5021,-3.5059,-3.5086,-3.5167,-3.635,-3.7387,0.0,0.0,0.0,0.0,0.0,0.0,-3.8538,0.0,-3.8228,-3.8228,-3.8228,-3.8228,-3.8266,-3.8228,-3.8252,-3.826,-3.8217,-3.8202,-3.8202,-3.8202,-3.8202,-3.8202,-3.8202,-3.8202,-3.8202,-3.8202,-3.7868,-3.7259,-3.6591,-3.5923,-3.5334,-3.4661,-3.4414,-3.4414,-3.4414,-3.4414,-3.4394,-3.4421,-3.3989,-3.3348,-3.2358,-3.1573,-3.0984,-3.0702,-3.0598,-3.0598,-3.0598,-3.0598,-3.0598,-3.0598,-3.0598,-3.0598,-3.0598,-3.0598,-3.0598,-3.0598,-3.0598,-3.0598,-3.0568,-3.0538,-3.0568,-3.0598,-3.0568,-3.0538,-3.0538,-3.0538,-3.0568,-3.0598,-3.0568,-3.0568,-3.0598,-3.0568,-3.0568,-3.0598,-3.0598,-3.0598,-3.0598,-3.0598,-3.0598,-3.0598,-3.0598,-3.0598,-3.0598,-3.0598,-3.0598,-3.0598,-3.0598,-3.0598,-3.0598,-3.0598,-3.0598,-3.0033,-3.1231,-3.2227,-3.3082,-3.3434,-3.3714,-3.4358,-3.4277,-3.3911,-3.3158,-3.3396,-3.3551,0.0,0.0,0.0,-3.4406,-3.4806,0.0,-3.5908,-3.6703,0.0,-3.8181,0.0,-3.9281,-3.9122,-3.8865,0.0,0.0,-3.8653,-3.8665,-3.8665,-3.8665,-3.8825,-3.9158,-3.8825,-3.8756,-3.8942,-3.8449,-3.8202,-3.8202,-3.8202,-3.8202,-3.8202,-3.8202,-3.8202,-3.8202,-3.8202,-3.7868,-3.7259,-3.6591,-3.5923,-3.5334,-3.4661,-3.4414,-3.4414,-3.4414,-3.4414,-3.4385,-3.4393,-3.401,-3.3381,-3.2628,-3.1941,-3.1283,-3.0743,-3.0598,-3.0598,-3.0598,-3.0598,-3.0598,-3.0598,-3.0598,-3.0598,-3.0598,-3.0598,-3.0598,-3.0598,-3.0598,-3.0447,-2.9931,-2.9839,-3.0007,-3.0507,-3.019,-2.9839,-2.9839,-2.9839,-3.0038,-3.0538,-3.016,-3.0068,-3.0538,-3.016,-3.0068,-3.0568,-3.0598,-3.0598,-3.0598,-3.0598,-3.0598,-3.0598,-3.0598,-3.0598,-3.0598,-3.0598,-3.0598,-3.0598,-3.0598,-3.0598,-3.0598,-3.0598,-3.0598,-3.0999,-3.1942,-3.2659,-3.3301,-3.3441,-3.3492,-3.3698,-3.3465,-3.292,-3.1824,-3.212,0.0,-3.1612,0.0,0.0,0.0,0.0,0.0,-3.5692,-3.6509,-3.7222,0.0,-3.86,0.0,-3.9056,-3.8993,-3.8978,0.0,-3.8754,-3.8683,-3.8779,-3.8779,-3.8902,-3.9201,-3.8943,-3.8642,-3.8231,-3.8285,-3.8083,-3.7558,-3.7997,-3.8202,-3.8202,-3.8202,-3.8202,-3.8202,0.0,-3.8014,-3.7622,-3.6693,-3.6098,-3.5691,-3.4777,-3.4414,-3.4414,-3.4414,-3.4414,-3.4414,-3.4414,-3.4182,-3.3732,-3.2817,-3.2031,-3.1409,-3.0786,-3.0598,-3.0598,-3.0598,-3.0598,-3.0598,-3.0598,-3.0598,-3.0598,-3.0598,-3.0598,-3.0598,-3.0598,-3.0598,-3.0417,-2.9716,-2.9591,-2.9608,-2.967,-2.9639,-2.9484,-2.9156,-2.939,-2.9577,-2.947,-2.9546,-2.9747,-3.0129,-2.9808,-2.9608,-2.9656,-3.0251,-3.0477,-3.019,-3.0447,-3.0598,-3.0598,-3.0598,-3.0598,-3.0598,-3.0598,-3.0598,-3.0598,-3.0598,-3.0598,-3.0598,-3.0598,-3.0598,-3.1627,-3.2367,-3.276,-3.3084,-3.324,-3.3204,-3.2877,-3.2557,-3.1875,-3.0254,0.0,-3.1164,-3.0377,-3.1466,-3.2769,-3.3781,0.0,-3.442,-3.494,-3.6007,-3.6866,-3.7187,-3.8142,-3.8917,-3.9203,-3.9247,-3.9247,-3.9247,-3.8745,-3.8561,-3.8852,-3.8866,-3.8866,-3.8866,-3.8863,-3.8327,-3.7245,-3.8044,-3.7906,-3.6917,-3.7777,-3.8202,-3.8202,-3.8202,-3.8202,-3.8202,0.0,0.0,-3.7984,-3.6794,-3.6257,-3.6069,-3.4878,-3.4414,-3.4414,-3.4414,-3.4414,-3.4414,-3.4414,-3.4414,-3.4196,-3.2901,-3.2104,-3.1511,-3.083,-3.0598,-3.0598,-3.0598,-3.0598,-3.0598,-3.0598,-3.0598,-3.0598,-3.0598,-3.0538,-3.0477,-3.0477,-3.0312,-3.0054,-2.9546,-2.939,-2.9156,-2.8588,-2.8967,-2.9093,-2.8395,-2.8826,-2.8903,-2.792,-2.873,-2.9359,-2.9314,-2.9219,-2.8953,-2.8395,-2.9487,-2.9979,-2.9484,-2.9993,-3.0387,-3.0447,-3.0462,-3.0462,-3.0462,-3.0462,-3.0462,-3.0462,-3.0462,-3.0462,-3.0477,-3.0507,-3.0522,-3.2244,-3.2953,-3.3513,-3.3573,-3.3894,-3.3887,-3.2715,-3.2175,0.0,0.0,-2.9503,-3.0014,-2.8976,-3.0667,-3.2326,-3.2524,0.0,0.0,0.0,0.0,-3.6665,0.0,0.0,0.0,0.0,0.0,0.0,0.0,0.0,-3.8908,-3.9213,-3.9213,-3.9213,-3.9213,-3.9117,-3.8857,-3.8497,-3.8175,-3.7973,-3.7916,-3.8107,-3.8202,-3.8202,-3.8202,-3.8202,-3.8202,-3.8202,0.0,-3.7404,-3.6635,-3.5996,-3.5494,-3.4704,-3.4414,-3.4414,-3.4414,-3.4414,-3.4414,-3.4414,-3.4414,-3.4196,-3.2901,-3.2408,-3.2121,-3.0961,-3.0598,-3.0598,-3.0598,-3.0598,-3.0598,-3.0598,-3.0598,-3.0598,-3.0598,-3.019,-2.9777,-2.9777,-2.8871,-2.8149,-2.8602,-2.8247,-2.7986,-2.8441,-2.8149,-2.7703,-2.7258,-2.7291,-2.7211,-2.6739,-2.7611,-2.8168,-2.7834,-2.7285,-2.7118,-2.7558,-2.7821,-2.816,-2.8652,-2.8794,-2.9125,-2.9758,-2.9758,-2.9758,-2.9758,-2.9758,-2.9758,-2.9758,-2.9758,-2.9758,-2.9789,-3.005,-3.0172,-3.2793,-3.3469,-3.405,-3.405,-3.4009,-3.3571,-3.2226,0.0,0.0,0.0,-2.8448,-2.8912,-2.8594,-2.9579,0.0,-3.2002,0.0,0.0,0.0,0.0,0.0,0.0,0.0,0.0,0.0,0.0,0.0,0.0,0.0,-3.9145,-3.9305,-3.9305,-3.9305,-3.9305,-3.8652,-3.791,-3.7193,-3.6808,-3.6368,-3.5881,-3.6931,-3.7434,-3.7448,-3.7968,-3.8202,-3.8202,-3.8202,0.0,-3.7259,-3.6591,-3.5923,-3.5334,-3.4661,-3.4414,-3.4414,-3.4414,-3.4414,-3.4414,-3.4414,-3.4414,-3.4196,-3.2901,-3.2481,-3.2266,-3.1004,-3.0598,-3.0598,-3.0598,-3.0598,-3.0598,-3.0598,-3.0598,-3.0598,-3.0598,-3.0099,-2.9591,-2.9591,-2.8487,-2.7604,-2.792,-2.7736,-2.7404,-2.717,-2.717,-2.6934,-2.6183,-2.6377,-2.6377,-2.5652,-2.6308,-2.6862,-2.6883,-2.6591,-2.6364,-2.6317,-2.6958,-2.7571,-2.7953,-2.7959,-2.8252,-2.9012,-2.9012,-2.9012,-2.9012,-2.9012,-2.9012,-2.9012,-2.9012,-2.9012,-2.9044,-2.9588,-2.9927,-3.3318,-3.3988,-3.4496,-3.4337,-3.3998,-3.3302,-3.168,-3.0714,0.0,-2.7765,-2.7881,-2.8363,-2.8579,-2.8976,-2.988,0.0,-3.2175,0.0,0.0,0.0,0.0,0.0,0.0,0.0,0.0,0.0,0.0,0.0,0.0,0.0,-3.9305,-3.9305,-3.9237,-3.9115,-3.8005,-3.6892,-3.5858,-3.5554,-3.494,-3.4034,-3.5852,-3.6605,-3.643,-3.7434,-3.7849,-3.7737,-3.7737,0.0,0.0,-3.6339,-3.5745,-3.4992,-3.4569,-3.4414,-3.4414,-3.4414,-3.4414,-3.4414,-3.4414,-3.4259,-3.3922,-3.2858,-3.2481,-3.2266,-3.1004,-3.0598,-3.0598,-3.0598,-3.0598,-3.0598,-3.0598,-3.0598,-3.0538,-3.0206,-2.9639,-2.9107,-2.898,-2.7999,-2.7149,-2.7149,-2.7082,-2.6744,-2.5921,-2.6208,-2.6252,-2.5312,-2.5674,-2.5709,-2.4778,-2.5135,-2.5592,-2.5894,-2.5928,-2.5697,-2.5099,-2.6077,-2.6815,-2.7035,-2.6997,-2.7272,-2.8005,-2.8057,-2.8057,-2.8038,-2.8038,-2.8038,-2.8038,-2.8038,-2.8136,-2.8298,-2.8789,-2.9261,-3.3875,-3.4662,-3.487,-3.415,-3.4166,-3.3777,-3.1319,0.0,-2.9744,-2.752,-2.8165,-2.9012,-2.852,-2.9711,-3.0887,0.0,0.0,-3.2447,0.0,0.0,0.0,0.0,0.0,0.0,0.0,0.0,0.0,0.0,0.0,0.0,-3.9305,-3.9305,-3.9061,-3.8518,-3.7493,-3.6756,-3.6325,-3.5423,-3.4994,-3.5082,-3.6177,-3.6205,-3.5362,-3.6379,-3.6627,-3.6302,-3.6302,0.0,0.0,-3.5616,-3.5032,-3.3994,-3.4293,-3.4414,-3.4414,-3.4414,-3.4414,-3.4414,-3.4414,-3.3821,-3.3063,-3.2648,-3.2481,-3.2266,-3.1004,-3.0598,-3.0598,-3.0598,-3.0598,-3.0598,-3.0598,-3.0598,-3.0282,-2.9016,-2.8182,-2.7517,-2.6918,-2.6418,-2.6037,-2.6037,-2.5734,-2.5476,-2.5382,-2.5418,-2.5312,-2.4897,-2.4885,-2.4778,-2.4309,-2.4298,-2.437,-2.4406,-2.4406,-2.437,-2.4298,-2.4431,-2.4778,-2.5441,-2.5511,-2.5814,-2.6539,-2.6582,-2.6582,-2.6573,-2.6586,-2.6586,-2.6586,-2.6586,-2.6947,-2.7571,-2.7298,-2.7531,-3.3238,-3.382,-3.402,-3.3819,-3.3615,-3.2943,-3.0977,0.0,-2.9605,-2.7831,-2.8044,-2.8628,-2.8999,-2.9413,-2.9973,0.0,0.0,0.0,0.0,0.0,0.0,0.0,0.0,0.0,0.0,0.0,0.0,0.0,0.0,0.0,-3.9305,-3.9305,-3.8871,-3.7878,-3.6783,-3.5775,-3.4913,-3.381,-3.3331,-3.3404,-3.4404,-3.4668,-3.4339,-3.5714,-3.6241,-3.6103,-3.6103,0.0,0.0,-3.5152,-3.4484,-3.3528,-3.3908,-3.3908,-3.377,-3.3942,-3.3908,-3.3805,-3.423,-3.3758,-3.2878,-3.2587,-3.2078,-3.1478,-3.0813,-3.0462,-3.028,-3.028,-3.0158,-3.0005,-3.0005,-2.9837,-2.9543,-2.8953,-2.794,-2.7002,-2.6539,-2.5978,-2.5535,-2.5535,-2.5418,-2.5241,-2.5016,-2.4981,-2.4885,-2.449,-2.4454,-2.4381,-2.4236,-2.42,-2.42,-2.42,-2.42,-2.42,-2.42,-2.42,-2.4503,-2.5241,-2.4886,-2.4957,-2.5687,-2.5744,-2.5744,-2.5721,-2.5721,-2.5721,-2.5721,-2.5721,-2.5896,-2.6195,-2.6458,-2.6875,-3.276,-3.3288,-3.3456,-3.3359,-3.2863,-3.1947,0.0,0.0,-2.9074,-2.7809,-2.7683,-2.8001,-2.8705,-2.8525,-2.8753,0.0,0.0,-3.079,0.0,0.0,0.0,0.0,0.0,0.0,0.0,0.0,0.0,0.0,0.0,0.0,0.0,-3.8563,-3.8038,-3.7241,-3.5873,-3.4666,-3.365,-3.2684,-3.2218,-3.2218,-3.3221,-3.3657,-3.3574,-3.5022,-3.5669,-3.5708,0.0,0.0,0.0,-3.4522,-3.3938,-3.3164,-3.3514,-3.3514,-3.3339,-3.3563,-3.3479,-3.3374,-3.4025,-3.346,-3.2454,-3.2497,-3.1711,-3.0716,-3.0622,-3.0371,-3.008,-3.008,-2.9927,-2.9665,-2.9355,-2.904,-2.8675,-2.833,-2.7298,-2.6355,-2.6136,-2.5569,-2.5182,-2.5194,-2.5135,-2.4969,-2.4754,-2.4718,-2.461,-2.4236,-2.42,-2.42,-2.42,-2.42,-2.42,-2.42,-2.42,-2.42,-2.42,-2.42,-2.4406,-2.4921,-2.4478,-2.4442,-2.4957,-2.4957,-2.4957,-2.4957,-2.4957,-2.4957,-2.4957,-2.4957,-2.5099,-2.5312,-2.5616,-2.5975,-3.2816,-3.3535,-3.3503,-3.2698,-3.1909,-3.0897,0.0,0.0,-2.8127,-2.7104,-2.7126,-2.7314,-2.7314,-2.7151,-2.7469,-2.8787,0.0,0.0,0.0,0.0,0.0,0.0,0.0,0.0,0.0,0.0,0.0,0.0,0.0,0.0,0.0,-3.686,-3.6425,-3.6605,-3.4856,-3.3675,-3.3115,-3.2504,-3.2218,-3.2218,-3.3221,-3.3509,-3.3152,-3.4166,-3.4695,0.0,0.0,0.0,0.0,-3.3716,-3.3242,-3.2739,-3.3164,-3.3304,-3.3304,-3.3304,-3.3304,-3.3339,-3.3701,-3.2755,-3.1556,-3.2256,-3.1406,-3.0172,-3.0492,-3.0371,-3.008,-3.008,-3.008,-2.9851,-2.8794,-2.8279,-2.7743,-2.6671,-2.5871,-2.5312,-2.5312,-2.5052,-2.4849,-2.4981,-2.4718,-2.449,-2.449,-2.449,-2.4418,-2.4236,-2.42,-2.42,-2.42,-2.42,-2.42,-2.42,-2.42,-2.42,-2.42,-2.42,-2.42,-2.42,-2.42,-2.42,-2.42,-2.42,-2.42,-2.42,-2.42,-2.42,-2.42,-2.42,-2.4575,-2.5264,-2.455,-2.4611,-3.1558,-3.173,-3.1451,-3.1726,-3.1333,-3.0559,-2.9504,-2.9288,-2.9039,-2.8239,-2.8438,-2.8505,-2.7767,-2.7908,-2.81,-2.8109,-2.8599,0.0,0.0,0.0,0.0,0.0,0.0,0.0,0.0,0.0,0.0,0.0,0.0,0.0,0.0,-3.5826,-3.5117,-3.5157,-3.4345,-3.3433,-3.2504,-3.2314,-3.2218,-3.2218,-3.2927,-3.3213,-3.3129,-3.4429,0.0,0.0,0.0,0.0,0.0,-3.3111,-3.2739,-3.2372,-3.2739,-3.2753,-3.2588,-3.281,-3.249,-3.2005,-3.2617,-3.1937,-3.0811,-3.1055,-3.0502,-2.9834,-3.0172,-3.0172,-3.005,-2.9834,-2.9415,-2.899,-2.8602,-2.7723,-2.6731,-2.6136,-2.5476,-2.4873,-2.4622,-2.4562,-2.461,-2.4658,-2.467,-2.4718,-2.4718,-2.461,-2.449,-2.4418,-2.4309,-2.42,-2.42,-2.42,-2.42,-2.42,-2.42,-2.42,-2.42,-2.42,-2.42,-2.42,-2.42,-2.42,-2.42,-2.42,-2.42,-2.42,-2.42,-2.42,-2.42,-2.42,-2.4334,-2.4539,-2.4298,-2.4334,0.0,-3.0753,-3.0514,-3.1034,-3.0651,0.0,0.0,-2.9261,-2.9097,-2.8402,-2.8487,-2.8365,-2.7434,-2.7178,-2.7126,-2.7174,-2.78,0.0,0.0,0.0,0.0,0.0,0.0,0.0,0.0,0.0,0.0,0.0,0.0,0.0,0.0,-3.5168,-3.4406,-3.4485,-3.3709,-3.2928,-3.2218,-3.2436,-3.2544,-3.2558,-3.3118,-3.3512,-3.3742,-3.4401,0.0,0.0,0.0,0.0,0.0,-3.2691,-3.2372,-3.2218,-3.2444,-3.2372,-3.2214,-3.2242,-3.1869,-3.1365,-3.1797,-3.1226,-3.0322,-3.0455,-3.008,-2.9634,-2.9865,-2.9988,-2.9988,-2.9355,-2.8867,-2.8384,-2.7511,-2.6752,-2.6022,-2.5346,-2.4897,-2.4538,-2.4345,-2.4418,-2.4526,-2.4706,-2.4814,-2.4921,-2.4921,-2.4814,-2.4658,-2.4526,-2.4381,-2.4309,-2.4309,-2.4236,-2.4236,-2.4309,-2.4236,-2.42,-2.42,-2.42,-2.42,-2.42,-2.42,-2.42,-2.42,-2.42,-2.42,-2.42,-2.42,-2.42,-2.42,-2.42,-2.42,-2.42,-2.42,-2.42,0.0,0.0,-3.0548,-3.0589,-2.9989,0.0,0.0,0.0,0.0,-2.7935,-2.7677,-2.7332,-2.6637,-2.5613,-2.5182,-2.6184,-2.6675,0.0,0.0,0.0,0.0,0.0,0.0,0.0,0.0,0.0,0.0,0.0,0.0,0.0,0.0,-3.4792,-3.4246,-3.4485,-3.3074,-3.2304,-3.2304,-3.2847,-3.3132,-3.3169,-3.3691,-3.4233,-3.4707,-3.4206,0.0,0.0,0.0,0.0,0.0,-3.2449,-3.2218,-3.2218,-3.2164,-3.2151,-3.2083,-3.1586,-3.1319,-3.1153,-3.1114,-3.0571,-2.9993,-3.0289,-3.0006,-2.954,-2.954,-2.9803,-2.9851,-2.8794,-2.846,-2.7959,-2.5871,-2.5534,-2.5487,-2.4431,-2.42,-2.4273,-2.4454,-2.449,-2.4634,-2.5004,-2.5111,-2.5111,-2.5111,-2.5111,-2.4981,-2.4598,-2.4526,-2.4502,-2.4538,-2.4345,-2.4273,-2.449,-2.4309,-2.42,-2.42,-2.42,-2.42,-2.42,-2.42,-2.42,-2.42,-2.42,-2.42,-2.42,-2.42,-2.42,-2.42,-2.42,-2.42,-2.42,-2.42,-2.42,-3.0242,0.0,-3.0091,-3.042,-3.0039,-2.9519,0.0,0.0,0.0,0.0,0.0,0.0,0.0,-2.695,-2.6447,-2.6633,-2.655,-2.688,0.0,0.0,0.0,0.0,0.0,0.0,0.0,0.0,0.0,0.0,0.0,0.0,0.0,-3.424,-3.4059,-3.4246,-3.3614,-3.3349,-3.3487,-3.3484,-3.3551,-3.3704,-3.4301,-3.4384,-3.397,-3.445,0.0,0.0,0.0,0.0,-3.2189,-3.22,-3.2218,-3.2164,-3.168,-3.1504,-3.1422,-3.086,-3.0344,-2.9923,-2.9894,-2.9654,-2.9306,-2.9402,-2.9337,-2.9226,-2.9226,-2.9446,-2.9557,-2.873,-2.8149,-2.7425,-2.6032,-2.537,-2.4873,-2.4334,-2.42,-2.4273,-2.4454,-2.461,-2.479,-2.5052,-2.5182,-2.5241,-2.5241,-2.5182,-2.5087,-2.4981,-2.4706,-2.4574,-2.4718,-2.4418,-2.4273,-2.449,-2.4309,-2.42,-2.42,-2.42,-2.42,-2.42,-2.42,-2.42,-2.42,-2.42,-2.42,-2.42,-2.42,-2.42,-2.42,-2.42,-2.42,-2.42,-2.42,-2.42,-3.0568,-3.0282,-3.0048,-3.0153,-2.9998,-2.9772,-2.954,0.0,0.0,0.0,0.0,0.0,0.0,0.0,-2.6437,-2.6545,-2.6411,0.0,0.0,0.0,0.0,0.0,0.0,0.0,0.0,0.0,0.0,0.0,0.0,0.0,0.0,-3.4452,-3.4416,-3.4606,-3.43,-3.4071,-3.3908,-3.4062,-3.4197,-3.4328,-3.4561,-3.4469,-3.408,-3.389,-3.3331,0.0,0.0,0.0,-3.1877,-3.1703,-3.1703,-3.1721,-3.111,-3.0893,-3.0812,-3.0269,-2.9834,-2.9475,-2.9255,-2.9053,-2.8876,-2.8876,-2.8876,-2.8876,-2.8876,-2.9004,-2.8958,-2.8038,-2.7265,-2.6445,-2.5346,-2.479,-2.4454,-2.4236,-2.42,-2.4273,-2.4454,-2.4646,-2.4861,-2.5052,-2.5218,-2.5312,-2.5312,-2.5241,-2.5182,-2.5111,-2.4909,-2.4778,-2.479,-2.4538,-2.4381,-2.4502,-2.4309,-2.42,-2.42,-2.42,-2.42,-2.42,-2.42,-2.42,-2.42,-2.42,-2.42,-2.42,-2.42,-2.42,-2.42,-2.42,-2.42,-2.42,-2.42,-2.42,-3.0984,-3.0657,-3.0312,-2.9962,-2.9991,-3.0019,-2.9696,0.0,0.0,0.0,0.0,0.0,0.0,-2.6258,0.0,0.0,0.0,0.0,0.0,0.0,0.0,0.0,0.0,0.0,0.0,0.0,0.0,0.0,0.0,0.0,0.0,-3.4839,-3.4839,-3.5044,-3.4921,-3.4606,-3.4115,-3.4641,-3.4844,-3.4749,-3.4604,-3.4391,-3.4111,-3.2966,-3.2384,0.0,0.0,0.0,-3.1813,-3.1352,-3.128,-3.139,-3.0711,-3.0439,-3.0358,-2.9771,-2.9479,-2.9298,-2.8893,-2.8683,-2.8587,-2.8587,-2.8587,-2.8587,-2.8587,-2.8457,-2.8072,-2.7111,-2.6352,-2.5627,-2.4503,-2.42,-2.42,-2.4236,-2.4236,-2.4273,-2.449,-2.4646,-2.4814,-2.5052,-2.5182,-2.5276,-2.5312,-2.5312,-2.5276,-2.5147,-2.5111,-2.5052,-2.4885,-2.4682,-2.4538,-2.4538,-2.4381,-2.4236,-2.42,-2.42,-2.4164,-2.4116,-2.4164,-2.42,-2.42,-2.42,-2.42,-2.42,-2.42,-2.42,-2.42,-2.42,-2.4236,-2.4236,-2.42,-2.4236,-3.135,-3.119,-3.0866,-3.0357,-3.0158,-3.0036,-2.9822,0.0,0.0,0.0,0.0,0.0,0.0,-2.7125,0.0,0.0,0.0,0.0,0.0,0.0,0.0,0.0,0.0,0.0,0.0,0.0,0.0,0.0,0.0,0.0,0.0,-3.4481,-3.4577,-3.4839,-3.4962,-3.5074,-3.5171,-3.5251,-3.5049,-3.4565,-3.4525,-3.3805,-3.2549,-3.2339,-3.1868,0.0,0.0,-3.1471,-3.1669,-3.1905,-3.2092,-3.2149,-3.1068,-3.0644,-3.0508,-2.9242,-2.8755,-2.8709,-2.866,-2.8619,-2.8587,-2.8587,-2.8587,-2.8587,-2.8587,-2.7743,-2.6688,-2.6552,-2.6414,-2.6,-2.4575,-2.42,-2.4236,-2.4418,-2.4309,-2.4309,-2.4682,-2.4646,-2.467,-2.5016,-2.5111,-2.5182,-2.5276,-2.5312,-2.5276,-2.5276,-2.5182,-2.5111,-2.5218,-2.4957,-2.4754,-2.4754,-2.4574,-2.4381,-2.42,-2.42,-2.4043,-2.3703,-2.4007,-2.42,-2.42,-2.42,-2.42,-2.42,-2.42,-2.42,-2.42,-2.42,-2.4309,-2.4454,-2.4273,-2.4381,-3.161,-3.1553,-3.138,-3.0955,-3.0598,-3.031,-3.0021,-2.9789,0.0,0.0,0.0,0.0,0.0,0.0,0.0,0.0,0.0,0.0,0.0,0.0,0.0,0.0,0.0,0.0,0.0,0.0,0.0,0.0,0.0,0.0,0.0,0.0,-3.4452,-3.4577,-3.4797,-3.4816,-3.4579,-3.4687,-3.4674,-3.4472,-3.3645,-3.2956,-3.2361,-3.1915,-3.1587,-3.1323,0.0,-3.103,-3.1339,-3.0672,-3.0613,-3.0849,-2.9921,-2.9561,-2.9492,-2.8836,-2.8587,-2.8587,-2.8587,-2.8587,-2.8587,-2.8587,-2.8587,-2.8522,-2.8137,-2.753,-2.6845,-2.6035,-2.5511,-2.5064,-2.437,-2.42,-2.4236,-2.4454,-2.4418,-2.4454,-2.4754,-2.4718,-2.4718,-2.4885,-2.5016,-2.5111,-2.5182,-2.5241,-2.5312,-2.5312,-2.5241,-2.5218,-2.5182,-2.5052,-2.4885,-2.4646,-2.4574,-2.4418,-2.4236,-2.42,-2.4116,-2.3934,-2.3897,-2.397,-2.42,-2.42,-2.42,-2.42,-2.42,-2.42,-2.42,-2.42,-2.4236,-2.4345,-2.4345,-2.4454,-3.1796,-3.1726,-3.1655,-3.1365,0.0,-3.0598,-3.028,-2.9958,0.0,0.0,0.0,0.0,0.0,0.0,0.0,0.0,0.0,0.0,0.0,0.0,0.0,0.0,0.0,0.0,0.0,0.0,0.0,0.0,0.0,0.0,0.0,0.0,-3.4284,-3.4284,-3.4331,-3.4176,-3.3687,-3.3715,-3.3807,-3.3951,-3.2747,-3.218,-3.2135,-3.1521,-3.1323,-3.1482,-3.0679,-3.0618,-3.0988,-2.9675,-2.9416,-2.9785,-2.91,-2.8709,-2.8587,-2.8587,-2.8587,-2.8587,-2.8587,-2.8587,-2.8554,-2.8411,-2.8346,-2.8203,-2.7464,-2.7103,-2.6731,-2.5616,-2.479,-2.42,-2.42,-2.42,-2.4236,-2.4454,-2.449,-2.4526,-2.4682,-2.4754,-2.479,-2.479,-2.4921,-2.5052,-2.5111,-2.5218,-2.5276,-2.5312,-2.5312,-2.5276,-2.5147,-2.5147,-2.5004,-2.467,-2.461,-2.4454,-2.4236,-2.4018,-2.3934,-2.3934,-2.3714,-2.3751,-2.4043,-2.4152,-2.42,-2.42,-2.42,-2.42,-2.42,-2.42,-2.4225,-2.4273,-2.4381,-2.449,-3.1768,-3.161,-3.1495,-3.1336,-3.1117,0.0,-3.0642,-3.031,0.0,-2.8666,0.0,0.0,0.0,0.0,0.0,0.0,0.0,0.0,0.0,0.0,0.0,0.0,0.0,0.0,0.0,0.0,0.0,0.0,0.0,0.0,0.0,0.0,0.0,-3.3924,-3.341,-3.3106,-3.3054,-3.2591,-3.234,-3.2378,-3.2261,-3.1817,-3.1127,-3.1037,-3.1123,-3.1283,-3.0459,-3.0378,-3.0672,-3.0019,-2.9973,-3.031,-2.9678,-2.9108,-2.8587,-2.8587,-2.8587,-2.8587,-2.8587,-2.8587,-2.849,-2.7796,-2.7584,-2.7451,-2.6688,-2.6,-2.5441,-2.5335,-2.479,-2.42,-2.42,-2.42,-2.4236,-2.4454,-2.449,-2.449,-2.4538,-2.4682,-2.479,-2.479,-2.479,-2.4921,-2.5241,-2.5182,-2.5147,-2.5276,-2.5312,-2.5312,-2.5276,-2.5276,-2.5241,-2.5076,-2.4885,-2.461,-2.4236,-2.353,-2.3075,-2.3075,-2.3409,-2.3593,-2.3629,-2.4007,-2.42,-2.42,-2.42,-2.42,-2.42,-2.42,-2.4309,-2.4454,-2.4309,-2.4514,-3.1853,-3.1739,-3.171,-3.1409,-3.1307,0.0,0.0,-3.0341,-2.9682,-2.8195,-2.7926,0.0,0.0,0.0,0.0,0.0,0.0,0.0,0.0,0.0,0.0,0.0,0.0,0.0,0.0,0.0,0.0,0.0,0.0,0.0,0.0,0.0,0.0,-3.3145,-3.2922,-3.2633,-3.2279,-3.2069,-3.1794,-3.1465,-3.1465,-3.1346,-3.1198,-3.1198,-3.1074,-3.0874,-3.0124,-2.9768,-2.9696,-2.9039,-2.8953,-2.9271,-2.9021,-2.879,-2.8587,-2.8587,-2.8587,-2.8587,-2.8587,-2.8314,-2.7861,-2.7584,-2.7183,-2.6676,-2.5931,-2.5511,-2.5206,-2.4754,-2.4406,-2.42,-2.42,-2.42,-2.4236,-2.4454,-2.449,-2.4562,-2.4802,-2.4814,-2.4825,-2.4957,-2.4897,-2.4897,-2.5111,-2.5111,-2.5147,-2.5276,-2.5312,-2.5312,-2.5312,-2.5312,-2.5241,-2.5111,-2.4814,-2.449,-2.4225,-2.3224,-2.2628,-2.2628,-2.2777,-2.2852,-2.2852,-2.2708,-2.266,-2.266,-2.2771,-2.2846,-2.2846,-2.3508,-2.3934,-2.4127,-2.4309,-2.4562,-3.1853,-3.171,-3.1697,0.0,0.0,0.0,-3.0732,-3.0431,-2.9924,-2.8712,-2.8654,0.0,0.0,0.0,0.0,0.0,0.0,0.0,0.0,0.0,0.0,0.0,0.0,0.0,0.0,0.0,0.0,0.0,0.0,0.0,0.0,0.0,0.0,0.0,-3.1875,-3.1682,-3.1536,-3.1536,-3.1365,-3.0986,-3.0986,-3.1061,-3.1198,-3.1014,-3.0821,-3.0542,-2.9632,-2.9146,-2.8972,-2.8219,-2.8112,-2.8471,-2.8554,-2.8587,-2.8587,-2.8587,-2.8587,-2.8554,-2.8346,-2.7927,-2.7417,-2.6968,-2.6471,-2.5931,-2.517,-2.4957,-2.4862,-2.4334,-2.42,-2.42,-2.42,-2.42,-2.4236,-2.4381,-2.4454,-2.4562,-2.4766,-2.4849,-2.4885,-2.4909,-2.4921,-2.4957,-2.5087,-2.5123,-2.5147,-2.5276,-2.5312,-2.5276,-2.5241,-2.5241,-2.5147,-2.4945,-2.4442,-2.4032,-2.3824,-2.2729,-2.1977,-2.1825,-2.1825,-2.1901,-2.2014,-2.1945,-2.1762,-2.1535,-2.1838,-2.1828,-2.1514,-2.266,-2.3128,-2.2931,-2.3534,-2.3911,-3.1637,-3.1393,-3.1248,0.0,0.0,0.0,-3.0702,-3.0598,-3.0574,-3.0499,0.0,0.0,0.0,0.0,0.0,0.0,0.0,0.0,0.0,0.0,0.0,0.0,0.0,0.0,0.0,0.0,0.0,0.0,0.0,0.0,0.0,0.0,0.0,0.0,-3.0109,-3.0139,-3.0986,-3.1024,-3.1024,-3.1024,-3.1024,-3.0986,-3.096,-3.0398,-3.0197,-3.0299,-2.8987,-2.8523,-2.8633,-2.7839,-2.7736,-2.8145,-2.8471,-2.8587,-2.8587,-2.8587,-2.8587,-2.849,-2.7749,-2.7484,-2.725,-2.5779,-2.5312,-2.5135,-2.4406,-2.42,-2.42,-2.42,-2.42,-2.42,-2.42,-2.42,-2.42,-2.42,-2.4345,-2.4454,-2.4236,-2.4658,-2.4981,-2.4562,-2.4802,-2.5076,-2.5123,-2.5123,-2.5147,-2.5276,-2.5312,-2.5241,-2.5111,-2.5123,-2.4945,-2.4526,-2.379,-2.3228,-2.3001,-2.189,-2.1011,-2.0537,-2.0557,-2.0789,-2.1165,-2.1897,-2.1903,-2.1094,-2.1687,-2.1476,-2.0498,-2.1762,-2.1849,-2.0836,-2.1886,-2.2451,-3.0443,-3.0573,0.0,-3.0509,0.0,0.0,0.0,-3.0598,0.0,0.0,0.0,0.0,0.0,0.0,0.0,0.0,0.0,0.0,0.0,0.0,0.0,0.0,0.0,0.0,0.0,0.0,0.0,0.0,0.0,0.0,0.0,0.0,0.0,0.0,-3.0254,-3.0533,-3.141,-3.141,-3.141,-3.141,-3.141,-3.1373,-3.1185,-3.0422,-3.001,-2.979,-2.8817,-2.8185,-2.7852,-2.7914,-2.8066,-2.8203,-2.7927,-2.7829,-2.7829,-2.7829,-2.7517,-2.7103,-2.7417,-2.6833,-2.5884,-2.5441,-2.4969,-2.4478,-2.4273,-2.42,-2.42,-2.42,-2.42,-2.42,-2.42,-2.42,-2.42,-2.42,-2.4236,-2.4309,-2.4381,-2.4562,-2.467,-2.4718,-2.4682,-2.4706,-2.4849,-2.4897,-2.4957,-2.5111,-2.5147,-2.5087,-2.4921,-2.4897,-2.4586,-2.3754,-2.3449,-2.2995,-2.222,-2.127,-2.0741,-2.0779,-2.0624,-2.0479,-2.0284,-2.0226,-2.0099,-1.9825,-1.9885,-1.9719,-1.9453,-2.0382,-2.1038,-2.142,-2.1448,-2.1903,-3.0528,-3.0501,0.0,-3.051,-3.0851,-3.1087,-3.0522,0.0,0.0,0.0,0.0,0.0,0.0,0.0,0.0,0.0,0.0,0.0,0.0,0.0,0.0,0.0,0.0,0.0,0.0,0.0,0.0,0.0,0.0,0.0,0.0,0.0,0.0,0.0,-2.9819,-3.0419,-3.1609,-3.1609,-3.1609,-3.1609,-3.1609,-3.1522,-3.1384,-3.0582,-3.0086,-2.9741,-2.8808,-2.8177,-2.7884,-2.804,-2.7954,-2.7762,-2.7584,-2.7317,-2.7048,-2.7069,-2.6786,-2.6424,-2.6561,-2.6057,-2.5241,-2.4957,-2.4575,-2.42,-2.42,-2.42,-2.42,-2.42,-2.42,-2.42,-2.42,-2.42,-2.42,-2.42,-2.42,-2.4236,-2.4345,-2.4454,-2.449,-2.4562,-2.467,-2.4742,-2.479,-2.4861,-2.4992,-2.5147,-2.5111,-2.5016,-2.4825,-2.479,-2.437,-2.3313,-2.2957,-2.2387,-2.1375,-2.0586,-2.0206,-2.0362,-2.0089,-1.9814,-1.9548,-1.9371,-1.9125,-1.8785,-1.8926,-1.8807,-1.8376,-1.959,-2.0207,-2.0236,-2.0498,-2.0874,-3.1326,0.0,0.0,-3.0895,-3.0911,0.0,-3.0203,0.0,0.0,0.0,0.0,0.0,0.0,0.0,0.0,0.0,0.0,0.0,0.0,0.0,0.0,0.0,0.0,0.0,0.0,0.0,0.0,0.0,0.0,0.0,0.0,0.0,0.0,-2.9121,-2.916,-2.9947,-3.1646,-3.1646,-3.1646,0.0,-3.1646,-3.1646,-3.1582,-3.0765,-3.024,-2.9879,-2.8808,-2.8312,-2.8337,-2.8126,-2.7623,-2.704,-2.7284,-2.6947,-2.6311,-2.6308,-2.6252,-2.6104,-2.5523,-2.5276,-2.5099,-2.4406,-2.42,-2.42,-2.42,-2.42,-2.42,-2.42,-2.42,-2.42,-2.42,-2.42,-2.42,-2.42,-2.42,-2.42,-2.42,-2.4345,-2.4418,-2.4236,-2.4658,-2.4981,-2.479,-2.4957,-2.5147,-2.5276,-2.5182,-2.5016,-2.4825,-2.4718,-2.4225,-2.3027,-2.2274,-2.1431,-2.0421,-1.9863,-1.9527,-1.9527,-1.9161,-1.8962,-1.8962,-1.9036,-1.8749,-1.8031,-1.8576,-1.8376,-1.7473,-1.9134,-1.9332,-1.8152,-1.9283,-1.9678,0.0,-3.0186,0.0,0.0,-3.0558,-3.0552,-3.0172,-3.0414,0.0,0.0,0.0,0.0,0.0,0.0,0.0,0.0,0.0,0.0,0.0,0.0,0.0,0.0,0.0,0.0,0.0,0.0,0.0,0.0,0.0,0.0,0.0,0.0,0.0,-2.951,-2.9588,-3.0368,-3.2073,-3.2073,-3.2073,0.0,-3.2073,-3.2,-3.179,-3.0824,-2.9806,-2.8739,-2.8061,-2.7838,-2.7894,-2.7529,-2.731,-2.7129,-2.679,-2.6208,-2.5546,-2.5546,-2.5158,-2.4718,-2.5135,-2.4921,-2.4406,-2.4261,-2.42,-2.42,-2.42,-2.42,-2.42,-2.42,-2.42,-2.42,-2.42,-2.42,-2.42,-2.42,-2.42,-2.42,-2.42,-2.4236,-2.4236,-2.42,-2.4418,-2.4598,-2.4574,-2.4873,-2.5111,-2.5147,-2.5111,-2.5016,-2.4825,-2.4093,-2.3254,-2.2312,-2.1364,-2.0343,-1.9201,-1.9121,-1.9073,-1.8904,-1.8674,-1.8594,-1.8745,-1.8425,-1.8264,-1.8313,-1.7951,-1.7789,-1.7878,-1.8103,-1.8496,-1.9024,-1.9152,-1.9499,0.0,0.0,0.0,-3.0466,0.0,-3.0462,-2.9974,0.0,0.0,0.0,0.0,0.0,0.0,0.0,0.0,0.0,0.0,0.0,0.0,0.0,0.0,0.0,0.0,0.0,0.0,0.0,0.0,0.0,0.0,0.0,0.0,-2.719,-2.7805,-2.9081,-2.951,-3.0317,-3.1579,-3.1973,-3.2218,-3.2218,-3.1897,-3.1456,-3.0887,-3.0536,-2.9855,-2.8895,-2.8378,-2.8182,-2.8285,-2.7881,-2.7317,-2.6641,-2.6483,-2.5721,-2.479,-2.479,-2.4539,-2.4261,-2.4647,-2.4514,-2.42,-2.42,-2.42,-2.42,-2.42,-2.42,-2.42,-2.42,-2.42,-2.42,-2.42,-2.42,-2.42,-2.42,-2.42,-2.42,-2.42,-2.42,-2.42,-2.42,-2.4345,-2.4538,-2.4646,-2.4945,-2.5182,-2.5111,-2.5147,-2.5111,-2.4957,-2.4227,-2.3316,-2.2301,-2.1364,-2.0304,-1.9082,-1.9073,-1.9073,-1.8873,-1.8434,-1.8313,-1.8545,-1.7902,-1.7749,-1.8072,-1.7829,-1.7797,-1.8,-1.8304,-1.8585,-1.8873,-1.8953,-1.9033,0.0,0.0,-3.076,-3.0588,-3.0568,0.0,0.0,0.0,0.0,0.0,0.0,0.0,0.0,0.0,0.0,0.0,0.0,0.0,0.0,0.0,0.0,0.0,0.0,0.0,0.0,0.0,0.0,0.0,0.0,0.0,-2.7093,-2.7093,-2.7522,-2.8462,-2.916,-2.9833,-3.0551,-3.1383,-3.1771,-3.1676,-3.1333,-3.0651,-2.9726,-3.0029,-2.9883,-2.9337,-2.8815,-2.8688,-2.8745,-2.8206,-2.7351,-2.6321,-2.623,-2.5453,-2.437,-2.4261,-2.42,-2.42,-2.42,-2.42,-2.42,-2.42,-2.42,-2.42,-2.42,-2.42,-2.42,-2.42,-2.42,-2.42,-2.42,-2.42,-2.42,-2.42,-2.42,-2.42,-2.42,-2.42,-2.42,-2.42,-2.4345,-2.4574,-2.4825,-2.5087,-2.5241,-2.5147,-2.5241,-2.5206,-2.4957,-2.4276,-2.3415,-2.236,-2.1441,-2.045,-1.9381,-1.9262,-1.9152,-1.8873,-1.8273,-1.8031,-1.8273,-1.7578,-1.7375,-1.7691,-1.787,-1.7991,-1.8072,-1.8834,-1.8953,-1.8514,-1.8873,-1.8754,0.0,0.0,-3.1163,0.0,-3.0477,0.0,0.0,0.0,0.0,0.0,0.0,0.0,0.0,0.0,0.0,0.0,0.0,0.0,0.0,0.0,0.0,0.0,0.0,0.0,0.0,0.0,0.0,0.0,0.0,0.0,-2.6582,-2.6605,-2.7189,-2.845,-2.8621,-2.8797,-2.9163,-2.993,-3.0073,-2.9671,-3.0263,-3.0065,-2.9268,-2.9349,-2.9145,-2.8792,-2.8364,-2.8242,-2.831,-2.7121,-2.6913,-2.717,-2.5931,-2.5347,-2.5064,-2.4442,-2.42,-2.42,-2.42,-2.42,-2.42,-2.42,-2.42,-2.42,-2.42,-2.42,-2.42,-2.42,-2.42,-2.42,-2.42,-2.42,-2.42,-2.42,-2.42,-2.42,-2.42,-2.42,-2.42,-2.42,-2.4345,-2.4634,-2.5016,-2.5123,-2.5147,-2.5276,-2.5276,-2.504,-2.4348,-2.3404,-2.2489,-2.168,-2.0702,-1.9854,-1.9341,-1.9152,-1.8873,-1.8425,-1.7983,-1.774,-1.7781,-1.77,-1.7659,-1.77,-1.774,-1.7942,-1.8362,-1.8652,-1.8812,-1.8922,-1.9143,-1.9311,-3.1245,-3.125,-3.1177,0.0,0.0,0.0,0.0,0.0,0.0,0.0,0.0,0.0,0.0,0.0,0.0,0.0,0.0,0.0,0.0,0.0,0.0,0.0,0.0,0.0,0.0,0.0,0.0,0.0,0.0,-2.5807,-2.6026,-2.6048,-2.6336,-2.6898,-2.738,-2.7847,-2.8373,-2.9202,-2.9548,-2.9407,-2.974,-2.945,-2.8704,-2.8816,-2.8717,-2.8472,-2.8279,-2.8053,-2.7848,-2.7696,-2.733,-2.6812,-2.6183,-2.5674,-2.5206,-2.4478,-2.42,-2.42,-2.42,-2.42,-2.42,-2.42,-2.42,-2.42,-2.42,-2.42,-2.42,-2.42,-2.42,-2.42,-2.42,-2.42,-2.42,-2.42,-2.42,-2.42,-2.42,-2.42,-2.42,-2.42,-2.4345,-2.4598,-2.4885,-2.5016,-2.5147,-2.5276,-2.5312,-2.5004,-2.4192,-2.3342,-2.2537,-2.1756,-2.075,-1.9981,-1.9666,-1.9429,-1.9201,-1.8895,-1.8585,-1.8393,-1.8282,-1.8152,-1.8031,-1.787,-1.8031,-1.8193,-1.8402,-1.8732,-1.8851,-1.8851,-1.9033,-1.9121,0.0,0.0,-3.1076,0.0,0.0,0.0,0.0,0.0,0.0,0.0,0.0,0.0,0.0,0.0,0.0,0.0,0.0,0.0,0.0,0.0,0.0,0.0,0.0,0.0,0.0,0.0,0.0,0.0,0.0,-2.5383,-2.5497,-2.5509,-2.5643,-2.5962,-2.6574,-2.7151,-2.7772,-2.8479,-2.8995,-2.9285,-2.9285,-2.8942,-2.8365,-2.8522,-2.8509,-2.8365,-2.8365,-2.8157,-2.7796,-2.817,-2.7776,-2.6892,-2.6355,-2.5918,-2.5476,-2.4539,-2.42,-2.42,-2.42,-2.42,-2.42,-2.42,-2.42,-2.42,-2.42,-2.42,-2.42,-2.42,-2.42,-2.42,-2.42,-2.42,-2.42,-2.42,-2.42,-2.42,-2.42,-2.42,-2.42,-2.42,-2.4309,-2.449,-2.4754,-2.4921,-2.5087,-2.5276,-2.5123,-2.4719,-2.3927,-2.3169,-2.2397,-2.1576,-2.0828,-2.0264,-1.9942,-1.9754,-1.9548,-1.9301,-1.9152,-1.9002,-1.8851,-1.8603,-1.8362,-1.8161,-1.8474,-1.8603,-1.8482,-1.8882,-1.9002,-1.8851,-1.8962,-1.8962,0.0,-3.0969,0.0,0.0,0.0,0.0,0.0,0.0,0.0,0.0,0.0,0.0,0.0,0.0,0.0,0.0,0.0,0.0,0.0,0.0,0.0,0.0,0.0,0.0,0.0,0.0,0.0,0.0,0.0,-2.4476,-2.4935,-2.4958,-2.5515,-2.6687,-2.6786,-2.6931,-2.7137,-2.7451,-2.7941,-2.8641,-2.8641,-2.8614,-2.8587,-2.8587,-2.8587,-2.8587,-2.8587,-2.8554,-2.849,-2.7829,-2.7927,-2.8281,-2.6195,-2.5756,-2.6173,-2.4718,-2.42,-2.42,-2.42,-2.42,-2.42,-2.42,-2.42,-2.42,-2.42,-2.42,-2.42,-2.42,-2.42,-2.42,-2.42,-2.42,-2.42,-2.42,-2.42,-2.42,-2.42,-2.42,-2.42,-2.42,-2.42,-2.4345,-2.4718,-2.479,-2.4921,-2.5241,-2.4636,-2.3891,-2.3132,-2.236,-2.1538,-2.075,-2.0605,-2.0411,-1.9942,-1.9902,-1.9706,-1.9301,-1.9301,-1.9262,-1.9262,-1.8882,-1.87,-1.866,-1.9033,-1.9073,-1.87,-1.9073,-1.9262,-1.9262,-1.9073,-1.9112,0.0,0.0,0.0,0.0,0.0,0.0,0.0,0.0,0.0,0.0,0.0,0.0,0.0,0.0,0.0,0.0,0.0,0.0,0.0,0.0,0.0,0.0,0.0,0.0,0.0,0.0,0.0,0.0,0.0,0.0,-2.5813,-2.5849,-2.6053,-2.6545,-2.6545,-2.6799,-2.7331,-2.7934,-2.8346,-2.8587,-2.8587,-2.8587,-2.8587,-2.8587,-2.8587,-2.8587,-2.8587,-2.8346,-2.7894,-2.8137,-2.7809,-2.7095,-2.6311,-2.5861,-2.5581,-2.4575,-2.42,-2.42,-2.42,-2.42,-2.42,-2.42,-2.42,-2.42,-2.42,-2.42,-2.42,-2.42,-2.42,-2.42,-2.42,-2.42,-2.42,-2.42,-2.42,-2.42,-2.42,-2.42,-2.42,-2.42,-2.4309,-2.449,-2.4754,-2.4921,-2.4897,-2.4564,-2.4264,-2.3635,-2.2387,-2.1983,-2.1499,-2.0683,-2.0605,-2.0411,-1.9942,-2.0177,-2.0177,-1.9696,-1.9981,-2.001,-1.9706,-1.9548,-1.924,-1.87,-1.9201,-1.935,-1.9073,-1.9508,-1.9706,-1.9666,-1.935,-1.9231,-3.1154,0.0,0.0,0.0,0.0,0.0,0.0,0.0,0.0,0.0,0.0,0.0,0.0,0.0,0.0,0.0,0.0,0.0,0.0,0.0,0.0,0.0,0.0,0.0,0.0,0.0,0.0,0.0,0.0,0.0,-2.6035,-2.6277,-2.6517,-2.6744,-2.6994,-2.7364,-2.7861,-2.8346,-2.8587,-2.8587,-2.8587,-2.8587,-2.8587,-2.8587,-2.8587,-2.8587,-2.8587,-2.8314,-2.7894,-2.8137,-2.7663,-2.6722,-2.6208,-2.5721,-2.5206,-2.4478,-2.42,-2.42,-2.42,-2.42,-2.42,-2.42,-2.42,-2.42,-2.42,-2.42,-2.42,-2.42,-2.4309,-2.4381,-2.4381,-2.4381,-2.4381,-2.4381,-2.4309,-2.42,-2.42,-2.42,-2.4236,-2.4309,-2.4418,-2.461,-2.4849,-2.5016,-2.4886,-2.4192,-2.3891,-2.3268,-2.1983,-2.1576,-2.1203,-2.0644,-2.0605,-2.0411,-1.9942,-2.0333,-2.0411,-1.9942,-2.0333,-2.045,-2.0137,-1.9981,-1.9597,-1.8922,-1.935,-1.9548,-1.9411,-1.9666,-1.9745,-1.9587,-1.9381,-1.9301,0.0,0.0,0.0,0.0,0.0,0.0,0.0,0.0,0.0,0.0,0.0,0.0,0.0,0.0,0.0,0.0,0.0,0.0,0.0,0.0,0.0,0.0,0.0,0.0,0.0,0.0,0.0,0.0,0.0,-2.6139,-2.5441,-2.607,-2.679,-2.7517,-2.8249,-2.8587,-2.8587,-2.8587,-2.8587,-2.8587,-2.8587,-2.8587,-2.8587,-2.8587,-2.8587,-2.8587,-2.8587,-2.8587,-2.8554,-2.7829,-2.7517,-2.7371,-2.5884,-2.5312,-2.5206,-2.4478,-2.42,-2.42,-2.42,-2.42,-2.4236,-2.42,-2.42,-2.4236,-2.42,-2.42,-2.4236,-2.4236,-2.449,-2.479,-2.479,-2.479,-2.479,-2.479,-2.449,-2.42,-2.42,-2.42,-2.4273,-2.4454,-2.449,-2.4634,-2.5016,-2.5123,-2.4886,-2.4156,-2.3463,-2.2697,-2.1869,-2.1088,-2.0605,-2.0605,-2.0605,-2.0411,-1.9942,-2.0333,-2.0411,-1.9942,-2.0333,-2.0605,-2.0605,-2.0177,-1.9706,-1.9301,-1.949,-1.9599,-1.9559,-1.9587,-1.9439,-1.9073,-1.9231,-1.9301,-3.1351,0.0,0.0,0.0,0.0,0.0,0.0,0.0,0.0,0.0,0.0,0.0,0.0,0.0,0.0,0.0,0.0,0.0,0.0,0.0,0.0,0.0,0.0,0.0,0.0,0.0,0.0,0.0,-2.7384,-2.7351,-2.7663,-2.7875,-2.8072,-2.8281,-2.849,-2.8587,-2.8587,-2.8587,-2.8587,-2.8587,-2.8587,-2.8587,-2.8587,-2.8587,-2.8587,-2.8587,-2.8587,-2.8587,-2.8587,-2.8379,-2.796,-2.7417,-2.6445,-2.5767,-2.5206,-2.4478,-2.42,-2.42,-2.42,-2.4381,-2.461,-2.4309,-2.4381,-2.4574,-2.4309,-2.4418,-2.4646,-2.4646,-2.4873,-2.5147,-2.5147,-2.4992,-2.479,-2.479,-2.449,-2.42,-2.42,-2.42,-2.4273,-2.4454,-2.473,-2.4981,-2.5087,-2.5182,-2.4802,-2.35,-2.3132,-2.251,-2.1126,-2.076,-2.0605,-2.0605,-2.0605,-2.0411,-1.9942,-2.0333,-2.0411,-1.9942,-2.0333,-2.0605,-2.0605,-2.0489,-2.0059,-1.9301,-1.9657,-1.9548,-1.8962,-1.9666,-2.0167,-2.0362,-1.9932,-1.9736,0.0,0.0,0.0,0.0,0.0,0.0,-3.1023,-3.0633,-3.0314,0.0,0.0,0.0,0.0,0.0,0.0,0.0,0.0,0.0,0.0,0.0,0.0,0.0,0.0,0.0,0.0,0.0,0.0,-2.8137,-2.8039,-2.8137,-2.8587,-2.8587,-2.8587,-2.8587,-2.8587,-2.8587,-2.8587,-2.8587,-2.8587,-2.8587,-2.8587,-2.8587,-2.8587,-2.8587,-2.8587,-2.8587,-2.8587,-2.8683,-2.8812,-2.8812,-2.83,-2.7417,-2.6343,-2.5871,-2.5639,-2.4754,-2.4658,-2.4897,-2.4718,-2.479,-2.4981,-2.4718,-2.4838,-2.4945,-2.4718,-2.4838,-2.5016,-2.5016,-2.5265,-2.5606,-2.5781,-2.5548,-2.5206,-2.5052,-2.4706,-2.4418,-2.4236,-2.4345,-2.449,-2.461,-2.4814,-2.5016,-2.5147,-2.4981,-2.4384,-2.3169,-2.2697,-2.2021,-2.075,-2.0605,-2.0605,-2.0605,-2.0605,-2.0489,-2.0216,-2.045,-2.0489,-2.0216,-2.045,-2.0605,-2.0605,-2.0605,-2.0284,-1.9539,-1.9784,-1.9715,-1.9369,-1.9745,-2.0177,-2.0644,-2.0333,-2.0177,0.0,0.0,0.0,0.0,0.0,0.0,-3.2056,-3.1078,-3.0299,0.0,0.0,0.0,0.0,0.0,0.0,0.0,0.0,0.0,0.0,0.0,0.0,0.0,0.0,0.0,0.0,-2.8587,-2.8346,-2.7683,-2.8235,-2.8587,-2.8587,-2.8587,-2.8587,-2.8587,-2.8587,-2.8619,-2.8651,-2.8651,-2.8651,-2.8716,-2.8716,-2.8716,-2.8716,-2.8651,-2.8651,-2.8651,-2.8651,-2.8812,-2.9099,-2.9131,-2.8592,-2.7571,-2.6183,-2.6067,-2.6501,-2.5394,-2.5394,-2.5896,-2.5441,-2.5347,-2.5347,-2.5312,-2.5347,-2.5347,-2.5312,-2.5347,-2.5382,-2.5418,-2.5676,-2.605,-2.6396,-2.6188,-2.5793,-2.5453,-2.5087,-2.4754,-2.4345,-2.4562,-2.4825,-2.4754,-2.4825,-2.4957,-2.5241,-2.4636,-2.3854,-2.3095,-2.2322,-2.1499,-2.0712,-2.0605,-2.0605,-2.0605,-2.0605,-2.0605,-2.0605,-2.0605,-2.0605,-2.0605,-2.0605,-2.0605,-2.0605,-2.0605,-2.0372,-1.9902,-1.9902,-2.002,-2.0264,-1.9912,-1.999,-2.042,-2.0576,-2.0683,0.0,0.0,0.0,0.0,0.0,0.0,-3.0969,-3.0673,-3.0517,0.0,0.0,0.0,0.0,0.0,0.0,0.0,0.0,0.0,0.0,0.0,0.0,0.0,0.0,0.0,0.0,-2.8587,-2.8554,-2.8392,-2.8522,-2.8587,-2.8587,-2.8587,-2.8587,-2.8587,-2.8587,-2.8716,-2.9004,-2.9004,-2.9131,-2.9383,-2.9383,-2.9383,-2.9383,-2.9131,-2.9004,-2.9004,-2.9004,-2.9035,-2.9131,-2.9383,-2.9383,-2.9103,-2.8214,-2.7959,-2.7926,-2.6569,-2.6171,-2.6205,-2.5546,-2.55,-2.5723,-2.5418,-2.5535,-2.5723,-2.5382,-2.5535,-2.5863,-2.6176,-2.6314,-2.6383,-2.6499,-2.6188,-2.5875,-2.5793,-2.55,-2.5111,-2.4754,-2.4838,-2.4886,-2.4598,-2.4909,-2.5182,-2.5147,-2.4576,-2.3854,-2.3095,-2.2322,-2.1499,-2.0712,-2.0605,-2.0605,-2.0605,-2.0605,-2.0605,-2.0605,-2.0605,-2.0605,-2.0605,-2.0605,-2.0605,-2.0605,-2.0605,-2.0372,-1.9902,-1.9902,-1.9942,-1.9981,-2.0576,-2.1002,-2.1272,-2.1128,-2.1089,0.0,0.0,0.0,-3.2723,0.0,0.0,0.0,-3.1245,-3.0729,0.0,0.0,0.0,0.0,0.0,0.0,0.0,0.0,0.0,0.0,0.0,0.0,0.0,0.0,0.0,0.0,-2.8378,-2.8587,-2.8587,-2.8587,-2.8587,-2.8587,-2.8587,-2.8587,-2.8587,-2.8748,-2.894,-2.9099,-2.9257,-2.9415,-2.9602,-2.9602,-2.9602,-2.9571,-2.9415,-2.9352,-2.9352,-2.9352,-2.9446,-2.9602,-2.9772,-2.9943,-2.9991,-2.8921,-2.873,-2.8885,-2.7644,-2.7425,-2.7637,-2.6697,-2.6539,-2.6598,-2.6082,-2.6025,-2.6141,-2.5955,-2.6037,-2.6258,-2.643,-2.6499,-2.6499,-2.6499,-2.6349,-2.6154,-2.5945,-2.5758,-2.5465,-2.5004,-2.5028,-2.5064,-2.4706,-2.5016,-2.5135,-2.4587,-2.3888,-2.318,-2.251,-2.1728,-2.1059,-2.0644,-2.0605,-2.0605,-2.0605,-2.0605,-2.0605,-2.0605,-2.0605,-2.0605,-2.0605,-2.0605,-2.0605,-2.0605,-2.0605,-2.0489,-2.0255,-2.0255,-2.0255,-2.0255,-2.078,-2.1012,-2.0886,-2.0886,-2.0964,0.0,0.0,0.0,0.0,0.0,-3.235,0.0,0.0,0.0,0.0,0.0,0.0,0.0,0.0,0.0,0.0,0.0,0.0,0.0,0.0,0.0,0.0,0.0,0.0,0.0,-2.7895,-2.8302,-2.841,-2.8424,-2.8478,-2.8587,-2.8587,-2.8619,-2.8683,-2.899,-2.9194,-2.9289,-2.9602,-2.9758,-2.9789,-2.9789,-2.9789,-2.9789,-2.9741,-2.971,-2.971,-2.971,-2.9865,-3.0111,-3.0172,-3.0341,-3.0477,-2.9331,-2.9265,-2.9651,-2.868,-2.8693,-2.9022,-2.7881,-2.7517,-2.7384,-2.6714,-2.6499,-2.6499,-2.6499,-2.6499,-2.6499,-2.6499,-2.6499,-2.6499,-2.6499,-2.6499,-2.643,-2.6084,-2.605,-2.5898,-2.5229,-2.5335,-2.5382,-2.4921,-2.4933,-2.4755,-2.395,-2.3191,-2.2456,-2.1842,-2.1059,-2.0566,-2.0605,-2.0605,-2.0605,-2.0605,-2.0605,-2.0605,-2.0605,-2.0605,-2.0605,-2.0605,-2.0605,-2.0605,-2.0605,-2.0605,-2.0605,-2.0605,-2.0605,-2.0605,-2.0605,-2.0741,-2.0625,-2.0303,-2.0489,-2.0683,0.0,0.0,0.0,0.0,-3.2715,0.0,0.0,0.0,0.0,0.0,0.0,0.0,0.0,0.0,0.0,0.0,0.0,0.0,0.0,0.0,0.0,0.0,0.0,0.0,0.0,0.0,-2.7213,-2.7773,-2.78,-2.8044,-2.856,-2.8587,-2.8748,-2.9035,-2.9198,-2.9512,-2.9988,-3.0144,-3.0326,-3.0477,-3.0477,-3.0477,-3.0492,-3.0158,-3.005,-3.005,-3.005,-3.005,-3.0111,-3.0431,-3.0582,-3.0568,-3.0403,-3.0417,-3.0387,-2.9685,-2.9467,-2.9341,-2.7966,-2.7517,-2.7384,-2.6714,-2.6499,-2.6499,-2.6499,-2.6499,-2.6499,-2.6499,-2.6499,-2.6499,-2.6499,-2.6499,-2.6499,-2.643,-2.6521,-2.6405,-2.5676,-2.5908,-2.6035,-2.5158,-2.442,-2.3891,-2.3588,-2.3047,-2.2387,-2.1652,-2.0867,-2.042,-2.0566,-2.0605,-2.0605,-2.0605,-2.0605,-2.0605,-2.0605,-2.0605,-2.0605,-2.0605,-2.0605,-2.0605,-2.0605,-2.0605,-2.0605,-2.0605,-2.0605,-2.0605,-2.0605,-2.0459,-2.0342,-2.0303,-2.0489,-2.0605,0.0,0.0,0.0,0.0,0.0,0.0,-3.1322,0.0,-3.0603,0.0,0.0,0.0,0.0,0.0,0.0,0.0,0.0,0.0,0.0,0.0,0.0,0.0,0.0,0.0,0.0,0.0,0.0,0.0,-2.778,-2.8095,-2.8342,-2.8874,-2.9226,-2.9383,-2.962,-2.9882,-3.008,-3.0371,-3.0507,-3.0598,-3.0598,-3.0598,-3.0612,-3.0462,-3.0401,-3.0401,-3.0401,-3.0401,-3.0401,-3.0552,-3.0598,-3.0598,-3.0598,-3.0598,-3.0568,-3.0282,-3.019,-2.9993,-2.857,-2.8084,-2.792,-2.685,-2.6499,-2.6499,-2.6499,-2.6499,-2.6499,-2.6499,-2.6499,-2.6499,-2.6499,-2.6499,-2.6499,-2.6499,-2.6521,-2.6452,-2.605,-2.6198,-2.6104,-2.504,-2.4564,-2.3891,-2.2515,-2.1924,-2.1423,-2.0905,-2.0527,-2.0381,-2.0566,-2.0605,-2.0605,-2.0605,-2.0605,-2.0605,-2.0605,-2.0605,-2.0605,-2.0605,-2.0605,-2.0605,-2.0605,-2.0605,-2.0605,-2.0605,-2.0605,-2.0605,-2.0605,-2.0527,-2.0333,-2.0059,-2.0137,-2.0294,-3.3704,0.0,0.0,0.0,0.0,0.0,0.0,0.0,0.0,0.0,0.0,0.0,0.0,0.0,0.0,0.0,0.0,0.0,0.0,0.0,0.0,0.0,0.0,0.0,0.0,0.0,0.0,-2.728,-2.7623,-2.7894,-2.8061,-2.8859,-2.938,-2.9473,-2.9919,-3.0158,-3.0233,-3.0522,-3.0642,-3.0598,-3.0598,-3.0598,-3.0598,-3.0598,-3.0598,-3.0598,-3.0598,-3.0628,-3.0717,-3.0717,-3.0777,-3.0866,-3.0866,-3.0866,-3.0836,-3.0657,-3.0657,-3.0523,-2.9331,-2.8652,-2.8168,-2.7095,-2.6658,-2.6499,-2.6499,-2.6499,-2.6499,-2.6499,-2.6465,-2.643,-2.6499,-2.6465,-2.6393,-2.6298,-2.6294,-2.6273,-2.5999,-2.6158,-2.6102,-2.5322,-2.4767,-2.3988,-2.2531,-2.1555,-2.0741,-2.0186,-2.0108,-2.0225,-2.0489,-2.0527,-2.0527,-2.0605,-2.0605,-2.0605,-2.0605,-2.0605,-2.0605,-2.0605,-2.0605,-2.0605,-2.0605,-2.0605,-2.0605,-2.0605,-2.0488,-2.0429,-2.0429,-2.0312,-2.0062,-1.9726,-1.9837,-1.9981,0.0,0.0,0.0,-3.2043,0.0,0.0,0.0,0.0,-3.0096,0.0,0.0,0.0,0.0,0.0,0.0,0.0,0.0,0.0,0.0,0.0,0.0,0.0,0.0,0.0,0.0,0.0,0.0,-2.7525,-2.7144,-2.7087,-2.7688,-2.8292,-2.8796,-2.9109,-2.9875,-3.0387,-3.0568,-3.0732,-3.0732,-3.0598,-3.0598,-3.0598,-3.0598,-3.0598,-3.0598,-3.0598,-3.0598,-3.0747,-3.0999,-3.0999,-3.1175,-3.1451,-3.1451,-3.1451,-3.1393,-3.0807,-3.0762,-3.0896,-3.0208,-2.9069,-2.788,-2.7571,-2.704,-2.6499,-2.6499,-2.6499,-2.6499,-2.6499,-2.6374,-2.6236,-2.6465,-2.6374,-2.6099,-2.5728,-2.5769,-2.5815,-2.5415,-2.5794,-2.6225,-2.6327,-2.498,-2.399,-2.4517,-2.2643,-2.076,-1.9754,-1.9606,-1.9794,-2.0264,-2.0303,-2.0372,-2.0566,-2.0605,-2.0605,-2.0605,-2.0605,-2.0605,-2.0605,-2.0605,-2.0605,-2.0605,-2.0605,-2.0605,-2.0605,-2.0146,-1.9932,-1.9932,-1.9531,-1.9326,-1.9346,-1.9717,-1.9902,0.0,0.0,-3.3644,-3.2844,0.0,0.0,0.0,0.0,0.0,0.0,0.0,0.0,0.0,0.0,0.0,0.0,0.0,0.0,0.0,0.0,0.0,0.0,0.0,0.0,0.0,0.0,0.0,-2.7129,-2.7052,-2.7131,-2.7414,-2.8211,-2.8886,-2.942,-2.968,-3.0087,-3.0598,-3.0642,-3.0642,-3.0598,-3.0598,-3.0598,-3.0598,-3.0598,-3.0598,-3.0598,-3.0598,-3.0747,-3.0999,-3.0999,-3.1204,-3.1508,-3.1508,-3.1508,-3.1495,-3.1263,-3.1248,-3.1248,-3.054,-2.9338,-2.8063,-2.7979,-2.7438,-2.6807,-2.6658,-2.6624,-2.6589,-2.6374,-2.6236,-2.6201,-2.627,-2.6236,-2.6099,-2.5703,-2.5632,-2.5577,-2.5073,-2.5214,-2.5297,-2.4676,-2.4058,-2.356,-2.3251,-2.2408,-2.1569,-2.0961,-2.0857,-2.0712,-2.0342,-2.042,-2.045,-2.042,-2.0527,-2.0605,-2.0605,-2.0605,-2.0478,-2.0156,-2.0449,-2.0478,-2.0146,-2.0449,-2.0468,-2.0137,-1.999,-1.9775,-1.9502,-1.9355,-1.9287,-1.9287,-1.9432,-1.9493,-3.4998,-3.4793,0.0,-3.3793,-3.3012,0.0,-3.1046,0.0,0.0,0.0,0.0,0.0,0.0,0.0,0.0,0.0,0.0,0.0,0.0,0.0,0.0,0.0,0.0,0.0,0.0,0.0,-2.757,-2.7535,-2.7439,-2.7372,0.0,0.0,-2.8633,-2.9041,-2.9421,-2.9827,-3.0234,-3.0481,-3.0598,-3.0598,-3.0598,-3.0598,-3.0598,-3.0598,-3.0598,-3.0598,-3.0598,-3.0836,-3.1175,-3.1175,-3.1422,-3.1823,-3.1823,-3.1823,-3.1794,-3.1566,-3.1581,-3.161,-3.116,-3.0029,-2.8739,-2.8611,-2.7868,-2.699,-2.6841,-2.6794,-2.6726,-2.6361,-2.6327,-2.6327,-2.6131,-2.6052,-2.5856,-2.5415,-2.5204,-2.503,-2.4722,-2.4792,-2.4735,-2.4287,-2.3952,-2.3606,-2.3225,-2.2909,-2.2415,-2.1494,-2.1375,-2.1078,-2.0255,-2.0255,-2.0333,-2.0303,-2.042,-2.0527,-2.0605,-2.0605,-2.0488,-2.0166,-2.0449,-2.0478,-2.0156,-2.0458,-2.0478,-2.0146,-1.9844,-1.9561,-1.9287,-1.8984,-1.8838,-1.8838,-1.8838,-1.8838]},{"header":{"parameterUnit":"m.s-1","parameterCategory":1,"la1":30.6,"la2":29.2853,"lo1":-89.7004,"lo2":-87.6739,"dy":0.0162,"dx":0.0183,"nx":112,"ny":82,"refTime":"2023-03-04T06:00:00:Z","depth":0,"parameterNumber":3,"parameterNumberName":"V-component_of_WINDS"},"data":[0.0,0.0,0.0,0.0,0.0,0.0,0.0,0.0,0.0,0.0,0.0,0.0,0.0,0.0,0.0,0.0,0.0,0.0,0.0,0.0,0.0,0.0,0.0,0.0,0.0,0.0,0.0,0.0,0.0,0.0,0.0,0.0,0.0,0.0,0.0,0.0,0.0,0.0,0.0,0.0,0.0,0.0,0.0,0.0,0.0,0.0,0.0,0.0,0.0,0.0,0.0,0.0,0.0,0.0,0.0,0.0,0.0,0.0,0.0,0.0,0.0,0.0,0.0,0.0,0.0,0.0,0.0,0.0,0.0,0.0,0.0,0.0,0.0,0.0,0.0,0.0,0.0,0.0,0.0,0.0,0.0,0.0,0.0,0.0,0.0,0.0,0.0,0.0,0.0,0.0,0.8088,0.8369,0.807,0.7664,0.7306,0.6773,0.6165,0.5552,0.0,0.0,0.0,0.0,0.0,0.0,0.0,0.0,0.0,0.0,0.0,0.0,0.0,0.0,0.0,0.0,0.0,0.0,0.0,0.0,0.0,0.0,0.0,0.0,0.0,0.0,0.0,0.0,0.0,0.0,0.0,0.0,0.0,0.0,0.0,0.0,0.0,0.0,0.0,0.0,0.0,0.0,0.0,0.0,0.0,0.0,0.0,0.0,0.0,0.0,0.0,0.0,0.0,0.0,0.0,0.0,0.0,0.0,0.0,0.0,0.0,0.0,0.0,0.0,0.0,0.0,0.0,0.0,0.0,0.0,0.0,0.0,0.0,0.0,0.0,0.0,0.0,0.0,0.0,0.0,0.0,0.0,0.0,0.0,0.0,0.0,0.0,0.0,0.0,0.0,0.0,0.0,0.0,0.0,0.0,0.0,0.0,0.0,0.0,0.0,0.0,0.0,0.0,0.0,0.8536,0.8727,0.8309,0.8005,0.7959,0.7148,0.6444,0.602,0.0,0.0,0.0,0.0,0.0,0.0,0.0,0.0,0.0,0.0,0.0,0.0,0.0,0.0,0.0,0.0,0.0,0.0,0.0,0.0,0.0,0.0,0.0,0.0,0.0,0.0,0.0,0.0,0.0,0.0,0.0,0.0,0.0,0.0,0.0,0.0,0.0,0.0,0.0,0.0,0.0,0.0,0.0,0.0,0.0,0.0,0.0,0.0,0.0,0.0,0.0,0.0,0.0,0.0,0.0,0.0,0.0,0.0,0.0,0.0,0.0,0.0,0.0,0.0,0.0,0.0,0.0,0.0,0.0,0.0,0.0,0.0,0.0,0.0,0.0,0.0,0.0,0.0,0.0,0.0,0.0,0.0,0.0,0.0,0.0,0.0,0.0,0.0,0.0,0.0,0.0,0.0,0.0,0.0,0.0,0.0,0.0,0.0,0.0,0.0,0.0,0.0,0.0,0.8559,0.8633,0.88,0.8594,0.8401,0.8264,0.7552,0.6841,0.6353,0.5265,0.0,0.0,0.0,0.0,0.0,0.0,0.0,0.0,0.0,0.0,0.0,0.0,0.0,0.0,0.0,0.0,0.0,0.0,0.0,0.0,0.0,0.0,0.0,0.0,0.0,0.0,0.0,0.0,0.0,0.0,0.0,0.0,0.0,0.0,0.0,0.0,0.0,0.0,0.0,0.0,0.0,0.0,0.0,0.0,0.0,0.0,0.0,0.0,0.0,0.0,0.0,0.0,0.0,0.0,0.0,0.0,0.0,0.0,0.0,0.0,0.0,0.0,0.0,0.0,0.0,0.0,0.0,0.0,0.0,0.0,0.0,0.0,0.0,0.0,0.0,0.0,0.0,0.0,0.0,0.0,0.0,0.0,0.0,0.0,0.0,0.0,0.0,0.0,0.0,0.0,0.0,0.0,0.0,0.0,0.0,0.0,0.0,0.0,0.0,0.0,0.0,0.0,0.874,0.8734,0.9174,0.9022,0.882,0.8667,0.8052,0.7426,0.671,0.5852,0.0,0.0,0.0,0.0,0.0,0.0,0.0,0.0,0.0,0.0,0.0,0.0,0.0,0.0,0.0,0.0,0.0,0.0,0.0,0.0,0.0,0.0,0.0,0.0,0.0,0.0,0.0,0.0,0.0,0.0,0.0,0.0,0.0,0.0,0.0,0.0,0.0,0.0,0.0,0.0,0.0,0.0,0.0,0.0,0.0,0.0,0.0,0.0,0.0,0.0,0.0,0.0,0.0,0.0,0.0,0.0,0.0,0.0,0.0,0.0,0.0,0.0,0.0,0.0,0.0,0.0,0.0,0.0,0.0,0.0,0.0,0.0,0.0,0.0,0.0,0.0,0.0,0.0,0.0,0.0,0.0,0.0,0.0,0.0,0.0,0.0,0.0,0.0,0.0,0.0,0.0,0.0,0.0,0.0,0.0,0.0,0.0,0.0,0.0,0.0,0.0,0.0,0.9087,0.9051,1.0228,0.9583,0.9149,0.9319,0.89,0.8215,0.7214,0.6508,0.0,0.0,0.0,0.0,0.0,0.0,0.0,0.0,0.0,0.0,0.0,0.0,0.0,0.0,0.0,0.0,0.0,0.0,0.0,0.0,0.0,0.0,0.0,0.0,0.0,0.0,0.0,0.0,0.0,0.0,0.0,0.0,0.0,0.0,0.0,0.0,0.0,0.0,0.0,0.0,0.0,0.0,0.0,0.0,0.0,0.0,0.0,0.0,0.0,0.0,0.0,0.0,0.0,0.0,0.0,0.0,0.0,0.0,0.0,0.0,0.0,0.0,0.0,0.0,0.0,0.0,0.0,0.0,0.0,0.0,0.0,0.0,0.0,0.0,0.0,0.0,0.0,0.0,0.0,0.0,0.0,0.0,0.0,0.0,0.0,0.0,0.0,0.0,0.0,0.0,0.0,0.0,0.0,0.0,0.0,0.0,0.0,0.0,0.0,0.0,0.0,0.0,1.0207,1.0362,0.0,1.086,1.0545,1.0222,0.9716,0.8956,0.8031,0.0,0.0,0.0,0.0,0.0,0.0,0.0,0.0,0.0,0.0,0.0,0.0,0.0,0.0,0.0,0.0,0.0,0.0,0.0,0.0,0.0,0.0,0.0,0.0,0.0,0.0,0.0,0.0,0.0,0.0,0.0,0.0,0.0,0.0,0.0,0.0,0.0,0.0,0.0,0.0,0.0,0.0,0.0,0.0,0.0,0.0,0.0,0.0,0.0,0.0,0.0,0.0,0.0,0.0,0.0,0.0,0.0,0.0,0.0,0.0,0.0,0.0,0.0,0.0,0.0,0.0,0.0,0.0,0.0,0.0,0.0,0.0,0.0,0.0,0.0,0.0,0.0,0.0,0.0,0.0,0.0,0.0,0.0,0.0,0.0,0.0,0.0,0.0,0.0,0.0,0.0,0.0,0.0,0.0,0.0,0.0,0.0,0.0,0.0,0.0,0.0,0.0,1.1154,1.1235,1.1364,0.0,1.1666,1.1377,1.1111,1.0678,0.9974,0.881,0.0,0.0,0.0,0.0,0.0,0.0,0.0,0.0,0.0,0.0,0.0,0.0,0.0,0.0,0.0,0.0,0.0,0.0,0.0,0.0,0.0,0.0,0.0,0.0,0.0,0.0,0.0,0.0,0.0,0.0,0.0,0.0,0.0,0.0,0.0,0.0,0.0,0.0,0.0,0.0,0.0,0.0,0.0,0.0,0.0,0.0,0.0,0.0,0.0,0.0,0.0,0.0,0.0,0.0,0.0,0.0,0.0,0.0,0.0,0.0,0.0,0.0,0.0,0.0,0.0,0.0,0.0,0.0,0.0,0.0,0.0,0.0,0.0,0.0,0.0,0.0,0.0,0.0,0.0,0.0,0.0,0.0,0.0,0.0,0.0,0.0,0.0,0.0,0.0,0.0,0.0,0.0,0.0,0.0,0.0,0.0,0.0,0.0,0.0,0.0,0.0,0.0,1.2613,1.2083,1.1905,1.256,1.1794,1.1399,1.1874,1.1889,1.1237,0.0,0.0,0.0,0.0,0.0,0.0,0.0,0.0,0.0,0.0,0.0,0.0,0.0,0.0,0.0,0.0,0.0,0.0,0.0,0.0,0.0,0.0,0.0,0.0,0.0,0.0,0.0,0.0,0.0,0.0,0.0,0.0,0.0,0.0,0.0,0.0,0.0,0.0,0.0,0.0,0.0,0.0,0.0,0.0,0.0,0.0,0.0,0.0,0.0,0.0,0.0,0.0,0.0,0.0,0.0,0.0,0.0,0.0,0.0,0.0,0.0,0.0,0.0,0.0,0.0,0.0,0.0,0.0,0.0,0.0,0.0,0.0,0.0,0.0,0.0,0.0,0.0,0.0,0.0,0.0,0.0,0.0,0.0,0.0,0.0,0.0,0.0,0.0,0.0,0.0,0.0,0.0,0.0,0.0,0.0,0.0,0.0,0.0,0.0,0.0,0.0,0.0,0.0,1.4013,1.3922,1.3822,1.3871,1.3615,1.3133,1.226,1.2634,1.2009,0.9934,0.0,0.0,0.0,0.0,0.0,0.0,0.0,0.0,0.0,0.0,0.0,0.0,0.0,0.0,0.0,0.0,0.0,0.0,0.0,0.0,0.0,0.0,0.0,0.0,0.0,0.0,0.0,0.0,0.0,0.0,0.0,0.0,0.0,0.0,0.0,0.0,0.0,0.0,0.0,0.0,0.0,0.0,0.0,0.0,0.0,0.0,0.0,0.0,0.0,0.0,0.0,0.0,0.0,0.0,0.0,0.0,0.0,0.0,0.0,0.0,0.0,0.0,0.0,0.0,0.0,0.0,0.0,0.0,0.0,0.0,0.0,0.0,0.0,0.0,0.0,0.0,0.0,0.0,0.0,0.0,0.0,0.0,0.0,0.0,0.0,0.0,0.0,0.0,0.0,0.0,0.0,0.0,0.0,0.0,0.0,0.0,0.0,0.0,0.0,0.0,0.0,0.0,1.4593,1.4906,1.4943,1.4566,1.4524,1.4171,1.3318,1.3627,1.3139,1.1389,0.0,0.0,0.0,0.0,0.0,0.0,0.0,0.0,0.0,0.0,0.0,0.0,0.0,0.0,0.0,0.0,0.0,0.0,0.0,0.0,0.0,0.0,0.0,0.0,0.0,0.0,0.0,0.0,0.0,0.0,0.0,0.0,0.0,0.0,0.0,0.0,0.0,0.0,0.0,0.0,0.0,0.0,0.0,0.0,0.0,0.0,0.0,0.0,0.0,0.0,0.0,0.0,0.0,0.0,0.0,0.0,0.0,0.0,0.0,0.0,0.0,0.0,0.0,0.0,0.0,0.0,0.0,0.0,0.0,0.0,0.0,0.0,0.0,0.0,0.0,0.0,0.0,0.0,0.0,0.0,0.0,0.0,0.0,0.0,0.0,0.0,0.0,0.0,0.0,0.0,0.0,0.0,0.0,0.0,0.0,0.0,0.0,0.0,0.0,0.0,0.0,0.0,1.4731,1.5334,1.5484,1.4859,1.4776,1.4734,1.4692,1.4692,1.4349,1.3408,0.0,0.0,0.0,0.0,0.0,0.0,0.0,0.0,0.0,0.0,0.0,0.0,0.0,0.0,0.0,0.0,0.0,0.0,0.0,0.0,0.0,0.0,0.0,0.0,0.0,0.0,0.0,0.0,0.0,0.0,0.0,0.0,0.0,0.0,0.0,0.0,0.0,0.0,0.0,0.0,0.0,0.0,0.0,0.0,0.0,0.0,0.0,0.0,0.0,0.0,0.0,0.0,0.0,0.0,0.0,0.0,0.0,0.0,0.0,0.0,1.7942,0.0,0.0,0.0,0.0,0.0,0.0,0.0,0.0,0.0,0.0,0.0,0.0,0.0,0.0,0.0,0.0,0.0,0.0,0.0,0.0,0.0,0.0,0.0,0.0,0.0,0.0,0.0,0.0,0.0,0.0,0.0,0.0,0.0,0.0,0.0,0.0,0.0,0.0,0.0,0.0,0.0,1.5601,1.5866,1.5873,1.5526,1.536,1.5019,1.4524,1.4783,1.4482,1.319,1.3226,0.0,0.0,0.0,0.0,0.0,0.0,0.0,0.0,0.0,0.0,0.0,0.0,0.0,0.0,0.0,0.0,0.0,0.0,0.0,0.0,0.0,0.0,0.0,0.0,0.0,0.0,0.0,0.0,0.0,0.0,0.0,0.0,0.0,0.0,0.0,0.0,0.0,0.0,0.0,0.0,0.0,0.0,0.0,0.0,0.0,0.0,0.0,0.0,0.0,0.0,0.0,0.0,0.0,0.0,0.0,0.0,0.0,0.0,0.0,0.0,1.8063,0.0,0.0,0.0,0.0,0.0,0.0,0.0,0.0,0.0,0.0,0.0,0.0,0.0,0.0,0.0,0.0,0.0,0.0,0.0,0.0,0.0,0.0,0.0,0.0,0.0,0.0,0.0,0.0,0.0,0.0,0.0,0.0,0.0,0.0,0.0,0.0,0.0,0.0,0.0,0.0,1.5363,1.5807,1.6004,1.5733,1.5741,1.5526,1.5068,1.5374,1.5284,1.4552,1.4461,0.0,0.0,0.0,0.0,0.0,0.0,0.0,0.0,0.0,0.0,0.0,0.0,0.0,0.0,0.0,0.0,0.0,0.0,0.0,0.0,0.0,0.0,0.0,0.0,0.0,0.0,0.0,0.0,0.0,0.0,0.0,0.0,0.0,0.0,0.0,0.0,0.0,0.0,0.0,0.0,0.0,0.0,0.0,0.0,0.0,0.0,0.0,0.0,0.0,0.0,0.0,0.0,0.0,2.1532,2.1569,2.1311,2.042,2.0168,2.0333,1.9265,1.8785,1.8692,0.0,0.0,0.0,0.0,0.0,0.0,0.0,0.0,0.0,0.0,0.0,0.0,0.0,0.0,0.0,0.0,0.0,0.0,0.0,0.0,0.0,0.0,0.0,0.0,0.0,1.6681,1.6722,0.0,0.0,0.0,0.0,0.0,0.0,0.0,0.0,0.0,0.0,0.0,0.0,1.5141,1.5779,1.6121,1.5899,1.5955,1.5955,1.5741,1.5873,1.5963,1.5963,1.5782,1.5318,0.0,0.0,0.0,0.0,0.0,0.0,0.0,0.0,0.0,0.0,0.0,0.0,0.0,0.0,0.0,0.0,0.0,0.0,0.0,0.0,0.0,0.0,0.0,0.0,0.0,0.0,0.0,0.0,0.0,0.0,0.0,0.0,2.2547,2.2317,0.0,0.0,0.0,0.0,0.0,0.0,0.0,0.0,0.0,0.0,0.0,0.0,0.0,2.1314,2.1456,2.1931,2.2167,2.213,2.2601,2.275,2.2713,2.2226,2.2134,2.2268,2.127,0.0,1.8705,1.8834,0.0,0.0,0.0,0.0,0.0,0.0,0.0,0.0,0.0,0.0,0.0,0.0,0.0,0.0,0.0,0.0,0.0,0.0,0.0,0.0,0.0,0.0,1.7829,1.7789,1.7789,1.7789,0.0,1.7098,1.6435,1.6435,1.673,0.0,0.0,0.0,0.0,0.0,0.0,0.0,1.6488,1.6605,1.6607,1.6566,1.6072,1.5733,1.5692,1.5582,1.5472,1.5472,1.5472,1.5382,1.5257,1.5382,0.0,0.0,0.0,0.0,0.0,0.0,0.0,0.0,0.0,0.0,0.0,0.0,0.0,0.0,0.0,0.0,0.0,0.0,0.0,0.0,0.0,0.0,0.0,0.0,0.0,0.0,0.0,0.0,0.0,2.3268,2.3198,2.3551,2.332,2.2866,0.0,0.0,0.0,0.0,0.0,0.0,0.0,0.0,0.0,2.228,2.268,2.294,2.3051,2.3968,2.4422,2.4422,2.4966,2.5191,2.5142,2.4112,2.3614,2.3528,2.2022,2.0885,2.007,1.9529,1.877,1.7886,0.0,0.0,0.0,0.0,1.7426,1.7151,1.828,1.8118,0.0,0.0,0.0,0.0,0.0,0.0,0.0,0.0,0.0,0.0,0.0,0.0,0.0,1.9234,1.9335,1.9404,1.9404,1.9031,1.8443,0.0,1.718,1.6863,1.6071,0.0,0.0,0.0,0.0,1.6023,1.6467,1.6637,1.6689,1.6689,1.6566,1.6476,1.6476,1.6525,1.6533,1.6533,1.6409,1.6368,1.6368,1.6203,1.6052,0.0,0.0,0.0,0.0,0.0,0.0,0.0,0.0,0.0,0.0,0.0,0.0,0.0,0.0,0.0,0.0,0.0,0.0,0.0,0.0,0.0,0.0,0.0,0.0,0.0,0.0,0.0,0.0,2.4581,2.4568,2.5192,2.4765,2.4204,0.0,0.0,0.0,0.0,0.0,0.0,2.421,2.3756,2.3761,2.4314,2.4865,2.5168,2.5168,2.613,2.6591,2.6444,2.6868,2.6998,2.6848,2.5683,2.4986,2.4737,2.3048,2.2209,2.1893,2.0459,1.9314,1.8494,1.8377,1.8091,1.7825,1.8673,1.8629,1.8356,1.9654,1.9492,1.8798,1.9195,0.0,1.8926,1.855,0.0,0.0,0.0,0.0,2.0168,2.0216,2.0323,2.0479,2.0479,2.0614,2.0749,2.0749,2.0739,2.0324,0.0,1.8278,1.7831,1.74,0.0,0.0,0.0,0.0,1.6516,1.6724,1.7049,1.7164,1.6902,1.709,1.7123,1.6927,1.7212,1.7375,1.7375,1.7302,1.7253,1.7253,1.6894,1.665,1.6562,0.0,0.0,0.0,0.0,0.0,0.0,0.0,0.0,0.0,0.0,0.0,0.0,0.0,0.0,0.0,0.0,0.0,0.0,0.0,0.0,0.0,0.0,0.0,0.0,0.0,0.0,0.0,0.0,0.0,2.7605,2.6714,0.0,0.0,0.0,0.0,2.466,2.4898,2.5681,2.7016,2.6359,2.6542,2.7911,2.7972,2.8009,2.8009,2.807,2.7864,2.7434,2.7459,2.7273,2.6898,2.6623,2.6385,2.6148,2.5032,2.4389,2.3955,2.1529,2.0148,1.9534,1.9783,1.9793,1.9617,1.9154,1.9774,2.0698,2.0052,2.0178,2.0681,2.0893,2.0836,2.0643,2.042,2.0372,0.0,0.0,2.0759,2.0807,2.1078,2.1126,2.1165,2.1165,2.1308,2.1461,2.1461,2.1403,2.1153,0.0,2.0362,2.012,1.9392,0.0,1.8074,1.8308,1.7648,1.7429,1.8204,1.859,1.8439,1.7473,1.7472,1.7253,1.6517,1.6984,1.7302,1.7302,1.7521,1.7659,1.7659,1.7057,1.6531,1.6238,1.6523,0.0,0.0,0.0,0.0,0.0,0.0,0.0,0.0,0.0,0.0,0.0,0.0,0.0,0.0,0.0,0.0,0.0,0.0,0.0,0.0,0.0,0.0,0.0,0.0,0.0,0.0,0.0,0.0,2.7803,2.7686,0.0,2.7005,2.7379,2.7374,2.6736,2.693,2.7282,2.7795,2.7298,2.7226,2.7729,2.7742,2.7742,2.7742,2.8077,2.8175,2.8024,2.8369,2.8425,2.8309,2.7892,2.7454,2.6969,2.5842,2.5077,2.4487,2.2865,2.1937,2.1552,2.1624,2.1569,2.1445,2.178,2.1709,2.1542,2.2065,2.179,2.1219,2.1469,2.1392,2.1316,2.1924,2.1924,2.1876,2.2574,2.2622,2.2435,2.2531,2.2531,2.2531,2.2531,2.2718,2.283,2.283,2.283,2.2745,2.2537,2.1524,2.0582,2.0232,1.9869,1.9553,1.9297,1.9178,1.9206,1.9344,1.9471,1.9423,1.9045,1.9058,1.8979,1.8669,1.8988,1.9107,1.8979,1.9313,1.9432,1.9323,1.8696,1.8315,1.8215,1.8306,1.8103,0.0,0.0,0.0,0.0,0.0,0.0,0.0,0.0,0.0,0.0,0.0,0.0,0.0,0.0,0.0,0.0,0.0,0.0,0.0,0.0,0.0,0.0,0.0,0.0,0.0,0.0,2.8485,2.8487,2.8422,2.8344,2.8213,2.838,2.8388,2.8024,2.817,2.8443,2.8822,2.8599,2.8612,2.9024,2.9024,2.9024,2.9024,2.9373,2.9395,2.9066,2.9425,2.9421,2.9079,2.8723,2.8319,2.7816,2.6946,2.6298,2.581,2.4928,2.4359,2.3985,2.3141,2.2809,2.2798,2.3254,2.3132,2.2846,2.3618,2.3276,2.2462,2.2558,2.2472,2.2472,2.3176,2.3165,2.3043,2.3629,2.3567,2.3298,2.3224,2.3187,2.3187,2.3187,2.3457,2.3677,2.353,2.3677,2.3751,2.3641,2.2547,2.1642,2.1538,2.1181,2.0736,2.0149,2.0149,2.0071,1.9724,2.0052,2.0216,1.9933,2.0099,2.0099,1.9825,1.9984,2.012,2.0207,2.04,2.0544,2.0615,1.9673,1.9155,1.9292,1.9421,1.9341,1.9036,0.0,0.0,0.0,0.0,0.0,0.0,0.0,0.0,0.0,0.0,0.0,0.0,0.0,0.0,0.0,0.0,0.0,0.0,0.0,0.0,0.0,0.0,0.0,2.9101,2.9138,2.9416,2.9755,2.9037,2.8595,2.8925,2.8672,2.8491,2.8491,2.8598,2.9167,3.0292,3.0343,3.0842,3.1928,3.1966,3.1966,3.1966,3.1966,3.1525,3.0635,3.061,3.0096,2.9155,2.9143,2.9013,2.8806,2.8462,2.8191,2.7977,2.7655,2.7273,2.669,2.432,2.3505,2.3652,2.3457,2.397,2.4754,2.4574,2.4502,2.4454,2.4273,2.42,2.4236,2.4236,2.408,2.3897,2.3703,2.3519,2.3298,2.3113,2.3038,2.3038,2.3038,2.3482,2.3787,2.3409,2.3787,2.408,2.3677,2.3446,2.3335,2.3335,2.2494,2.1611,2.0981,2.0541,0.0,1.9421,2.0446,2.0885,2.0041,2.0469,2.0508,1.9737,1.9841,2.0202,2.0817,2.0705,2.089,2.1517,1.9774,1.8996,1.9411,1.9699,2.0273,2.1171,0.0,0.0,0.0,0.0,0.0,0.0,0.0,0.0,0.0,0.0,0.0,0.0,0.0,0.0,0.0,0.0,0.0,0.0,0.0,0.0,0.0,0.0,3.062,3.0087,3.0289,3.0416,3.0241,3.0343,3.0458,3.0573,3.058,3.0574,3.0574,3.0601,3.0767,3.1082,3.1107,3.1233,3.1549,3.1549,3.1549,3.1549,3.1549,3.1445,3.116,3.0783,3.044,3.0171,2.9772,2.9378,2.9,2.8932,2.8675,2.8325,2.7835,2.7567,2.7356,2.6188,2.5611,2.5393,2.5075,2.4909,2.4754,2.4418,2.4273,2.4273,2.4236,2.4381,2.4646,2.4646,2.4766,2.4886,2.485,2.4695,2.4515,2.4468,2.4263,2.4082,2.4082,2.4105,2.4091,2.397,2.408,2.4164,2.4055,2.397,2.3897,2.3751,2.3139,2.2761,2.2989,2.2334,0.0,2.1949,2.1893,2.1625,2.106,2.1131,2.1141,2.0907,2.1203,2.1623,2.2172,2.2525,2.2774,2.2793,2.1895,2.1487,2.1676,2.1369,2.1589,0.0,0.0,0.0,0.0,0.0,0.0,0.0,0.0,0.0,0.0,0.0,0.0,0.0,0.0,0.0,0.0,0.0,0.0,0.0,0.0,0.0,0.0,3.1235,3.1239,3.1262,3.1339,3.1301,3.106,3.1513,3.181,3.181,3.1909,3.186,3.1711,3.1671,3.1691,3.1712,3.1738,3.1851,3.2089,3.2102,3.2102,3.2102,3.2102,3.1976,3.1725,3.1424,3.1047,3.0608,3.0281,2.9849,0.0,2.9378,2.926,2.9,2.8709,2.8446,0.0,0.0,0.0,0.0,0.0,2.5481,2.4981,2.4718,2.4647,2.4647,2.4647,2.4838,2.5016,2.5016,2.5076,2.5158,2.5158,2.5052,2.4862,2.4802,2.4659,2.4491,2.4394,2.4467,2.4467,2.4261,2.437,2.4467,2.4225,2.42,0.0,2.4273,2.3861,2.3526,2.3614,2.3275,2.2999,2.2974,2.2833,2.2632,2.2351,2.2319,2.2319,2.2319,2.2353,0.0,0.0,0.0,2.3243,2.2794,2.2525,0.0,0.0,0.0,2.2616,2.3694,0.0,0.0,0.0,2.2664,2.2253,0.0,0.0,0.0,0.0,0.0,0.0,0.0,0.0,0.0,0.0,0.0,0.0,0.0,0.0,0.0,0.0,3.1773,3.1987,3.2564,3.2417,3.2199,3.2056,3.2529,3.287,3.287,3.2843,3.2696,3.2347,3.2307,3.2322,3.2361,0.0,0.0,0.0,0.0,3.3124,3.3124,3.3124,3.2817,3.2303,3.224,3.1712,3.0796,3.067,3.0357,2.988,2.9817,2.9792,2.9792,2.9792,2.9546,2.9032,2.7671,2.7085,2.6953,2.6396,2.5841,2.5347,2.5312,0.0,0.0,2.5312,2.5347,2.5382,2.5382,2.5264,2.5158,2.5158,2.504,2.4898,2.4767,2.4707,2.4635,2.4478,2.4778,2.4945,2.4478,2.4743,2.4945,2.4442,2.437,2.449,2.4825,2.449,2.4039,2.3498,2.3711,2.3702,2.3178,2.3433,2.3618,2.3551,0.0,0.0,2.3551,2.3183,2.3174,2.368,2.3513,2.3074,2.2407,2.2592,2.2613,2.2454,2.2765,2.3548,2.4861,2.4825,2.4992,2.5241,2.35,2.2723,0.0,0.0,0.0,0.0,0.0,0.0,0.0,0.0,0.0,0.0,0.0,0.0,0.0,0.0,0.0,3.2577,3.2813,3.2979,3.3536,3.3997,3.3948,3.3116,3.3542,3.3914,3.3914,3.3878,3.3781,3.371,3.3518,3.3402,3.342,3.342,0.0,3.3356,3.3356,3.3283,3.3124,3.3124,3.3061,3.2905,0.0,0.0,3.1876,3.1009,3.0557,3.0432,2.998,2.9792,2.9792,2.9792,2.9753,2.9561,2.8468,2.7705,2.7181,2.6746,2.6258,2.5723,2.5418,2.5312,2.5312,2.5312,2.5535,2.5793,2.5793,2.5968,0.0,2.6198,2.6164,2.6129,2.6129,2.6002,2.5875,2.5805,2.577,2.5653,2.5394,2.5548,2.5653,2.5394,2.5477,2.5548,2.5477,2.4766,2.4371,2.4815,2.4325,2.4045,2.4398,2.4095,2.3702,2.333,2.3285,2.3285,2.3285,2.3336,2.3649,2.4274,2.4445,2.4422,2.4267,2.448,2.4552,2.453,2.4672,2.4909,2.5218,2.5087,2.5087,2.5147,2.4874,2.4755,0.0,0.0,0.0,0.0,0.0,0.0,0.0,0.0,0.0,0.0,0.0,3.0614,0.0,0.0,3.2175,3.2969,3.3233,3.3563,3.4118,3.4376,3.4365,3.4095,3.4592,3.4955,3.4955,3.4817,3.4647,3.4439,3.4189,3.3937,3.3713,3.3713,3.3641,3.3556,3.3556,3.3513,3.3398,3.3398,3.3356,3.324,3.2937,3.2575,3.219,3.1662,3.1122,3.0608,3.0331,3.0043,2.9792,2.9792,2.9792,2.9767,2.9247,2.8662,2.8035,2.7578,2.7058,2.6514,2.6054,2.5886,2.5886,2.5886,2.6037,2.6188,2.6188,2.6349,2.6499,2.6499,2.6499,2.6499,2.6361,2.627,2.6166,2.6062,2.6062,2.5992,2.5793,2.591,2.598,2.5793,2.584,2.5875,2.5758,2.53,2.5004,2.5276,2.4886,2.4683,2.4921,2.4766,2.4506,2.4178,2.4213,2.4249,2.4249,2.4296,2.4484,2.4886,2.4849,2.4861,2.4957,2.4957,2.4981,2.5123,2.5182,2.5241,2.5312,2.5241,2.5218,2.5218,2.5276,2.5218,0.0,0.0,0.0,0.0,0.0,0.0,0.0,0.0,3.0405,3.1408,3.1687,3.1918,3.2409,3.2981,3.338,3.3427,3.3657,3.4014,3.4526,3.45,3.45,3.4806,3.5305,3.5602,3.5602,3.5399,3.5113,3.4771,3.4522,3.4272,3.3937,3.3894,3.3882,3.3839,3.3839,3.3797,3.3713,3.3713,3.3641,3.3484,3.3484,3.3102,3.2491,3.2349,3.1833,3.0962,3.0708,3.0357,2.9942,2.9829,2.9792,2.9792,2.9792,2.9503,2.9026,2.8473,2.7846,2.7253,2.6813,2.6587,2.6499,2.6465,2.643,2.643,2.6396,2.6396,2.6396,2.6396,2.6396,2.6361,2.6166,2.6131,2.6097,2.5945,2.6015,2.6097,2.5875,2.598,2.6097,2.5875,2.5875,2.5875,2.5828,2.5723,2.5535,2.5347,2.5312,2.5241,2.5111,2.5206,2.5276,2.5147,2.5241,2.5312,2.5312,2.5218,2.5182,2.5276,2.5052,2.4957,2.5111,2.4992,2.4957,2.5147,2.5147,2.5182,2.5312,2.5312,2.5312,2.5312,2.5312,2.5147,2.9729,2.9857,3.0513,3.0788,3.0865,3.1209,0.0,0.0,3.1854,3.2645,3.3121,3.3427,3.3532,3.4043,3.4472,3.4582,3.4653,3.4739,3.4981,3.502,3.502,3.5061,3.5127,3.5154,3.5154,3.5003,3.4839,3.4797,3.4535,3.4481,3.4673,3.4673,3.4577,3.4314,3.4314,3.4105,3.3713,3.3713,3.367,3.367,3.367,3.3602,3.3526,3.286,3.2498,3.2333,3.1115,3.0583,3.0482,2.9993,2.9792,2.9792,2.9792,2.9754,2.9628,2.9013,2.8185,2.7268,2.7241,2.6901,2.6465,2.6305,2.6236,2.6201,2.6015,2.598,2.598,2.598,2.598,2.598,2.5945,2.5945,2.5945,2.591,2.591,2.5875,2.5688,2.5793,2.5875,2.5676,2.5793,2.5828,2.5641,2.5606,2.5535,2.5347,2.5312,2.5241,2.5111,2.5206,2.5276,2.5276,2.5276,2.5312,2.5312,2.5276,2.5276,2.5312,2.5276,2.5241,2.5276,2.5276,2.5241,2.5276,2.5276,2.5276,2.5312,2.5312,2.5312,2.5312,2.5312,2.5276,3.165,3.1413,3.1433,0.0,3.2178,3.2205,3.2657,3.2744,3.2856,3.3392,3.3909,3.4205,3.4205,3.4703,3.5148,0.0,3.535,3.5518,3.5602,3.5318,3.5086,3.5086,3.4867,3.4784,3.5072,3.4921,3.4797,3.4797,3.4714,3.4618,3.4577,3.4714,3.4673,3.4397,3.4397,3.4314,3.4105,3.4105,3.4063,3.3937,3.3937,3.3852,3.3713,3.3398,3.3062,3.2718,3.1737,3.1097,3.0741,3.0409,3.008,2.9792,2.9792,2.9702,2.9498,2.9063,2.855,2.7951,2.7351,2.6905,2.654,2.6161,2.6027,2.6027,2.5945,2.591,2.591,2.591,2.591,2.591,2.591,2.6037,2.6198,2.6198,2.6198,2.6151,2.6082,2.6117,2.6164,2.6082,2.6302,2.6499,2.6418,2.6302,2.6151,2.5978,2.5581,2.5241,2.5111,2.5206,2.5312,2.5312,2.5312,2.5312,2.5312,2.5312,2.5312,2.5312,2.5535,2.5653,2.5653,2.5838,2.5931,2.5931,2.5931,2.5931,2.5931,2.5931,2.5931,2.5931,2.5931,2.5931,3.2495,0.0,0.0,3.2986,3.3336,3.3502,3.3536,3.3761,3.4072,3.4423,3.4771,3.5068,3.5143,3.5593,3.5895,3.5856,3.602,3.6111,3.5951,3.5615,3.5381,3.5325,3.4939,3.4771,3.5118,3.489,3.4714,3.4714,3.4714,3.4618,3.4535,3.4714,3.4714,3.4535,3.4494,3.4481,3.4397,3.4397,3.4314,3.4202,3.4202,3.4063,3.3882,3.3852,3.3537,3.3072,3.2398,3.1769,3.122,3.0896,3.0438,2.9972,2.9972,2.9831,2.9653,2.9416,2.8975,2.8399,2.7457,2.694,2.6623,2.6153,2.5968,2.6002,2.6037,2.6037,2.6037,2.6037,2.6037,2.6037,2.6037,2.6233,2.638,2.638,2.638,2.638,2.638,2.638,2.638,2.638,2.6645,2.6829,2.6829,2.6714,2.6577,2.6427,2.5931,2.5558,2.543,2.5523,2.5581,2.5581,2.5581,2.5581,2.5581,2.5581,2.5581,2.5581,2.5886,2.6037,2.6037,2.6255,2.638,2.638,2.638,2.638,2.638,2.638,2.638,2.638,2.638,2.6449,0.0,0.0,3.2593,3.299,3.4085,3.5165,3.5769,3.5748,3.569,3.5899,3.6012,3.6151,3.6541,3.6811,3.6872,3.6677,3.6652,3.6468,3.579,3.598,3.6094,3.5925,3.5516,3.5273,0.0,3.4737,3.4397,3.4397,3.4397,3.4535,3.4756,3.4797,3.4797,3.4797,3.4797,3.466,3.4397,3.4397,3.4397,3.4397,3.4397,3.4397,3.4356,3.4202,3.3937,3.3661,3.3098,3.2547,3.2021,3.1445,3.0868,3.0368,3.0368,3.0368,3.0355,3.0343,2.9504,2.8246,2.7692,2.7152,2.6659,2.6303,2.6198,2.6233,2.6358,2.638,2.638,2.638,2.638,2.638,2.638,2.638,2.638,2.638,2.638,2.638,2.638,2.638,2.638,2.638,2.6414,2.6427,2.6427,2.6414,2.6427,2.638,2.638,2.6324,2.6186,2.6289,2.6393,2.6393,2.6393,2.6393,2.6393,2.6393,2.6393,2.6393,2.638,2.638,2.638,2.638,2.638,2.638,2.638,2.638,2.638,2.638,2.638,2.638,2.638,2.6598,0.0,0.0,3.3888,3.4964,3.5472,3.5719,3.5805,3.598,3.6205,3.6427,3.659,3.6799,3.7029,3.7161,3.7187,3.7109,3.7226,3.7328,3.7328,3.723,3.7181,3.7385,3.7076,0.0,0.0,0.0,0.0,3.4397,3.4577,3.4618,3.4535,3.4714,3.4714,3.4535,3.4535,3.4481,3.4397,3.4397,3.4397,3.4397,3.4397,3.4397,3.4397,3.4314,3.423,3.4134,3.3814,3.3178,3.226,3.1947,3.1227,3.0406,3.0406,3.033,3.019,3.019,2.9782,2.9173,2.8813,2.8224,2.7552,2.7074,2.6671,2.6358,2.638,2.638,2.638,2.638,2.638,2.638,2.638,2.6586,2.6803,2.6803,2.6803,2.6803,2.6803,2.6803,2.6803,2.6803,2.6973,2.7142,2.7142,2.7142,2.7142,2.7142,2.6688,2.638,2.6358,2.6393,2.638,2.638,2.638,2.638,2.638,2.638,2.638,2.638,2.6654,2.6803,2.6803,2.7007,2.7142,2.7142,2.7142,2.7142,2.7142,2.7142,2.7142,2.7142,2.7142,2.7209,0.0,3.4105,3.4719,3.6122,3.6547,3.6563,3.6501,3.671,3.6901,3.6814,3.6732,3.6771,3.713,3.7015,3.7009,3.7352,3.7495,3.7676,3.7959,3.8068,3.8167,3.8283,3.8128,3.801,0.0,0.0,0.0,3.5018,3.4778,3.4577,3.4397,3.4577,3.4577,3.4397,3.4397,3.4397,3.4397,3.4397,3.4397,3.4397,3.4397,3.4397,3.4397,3.4397,3.4397,3.4397,3.4285,3.3682,3.2799,3.2444,3.1758,3.088,3.0674,3.0533,3.0419,3.0419,3.0317,3.0063,2.9428,2.8722,2.8009,2.7599,2.7101,2.662,2.6769,2.6803,2.6803,2.6803,2.6803,2.6803,2.6803,2.6973,2.7175,2.7175,2.7175,2.7175,2.7175,2.7175,2.7175,2.7175,2.7356,2.749,2.749,2.749,2.749,2.749,2.7108,2.6803,2.6803,2.6803,2.6803,2.6803,2.6803,2.6803,2.6803,2.6803,2.6803,2.6803,2.704,2.7175,2.7175,2.739,2.749,2.749,2.749,2.749,2.749,2.749,2.749,2.749,2.749,2.749,3.425,3.4599,3.5204,3.6575,3.7284,3.7697,3.787,3.7895,3.767,3.7065,3.6475,3.625,0.0,0.0,3.6452,3.7391,3.7596,3.7625,3.7629,3.8473,3.897,0.0,0.0,0.0,0.0,0.0,0.0,3.6253,0.0,3.4572,3.4572,3.4572,3.4572,3.4531,3.4572,3.4518,3.445,3.441,3.4397,3.4397,3.4397,3.4397,3.4397,3.4397,3.4397,3.4397,3.4397,3.4097,3.3548,3.2947,3.2346,3.1745,3.1209,3.0986,3.0986,3.0986,3.0986,3.0833,2.9529,2.871,2.8168,2.7943,2.7507,2.7113,2.7403,2.749,2.749,2.749,2.749,2.749,2.749,2.749,2.749,2.749,2.749,2.749,2.749,2.749,2.749,2.7523,2.7556,2.7523,2.749,2.7523,2.7556,2.7556,2.7556,2.7523,2.749,2.7523,2.7523,2.749,2.7523,2.7523,2.749,2.749,2.749,2.749,2.749,2.749,2.749,2.749,2.749,2.749,2.749,2.749,2.749,2.749,2.749,2.749,2.749,2.749,3.5633,3.6486,3.7484,3.814,3.8377,3.8444,3.8159,3.7653,3.7088,3.6584,3.6128,3.5744,0.0,0.0,0.0,3.6896,3.7325,0.0,3.8005,3.8677,0.0,3.9452,0.0,4.0235,4.0335,3.9549,0.0,0.0,3.749,3.6772,3.6772,3.6772,3.6603,3.6276,3.6603,3.622,3.5064,3.462,3.4397,3.4397,3.4397,3.4397,3.4397,3.4397,3.4397,3.4397,3.4397,3.4097,3.3548,3.2947,3.2346,3.1745,3.1209,3.0986,3.0986,3.0986,3.0986,3.096,3.0629,3.009,2.9533,2.9058,2.8508,2.7983,2.762,2.749,2.749,2.749,2.749,2.749,2.749,2.749,2.749,2.749,2.749,2.749,2.749,2.749,2.7656,2.8157,2.8254,2.8105,2.759,2.7908,2.8254,2.8254,2.8254,2.8072,2.7556,2.7941,2.8039,2.7556,2.7941,2.8039,2.7523,2.749,2.749,2.749,2.749,2.749,2.749,2.749,2.749,2.749,2.749,2.749,2.749,2.749,2.749,2.749,2.749,2.749,3.6376,3.7317,3.8323,3.8905,3.9068,3.887,3.8172,3.7412,3.6642,3.5892,3.5284,0.0,3.4955,0.0,0.0,0.0,0.0,0.0,3.7859,3.8726,3.9396,0.0,4.0322,0.0,4.0887,4.0378,4.0012,0.0,3.8585,3.7683,3.7612,3.7612,3.7485,3.7201,3.7443,3.6911,3.5495,3.5235,3.482,3.4265,3.4363,3.4397,3.4397,3.4397,3.4397,3.4397,0.0,3.4228,3.3875,3.3038,3.2502,3.2136,3.1313,3.0986,3.0986,3.0986,3.0986,3.0986,3.0986,3.0777,3.0372,2.9549,2.8904,2.8281,2.7659,2.749,2.749,2.749,2.749,2.749,2.749,2.749,2.749,2.749,2.749,2.749,2.749,2.749,2.7689,2.8384,2.8514,2.8468,2.8403,2.8436,2.8597,2.8903,2.8693,2.85,2.8583,2.8532,2.8352,2.7973,2.8287,2.8468,2.839,2.7842,2.7623,2.7908,2.7656,2.749,2.749,2.749,2.749,2.749,2.749,2.749,2.749,2.749,2.749,2.749,2.749,2.749,3.6867,3.7647,3.8442,3.9167,3.9265,3.8962,3.7904,3.7042,3.6107,3.5034,0.0,3.3935,3.4486,3.4718,3.5218,3.6305,0.0,3.683,3.7387,3.8528,3.9275,3.9187,4.0193,4.0831,4.0773,4.073,4.073,4.073,3.9256,3.8226,3.8013,3.8027,3.8027,3.8027,3.7694,3.7012,3.5967,3.5866,3.5271,3.4126,3.4314,3.4397,3.4397,3.4397,3.4397,3.4397,0.0,0.0,3.4201,3.313,3.2646,3.2476,3.1405,3.0986,3.0986,3.0986,3.0986,3.0986,3.0986,3.0986,3.079,2.9689,2.897,2.8373,2.7699,2.749,2.749,2.749,2.749,2.749,2.749,2.749,2.749,2.749,2.7556,2.7623,2.7623,2.7776,2.8026,2.8532,2.8693,2.8903,2.9411,2.9093,2.8967,2.9597,2.9205,2.9156,3.0072,2.93,2.8725,2.8744,2.8839,2.9079,2.9597,2.8538,2.8078,2.8597,2.8091,2.7723,2.7656,2.7669,2.7669,2.7669,2.7669,2.7669,2.7669,2.7669,2.7669,2.7623,2.759,2.7603,3.7753,3.8328,3.8723,3.8877,3.8649,3.8135,3.7059,3.6207,0.0,0.0,3.3642,3.3554,3.348,3.4359,3.5123,3.5339,0.0,0.0,0.0,0.0,3.8552,0.0,0.0,0.0,0.0,0.0,0.0,0.0,0.0,4.0379,4.0165,4.0165,4.0165,4.0165,3.8273,3.7279,3.7258,3.5755,3.4795,3.4365,3.4387,3.4397,3.4397,3.4397,3.4397,3.4397,3.4397,0.0,3.3679,3.2986,3.2411,3.1889,3.1248,3.0986,3.0986,3.0986,3.0986,3.0986,3.0986,3.0986,3.079,2.9689,2.9244,2.8922,2.7816,2.749,2.749,2.749,2.749,2.749,2.749,2.749,2.749,2.749,2.7908,2.832,2.832,2.9188,2.9858,2.9425,2.9766,3.0011,2.958,2.9858,3.0299,3.0674,3.0644,3.0689,3.1101,3.033,2.9813,3.0045,3.0571,3.0719,3.0273,3.0031,2.974,2.9348,2.9237,2.8935,2.8425,2.8425,2.8425,2.8425,2.8425,2.8425,2.8425,2.8425,2.8425,2.8392,2.8145,2.8013,3.7641,3.8165,3.8486,3.8486,3.8104,3.7448,3.6345,0.0,0.0,0.0,3.3161,3.3406,3.3112,3.448,0.0,3.5154,0.0,0.0,0.0,0.0,0.0,0.0,0.0,0.0,0.0,0.0,0.0,0.0,0.0,4.0802,4.0702,4.0702,4.0702,4.0702,3.8991,3.7827,3.7274,3.5857,3.4739,3.3975,3.4139,3.4227,3.424,3.4337,3.4397,3.4397,3.4397,0.0,3.3548,3.2947,3.2346,3.1745,3.1209,3.0986,3.0986,3.0986,3.0986,3.0986,3.0986,3.0986,3.079,2.9689,2.931,2.9052,2.7855,2.749,2.749,2.749,2.749,2.749,2.749,2.749,2.749,2.749,2.8006,2.8514,2.8514,2.9563,3.0389,3.0072,3.0269,3.0569,3.0778,3.0778,3.0984,3.1622,3.1435,3.1435,3.2104,3.1492,3.0969,3.0925,3.1203,3.142,3.1433,3.0808,3.0287,3.0042,2.9983,2.9707,2.9075,2.9075,2.9075,2.9075,2.9075,2.9075,2.9075,2.9075,2.9075,2.9044,2.8573,2.8276,3.7412,3.7914,3.806,3.7968,3.7511,3.6744,3.5339,3.4186,0.0,3.2151,3.2644,3.3208,3.3022,3.4532,3.5609,0.0,3.5656,0.0,0.0,0.0,0.0,0.0,0.0,0.0,0.0,0.0,0.0,0.0,0.0,0.0,4.0702,4.0702,4.0631,4.0505,3.9269,3.8036,3.6889,3.5709,3.4637,3.3665,3.3948,3.406,3.4046,3.4227,3.438,3.4504,3.4504,0.0,0.0,3.308,3.2397,3.1715,3.1194,3.0986,3.0986,3.0986,3.0986,3.0986,3.0986,3.0983,3.0745,2.965,2.931,2.9052,2.7855,2.749,2.749,2.749,2.749,2.749,2.749,2.749,2.7556,2.7861,2.8436,2.898,2.9107,3.0025,3.0822,3.0822,3.0881,3.1175,3.1938,3.1652,3.1564,3.2398,3.2061,3.2033,3.2881,3.2535,3.2102,3.1834,3.1806,3.2018,3.2563,3.1634,3.0984,3.0896,3.0852,3.0556,2.9966,2.9891,2.9891,2.9936,2.9936,2.9936,2.9936,2.9936,2.9844,2.969,2.9296,2.8881,3.7622,3.791,3.7558,3.7187,3.6799,3.5906,3.3659,0.0,3.2746,3.138,3.1905,3.272,3.3099,3.3953,3.453,0.0,0.0,3.5409,0.0,0.0,0.0,0.0,0.0,0.0,0.0,0.0,0.0,0.0,0.0,0.0,4.0702,4.0702,4.0449,3.9887,3.8487,3.7322,3.6484,3.5038,3.4164,3.3878,3.4032,3.4058,3.3925,3.4073,3.438,3.4751,3.4751,0.0,0.0,3.3431,3.2596,3.1562,3.1149,3.0986,3.0986,3.0986,3.0986,3.0986,3.0986,3.0856,3.0497,2.9591,2.931,2.9052,2.7855,2.749,2.749,2.749,2.749,2.749,2.749,2.749,2.7809,2.9016,2.9827,3.0494,3.1102,3.1553,3.1868,3.1868,3.2064,3.2244,3.2342,3.2315,3.2398,3.2816,3.28,3.2881,3.3229,3.3214,3.316,3.3134,3.3134,3.316,3.3214,3.3091,3.2807,3.2272,3.2216,3.1949,3.1349,3.1261,3.1261,3.132,3.1335,3.1335,3.1335,3.1335,3.0999,3.0419,3.0585,3.0376,3.6432,3.6667,3.6402,3.6108,3.5656,3.4867,3.3364,0.0,3.2026,3.0842,3.1908,3.3005,3.2706,3.4211,3.5249,0.0,0.0,0.0,0.0,0.0,0.0,0.0,0.0,0.0,0.0,0.0,0.0,0.0,0.0,0.0,4.0702,4.0702,4.0252,3.931,3.7924,3.6724,3.5683,3.433,3.3623,3.355,3.3735,3.3772,3.3745,3.4263,3.4617,3.4788,3.4788,0.0,0.0,3.3068,3.2439,3.1886,3.1482,3.1482,3.1629,3.1445,3.1482,3.1593,3.1161,3.0866,3.0525,2.96,2.9201,2.8844,2.7805,2.7669,2.7868,2.7868,2.8,2.8164,2.8164,2.8314,2.8592,2.9079,3.0027,3.0925,3.1349,3.1866,3.2247,3.2247,3.2315,3.2453,3.2676,3.2703,3.28,3.3096,3.3123,3.3176,3.3282,3.3309,3.3309,3.3309,3.3309,3.3309,3.3309,3.3309,3.3038,3.2453,3.2726,3.2672,3.2076,3.2005,3.2005,3.2048,3.2048,3.2048,3.2048,3.2048,3.1908,3.1637,3.1392,3.0984,3.544,3.5775,3.5565,3.5307,3.4782,3.4035,0.0,0.0,3.1452,3.0282,3.1705,3.3003,3.2445,3.4145,3.5349,0.0,0.0,3.5655,0.0,0.0,0.0,0.0,0.0,0.0,0.0,0.0,0.0,0.0,0.0,0.0,0.0,4.0196,3.9562,3.8649,3.7228,3.5977,3.4922,3.3845,3.329,3.329,3.3512,3.3657,3.3794,3.4416,3.4899,3.5166,0.0,0.0,0.0,3.3192,3.256,3.2237,3.1873,3.1873,3.2055,3.185,3.1909,3.2019,3.1384,3.093,3.0463,2.9583,2.8995,2.8518,2.7754,2.7769,2.8112,2.8112,2.8276,2.8522,2.8785,2.9103,2.9435,2.9659,3.0585,3.1478,3.1635,3.2145,3.2523,3.2465,3.2535,3.2687,3.2924,3.2951,3.3032,3.3282,3.3309,3.3309,3.3309,3.3309,3.3309,3.3309,3.3309,3.3309,3.3309,3.3309,3.3134,3.2699,3.3081,3.3107,3.2672,3.2672,3.2672,3.2672,3.2672,3.2672,3.2672,3.2672,3.2563,3.2398,3.2132,3.1792,3.4961,3.5571,3.5305,3.4911,3.4444,3.3571,0.0,0.0,3.1101,2.9709,3.0999,3.2408,3.2408,3.3454,3.4302,3.4307,0.0,0.0,0.0,0.0,0.0,0.0,0.0,0.0,0.0,0.0,0.0,0.0,0.0,0.0,0.0,3.9013,3.8133,3.7906,3.6174,3.4871,3.4217,3.3585,3.329,3.329,3.3512,3.3803,3.4181,3.439,3.5075,0.0,0.0,0.0,0.0,3.4011,3.3242,3.2668,3.2237,3.2092,3.2092,3.2092,3.2092,3.2055,3.1703,3.1083,3.0275,2.9557,2.8778,2.8013,2.7636,2.7769,2.8112,2.8112,2.8112,2.8327,2.9237,2.9735,3.021,3.1159,3.1877,3.2398,3.2398,3.2648,3.2827,3.2629,3.2877,3.3096,3.3096,3.3096,3.315,3.3282,3.3309,3.3309,3.3309,3.3309,3.3309,3.3309,3.3309,3.3309,3.3309,3.3309,3.3309,3.3309,3.3309,3.3309,3.3309,3.3309,3.3309,3.3309,3.3309,3.3309,3.3309,3.3309,3.2985,3.241,3.3027,3.2958,3.2679,3.3002,3.2782,3.2925,3.2517,3.1852,3.0888,3.0662,3.0468,2.9692,3.0363,3.1312,3.1942,3.2749,3.3711,3.479,3.4616,0.0,0.0,0.0,0.0,0.0,0.0,0.0,0.0,0.0,0.0,0.0,0.0,0.0,0.0,3.8001,3.6925,3.6886,3.5798,3.4697,3.3585,3.3389,3.329,3.329,3.38,3.4094,3.4231,3.5036,0.0,0.0,0.0,0.0,0.0,3.3401,3.3026,3.3086,3.2668,3.2682,3.2874,3.2596,3.242,3.2215,3.1567,3.064,2.9754,2.947,2.8946,2.8373,2.8013,2.8013,2.8145,2.8373,2.878,2.918,2.9425,3.0254,3.116,3.1635,3.2244,3.2784,3.2973,3.3043,3.3032,3.2947,3.2962,3.2951,3.2951,3.3032,3.3096,3.315,3.3229,3.3309,3.3309,3.3309,3.3309,3.3309,3.3309,3.3309,3.3309,3.3309,3.3309,3.3309,3.3309,3.3309,3.3309,3.3309,3.3309,3.3309,3.3309,3.3309,3.3309,3.3309,3.3187,3.3011,3.3214,3.3187,0.0,3.1638,3.1461,3.1718,3.1327,0.0,0.0,3.0037,2.9869,2.9347,2.9888,3.0752,3.1559,3.2318,3.3349,3.4859,3.4638,0.0,0.0,0.0,0.0,0.0,0.0,0.0,0.0,0.0,0.0,0.0,0.0,0.0,0.0,3.7467,3.6495,3.642,3.5136,3.4098,3.329,3.3515,3.3627,3.3641,3.4295,3.4702,3.4941,3.5391,0.0,0.0,0.0,0.0,0.0,3.3266,3.3086,3.329,3.3016,3.3086,3.3213,3.2667,3.2431,3.2268,3.1315,3.0419,2.9668,2.9475,2.9048,2.8554,2.8341,2.821,2.821,2.8785,2.9247,2.9716,3.0421,3.1116,3.1779,3.2296,3.2742,3.3085,3.3203,3.315,3.3069,3.2935,3.2854,3.2773,3.2773,3.2854,3.2947,3.3069,3.3176,3.3229,3.3229,3.3282,3.3282,3.3229,3.3282,3.3309,3.3309,3.3309,3.3309,3.3309,3.3309,3.3309,3.3309,3.3309,3.3309,3.3309,3.3309,3.3309,3.3309,3.3309,3.3309,3.3309,3.3309,3.3309,0.0,0.0,3.1018,3.106,3.0718,0.0,0.0,0.0,0.0,2.8738,2.9551,3.0556,3.1188,3.1985,3.3041,3.4512,3.4529,0.0,0.0,0.0,0.0,0.0,0.0,0.0,0.0,0.0,0.0,0.0,0.0,0.0,0.0,3.7391,3.6645,3.642,3.4474,3.3452,3.3452,3.4014,3.4309,3.4273,3.4964,3.5527,3.6019,3.5498,0.0,0.0,0.0,0.0,0.0,3.3529,3.329,3.329,3.3234,3.322,3.315,3.2353,3.215,3.212,3.0979,3.0306,2.9862,2.9506,2.904,2.8651,2.8651,2.8406,2.8327,2.9237,2.9535,2.9983,3.1877,3.2173,3.2185,3.3091,3.3309,3.3256,3.3123,3.3096,3.2989,3.266,3.2578,3.2578,3.2578,3.2578,3.2703,3.3016,3.3069,3.3112,3.3085,3.3203,3.3256,3.3096,3.3229,3.3309,3.3309,3.3309,3.3309,3.3309,3.3309,3.3309,3.3309,3.3309,3.3309,3.3309,3.3309,3.3309,3.3309,3.3309,3.3309,3.3309,3.3309,3.3309,2.8511,0.0,2.9122,2.9763,2.9455,2.9008,0.0,0.0,0.0,0.0,0.0,0.0,0.0,3.0867,3.2012,3.4166,3.4601,3.511,0.0,0.0,0.0,0.0,0.0,0.0,0.0,0.0,0.0,0.0,0.0,0.0,0.0,3.7448,3.6845,3.6645,3.5577,3.4913,3.4753,3.5054,3.5125,3.4978,3.5597,3.5761,3.5563,3.5752,0.0,0.0,0.0,0.0,3.3698,3.3417,3.329,3.3234,3.2806,3.2623,3.2539,3.1887,3.1354,3.0919,3.062,2.9979,2.9306,2.921,2.9082,2.8972,2.8972,2.8748,2.8605,2.93,2.9858,3.0525,3.1721,3.2327,3.2784,3.3187,3.3309,3.3256,3.3123,3.3032,3.2897,3.2648,3.2523,3.2453,3.2453,3.2523,3.2621,3.2703,3.2935,3.3058,3.2951,3.315,3.3256,3.3096,3.3229,3.3309,3.3309,3.3309,3.3309,3.3309,3.3309,3.3309,3.3309,3.3309,3.3309,3.3309,3.3309,3.3309,3.3309,3.3309,3.3309,3.3309,3.3309,3.3309,2.7523,2.7809,2.8204,2.8803,2.8654,2.8438,2.8651,0.0,0.0,0.0,0.0,0.0,0.0,0.0,3.2071,3.4284,3.4732,0.0,0.0,0.0,0.0,0.0,0.0,0.0,0.0,0.0,0.0,0.0,0.0,0.0,0.0,3.7598,3.7313,3.711,3.6782,3.6139,3.5189,3.5582,3.5723,3.5625,3.6024,3.6085,3.5835,3.5557,3.52,0.0,0.0,0.0,3.3591,3.319,3.2973,3.2848,3.2216,3.1991,3.1907,3.1208,3.076,3.0455,3.0097,2.9694,2.932,2.932,2.932,2.932,2.932,2.9194,2.9212,2.9936,3.0615,3.1377,3.2296,3.2823,3.3123,3.3282,3.3309,3.3256,3.3123,3.3005,3.2843,3.2648,3.2496,3.2398,3.2398,3.2453,3.2523,3.2578,3.2757,3.2881,3.2897,3.3085,3.3176,3.3112,3.3229,3.3309,3.3309,3.3309,3.3309,3.3309,3.3309,3.3309,3.3309,3.3309,3.3309,3.3309,3.3309,3.3309,3.3309,3.3309,3.3309,3.3309,3.3309,3.3309,2.7053,2.7423,2.7776,2.8124,2.8151,2.8177,2.849,0.0,0.0,0.0,0.0,0.0,0.0,3.1712,0.0,0.0,0.0,0.0,0.0,0.0,0.0,0.0,0.0,0.0,0.0,0.0,0.0,0.0,0.0,0.0,0.0,3.7853,3.7853,3.7663,3.7777,3.711,3.5559,3.6029,3.624,3.6141,3.6307,3.632,3.6182,3.5275,3.4803,0.0,0.0,0.0,3.3597,3.3038,3.2676,3.2434,3.1733,3.1452,3.1368,3.0494,3.0261,3.0273,2.9659,2.9509,2.9602,2.9602,2.9602,2.9602,2.9602,2.9727,3.0038,3.0778,3.1405,3.2074,3.3038,3.3309,3.3309,3.3282,3.3282,3.3256,3.3096,3.3005,3.2854,3.2648,3.2523,3.2425,3.2398,3.2398,3.2425,3.2551,3.2578,3.2648,3.28,3.2978,3.3085,3.3085,3.3176,3.3282,3.3309,3.3309,3.3335,3.3346,3.3335,3.3309,3.3309,3.3309,3.3309,3.3309,3.3309,3.3309,3.3309,3.3309,3.3282,3.3282,3.3309,3.3282,2.6598,2.6816,2.7248,2.7756,2.8,2.8131,2.83,0.0,0.0,0.0,0.0,0.0,0.0,3.1619,0.0,0.0,0.0,0.0,0.0,0.0,0.0,0.0,0.0,0.0,0.0,0.0,0.0,0.0,0.0,0.0,0.0,3.8127,3.8066,3.7853,3.7739,3.7448,3.6981,3.7066,3.6854,3.6344,3.6382,3.6014,3.5289,3.5137,3.4854,0.0,0.0,3.3971,3.3813,3.3402,3.3087,3.2786,3.1684,3.1252,3.1113,3.0083,2.9712,2.9729,2.9613,2.9571,2.9602,2.9602,2.9602,2.9602,2.9602,3.0342,3.1248,3.1364,3.148,3.1823,3.2985,3.3309,3.3282,3.315,3.3229,3.3229,3.2978,3.3005,3.2962,3.2676,3.2578,3.2523,3.2425,3.2398,3.2425,3.2425,3.2523,3.2578,3.2496,3.2746,3.2924,3.2924,3.3058,3.3176,3.3309,3.3309,3.3398,3.3617,3.3424,3.3309,3.3309,3.3309,3.3309,3.3309,3.3309,3.3309,3.3309,3.3309,3.3229,3.3123,3.3256,3.3176,2.6289,2.6418,2.6683,2.7087,2.749,2.7835,2.8118,2.8392,0.0,0.0,0.0,0.0,0.0,0.0,0.0,0.0,0.0,0.0,0.0,0.0,0.0,0.0,0.0,0.0,0.0,0.0,0.0,0.0,0.0,0.0,0.0,0.0,3.8179,3.8066,3.7891,3.7582,3.7162,3.7035,3.6779,3.6405,3.5923,3.5418,3.4931,3.4677,3.4396,3.4108,0.0,3.3421,3.3024,3.2392,3.1909,3.1461,3.0648,3.0345,3.0275,2.9796,2.9602,2.9602,2.9602,2.9602,2.9602,2.9602,2.9602,2.9665,2.9976,3.0509,3.1087,3.1794,3.2216,3.259,3.316,3.3309,3.3282,3.3123,3.315,3.3123,3.2924,3.2951,3.2951,3.28,3.2676,3.2578,3.2523,3.2453,3.2398,3.2398,3.2453,3.2496,3.2523,3.2648,3.28,3.3005,3.3058,3.315,3.3282,3.3309,3.3346,3.3477,3.3503,3.345,3.3309,3.3309,3.3309,3.3309,3.3309,3.3309,3.3309,3.3309,3.3282,3.3203,3.3203,3.3123,2.6094,2.6211,2.6327,2.6611,0.0,2.749,2.7868,2.8243,0.0,0.0,0.0,0.0,0.0,0.0,0.0,0.0,0.0,0.0,0.0,0.0,0.0,0.0,0.0,0.0,0.0,0.0,0.0,0.0,0.0,0.0,0.0,0.0,3.791,3.791,3.763,3.7215,3.6763,3.6472,3.6253,3.6091,3.5425,3.4965,3.4687,3.4324,3.4108,3.3908,3.348,3.2978,3.2441,3.1614,3.0998,3.0508,3.0003,2.9729,2.9602,2.9602,2.9602,2.9602,2.9602,2.9602,2.9634,2.9744,2.9806,2.9915,3.0569,3.0837,3.116,3.2132,3.2823,3.3309,3.3309,3.3309,3.3282,3.3123,3.3096,3.3069,3.2978,3.2924,3.2897,3.2897,3.2773,3.2648,3.2578,3.2496,3.2425,3.2398,3.2398,3.2425,3.2551,3.2551,3.266,3.2962,3.3032,3.3123,3.3282,3.344,3.3477,3.3477,3.3633,3.3607,3.3398,3.3319,3.3309,3.3309,3.3309,3.3309,3.3309,3.3309,3.3266,3.3256,3.3176,3.3096,2.6129,2.6289,2.6427,2.6645,2.6871,0.0,2.7469,2.7835,0.0,2.9362,0.0,0.0,0.0,0.0,0.0,0.0,0.0,0.0,0.0,0.0,0.0,0.0,0.0,0.0,0.0,0.0,0.0,0.0,0.0,0.0,0.0,0.0,0.0,3.7102,3.6461,3.6129,3.6072,3.5489,3.5216,3.518,3.5129,3.4874,3.4419,3.4395,3.4264,3.4065,3.368,3.3225,3.282,3.2121,3.1654,3.125,3.0666,3.0076,2.9602,2.9602,2.9602,2.9602,2.9602,2.9602,2.9696,3.0267,3.0434,3.0554,3.1248,3.1823,3.2272,3.2355,3.2823,3.3309,3.3309,3.3309,3.3282,3.3123,3.3096,3.3096,3.3085,3.2978,3.2897,3.2897,3.2897,3.2773,3.2453,3.2523,3.2551,3.2425,3.2398,3.2398,3.2425,3.2425,3.2453,3.2605,3.28,3.3032,3.3282,3.3761,3.405,3.405,3.3822,3.3694,3.3668,3.3424,3.3309,3.3309,3.3309,3.3309,3.3309,3.3309,3.3229,3.3123,3.3229,3.3054,2.6025,2.6164,2.6198,2.6589,2.6679,0.0,0.0,2.7802,2.8476,2.9842,3.0677,0.0,0.0,0.0,0.0,0.0,0.0,0.0,0.0,0.0,0.0,0.0,0.0,0.0,0.0,0.0,0.0,0.0,0.0,0.0,0.0,0.0,0.0,3.657,3.6324,3.6006,3.5615,3.5383,3.5079,3.464,3.464,3.451,3.4196,3.4196,3.3912,3.3326,3.2875,3.2274,3.1567,3.1005,3.0577,3.0245,3.0052,2.9813,2.9602,2.9602,2.9602,2.9602,2.9602,2.9837,3.0206,3.0434,3.0792,3.1233,3.1879,3.2216,3.248,3.285,3.3134,3.3309,3.3309,3.3309,3.3282,3.3123,3.3096,3.3043,3.2839,3.2854,3.287,3.2746,3.2816,3.2816,3.2578,3.2578,3.2551,3.2425,3.2398,3.2398,3.2398,3.2398,3.2453,3.2578,3.2854,3.3096,3.3266,3.3949,3.4349,3.4349,3.425,3.4201,3.4201,3.4226,3.4235,3.4235,3.4161,3.4111,3.4111,3.3729,3.3477,3.3361,3.3229,3.3043,2.6025,2.6198,2.6245,0.0,0.0,0.0,2.7369,2.7703,2.8335,2.9862,3.1202,0.0,0.0,0.0,0.0,0.0,0.0,0.0,0.0,0.0,0.0,0.0,0.0,0.0,0.0,0.0,0.0,0.0,0.0,0.0,0.0,0.0,0.0,0.0,3.6107,3.5731,3.5101,3.5101,3.4835,3.4414,3.4414,3.4346,3.4196,3.3994,3.3561,3.2968,3.2267,3.1599,3.0934,3.0461,3.008,2.9741,2.9634,2.9602,2.9602,2.9602,2.9602,2.9634,2.9806,3.0146,3.0584,3.0955,3.1407,3.1879,3.2508,3.2672,3.2769,3.3187,3.3309,3.3309,3.3309,3.3309,3.3282,3.3176,3.3123,3.3043,3.2866,3.2827,3.28,3.2757,3.2773,3.2746,3.2621,3.2594,3.2551,3.2425,3.2398,3.2425,3.2453,3.2453,3.2551,3.273,3.3107,3.3382,3.3555,3.4259,3.4747,3.4842,3.4842,3.4794,3.4723,3.4697,3.4743,3.4885,3.4695,3.4679,3.4851,3.4235,3.3968,3.4077,3.3688,3.3445,2.6195,2.6517,2.6748,0.0,0.0,0.0,2.7403,2.749,2.7894,2.926,0.0,0.0,0.0,0.0,0.0,0.0,0.0,0.0,0.0,0.0,0.0,0.0,0.0,0.0,0.0,0.0,0.0,0.0,0.0,0.0,0.0,0.0,0.0,0.0,3.5645,3.5055,3.4414,3.438,3.438,3.438,3.438,3.4414,3.4385,3.3761,3.339,3.3138,3.1982,3.1401,3.1248,3.0783,3.0401,3.005,2.9741,2.9602,2.9602,2.9602,2.9602,2.9696,3.0283,3.0524,3.0733,3.1977,3.2398,3.2535,3.3134,3.3309,3.3309,3.3309,3.3309,3.3309,3.3309,3.3309,3.3309,3.3309,3.3203,3.3123,3.3282,3.2947,3.2703,3.3043,3.2839,3.2605,3.2594,3.2594,3.2551,3.2425,3.2398,3.2453,3.2578,3.2594,3.273,3.3069,3.3507,3.3876,3.4101,3.4778,3.5316,3.5571,3.5605,3.547,3.5224,3.4704,3.4631,3.5107,3.479,3.4875,3.5414,3.4743,3.4712,3.5284,3.4688,3.4325,2.4818,2.5428,0.0,2.623,0.0,0.0,0.0,2.749,0.0,0.0,0.0,0.0,0.0,0.0,0.0,0.0,0.0,0.0,0.0,0.0,0.0,0.0,0.0,0.0,0.0,0.0,0.0,0.0,0.0,0.0,0.0,0.0,0.0,0.0,3.5111,3.4739,3.4054,3.4054,3.4054,3.4054,3.4054,3.4088,3.4182,3.3713,3.3111,3.2439,3.1794,3.1234,3.0797,3.0397,3.0097,2.9915,3.0146,3.0237,3.0237,3.0237,3.0494,3.0837,3.0584,3.1072,3.1892,3.2272,3.2687,3.3081,3.3256,3.3309,3.3309,3.3309,3.3309,3.3309,3.3309,3.3309,3.3309,3.3309,3.3282,3.3229,3.3176,3.3043,3.2962,3.2951,3.2978,3.2935,3.2827,3.2816,3.2746,3.2578,3.2551,3.2621,3.2773,3.2816,3.3,3.3533,3.3723,3.4011,3.4545,3.5138,3.5476,3.5453,3.5543,3.565,3.5761,3.5749,3.5798,3.595,3.5873,3.5942,3.6109,3.557,3.5186,3.4955,3.4915,3.4631,2.4776,2.5423,0.0,2.6289,2.6641,2.6964,2.7603,0.0,0.0,0.0,0.0,0.0,0.0,0.0,0.0,0.0,0.0,0.0,0.0,0.0,0.0,0.0,0.0,0.0,0.0,0.0,0.0,0.0,0.0,0.0,0.0,0.0,0.0,0.0,3.5302,3.4839,3.3896,3.3896,3.3896,3.3896,3.3896,3.3951,3.4025,3.3594,3.3122,3.267,3.1855,3.1293,3.09,3.0334,3.0174,3.0297,3.0434,3.0673,3.0911,3.0866,3.1087,3.1421,3.1305,3.1751,3.2453,3.2672,3.2985,3.3309,3.3309,3.3309,3.3309,3.3309,3.3309,3.3309,3.3309,3.3309,3.3309,3.3309,3.3309,3.3282,3.3203,3.3123,3.3096,3.3043,3.2962,3.2908,3.2897,3.2843,3.2718,3.2551,3.2578,3.2676,3.287,3.2897,3.316,3.3841,3.4036,3.439,3.5052,3.5566,3.5805,3.5717,3.5871,3.6023,3.6191,3.6241,3.635,3.6571,3.6454,3.6516,3.6756,3.6079,3.5715,3.5676,3.5504,3.5261,2.5311,0.0,0.0,2.6739,2.7108,0.0,2.798,0.0,0.0,0.0,0.0,0.0,0.0,0.0,0.0,0.0,0.0,0.0,0.0,0.0,0.0,0.0,0.0,0.0,0.0,0.0,0.0,0.0,0.0,0.0,0.0,0.0,0.0,3.5881,3.5849,3.5219,3.3862,3.3862,3.3862,0.0,3.3862,3.3862,3.3868,3.3427,3.3219,3.3256,3.2065,3.1513,3.1333,3.0494,3.0477,3.097,3.0703,3.0999,3.1566,3.1492,3.1564,3.1737,3.2231,3.2425,3.2563,3.3134,3.3309,3.3309,3.3309,3.3309,3.3309,3.3309,3.3309,3.3309,3.3309,3.3309,3.3309,3.3309,3.3309,3.3309,3.3309,3.3203,3.315,3.3282,3.2947,3.2703,3.2897,3.2746,3.2551,3.2425,3.2523,3.2676,3.287,3.2951,3.3266,3.4059,3.4464,3.4971,3.5638,3.6019,3.6247,3.6247,3.6419,3.6523,3.6523,3.6374,3.6501,3.697,3.6655,3.6756,3.7259,3.6367,3.6262,3.6911,3.6266,3.6054,0.0,2.4608,0.0,0.0,2.6799,2.757,2.8013,2.8925,0.0,0.0,0.0,0.0,0.0,0.0,0.0,0.0,0.0,0.0,0.0,0.0,0.0,0.0,0.0,0.0,0.0,0.0,0.0,0.0,0.0,0.0,0.0,0.0,0.0,3.5561,3.5497,3.4857,3.3431,3.3431,3.3431,0.0,3.3431,3.3501,3.3646,3.3346,3.2742,3.1917,3.1997,3.1465,3.0574,3.0641,3.0732,3.0866,3.116,3.1652,3.2188,3.2188,3.2492,3.2877,3.2535,3.2699,3.3134,3.324,3.3309,3.3309,3.3309,3.3309,3.3309,3.3309,3.3309,3.3309,3.3309,3.3309,3.3309,3.3309,3.3309,3.3309,3.3309,3.3282,3.3282,3.3309,3.315,3.3016,3.3058,3.2784,3.2578,3.2551,3.2578,3.2676,3.287,3.3314,3.3834,3.4439,3.5035,3.5683,3.6398,3.644,3.6444,3.6509,3.665,3.669,3.6591,3.6753,3.6834,3.6831,3.7009,3.7087,3.7066,3.6913,3.6696,3.6447,3.6402,3.6195,0.0,0.0,0.0,2.6309,0.0,2.7669,2.8197,0.0,0.0,0.0,0.0,0.0,0.0,0.0,0.0,0.0,0.0,0.0,0.0,0.0,0.0,0.0,0.0,0.0,0.0,0.0,0.0,0.0,0.0,0.0,0.0,3.751,3.6983,3.5913,3.5561,3.4876,3.3791,3.3472,3.329,3.329,3.3031,3.2859,3.2834,3.3106,3.2724,3.1881,3.1795,3.1368,3.0666,3.0427,3.0673,3.1262,3.1422,3.2048,3.2823,3.2823,3.3011,3.324,3.2931,3.3054,3.3309,3.3309,3.3309,3.3309,3.3309,3.3309,3.3309,3.3309,3.3309,3.3309,3.3309,3.3309,3.3309,3.3309,3.3309,3.3309,3.3309,3.3309,3.3309,3.3309,3.3203,3.3085,3.3005,3.273,3.2523,3.2578,3.2551,3.2578,3.2746,3.3193,3.3767,3.4423,3.5035,3.5705,3.6461,3.6444,3.6444,3.6547,3.6771,3.6831,3.6693,3.7011,3.7106,3.695,3.7068,3.7105,3.7007,3.6814,3.6673,3.6547,3.6506,3.6464,0.0,0.0,2.414,2.6884,2.7523,0.0,0.0,0.0,0.0,0.0,0.0,0.0,0.0,0.0,0.0,0.0,0.0,0.0,0.0,0.0,0.0,0.0,0.0,0.0,0.0,0.0,0.0,0.0,0.0,0.0,3.7291,3.7291,3.7024,3.643,3.5849,3.5163,3.4305,3.3654,3.3261,3.3162,3.2517,3.2088,3.1807,3.2485,3.254,3.2086,3.1584,3.1171,3.0825,3.0313,3.0644,3.1507,3.1608,3.2287,3.316,3.324,3.3309,3.3309,3.3309,3.3309,3.3309,3.3309,3.3309,3.3309,3.3309,3.3309,3.3309,3.3309,3.3309,3.3309,3.3309,3.3309,3.3309,3.3309,3.3309,3.3309,3.3309,3.3309,3.3309,3.3309,3.3203,3.3058,3.287,3.2621,3.2453,3.2551,3.2453,3.248,3.2672,3.3108,3.3675,3.4431,3.4988,3.5599,3.6259,3.6322,3.6402,3.6547,3.6851,3.697,3.6851,3.7166,3.7261,3.7091,3.7048,3.6989,3.695,3.6568,3.6506,3.6731,3.6547,3.6609,0.0,0.0,2.4733,0.0,2.7623,0.0,0.0,0.0,0.0,0.0,0.0,0.0,0.0,0.0,0.0,0.0,0.0,0.0,0.0,0.0,0.0,0.0,0.0,0.0,0.0,0.0,0.0,0.0,0.0,0.0,3.6503,3.6535,3.6493,3.6415,3.6305,3.564,3.4297,3.3682,3.3107,3.2522,3.1891,3.1406,3.0977,3.1062,3.1254,3.1421,3.1571,3.1024,3.0029,3.0925,3.1028,3.0778,3.1879,3.237,3.259,3.3107,3.3309,3.3309,3.3309,3.3309,3.3309,3.3309,3.3309,3.3309,3.3309,3.3309,3.3309,3.3309,3.3309,3.3309,3.3309,3.3309,3.3309,3.3309,3.3309,3.3309,3.3309,3.3309,3.3309,3.3309,3.3203,3.2989,3.2676,3.2594,3.2551,3.2425,3.2425,3.2559,3.3055,3.3659,3.4301,3.4864,3.5498,3.6002,3.628,3.6402,3.6547,3.6753,3.6972,3.7089,3.7069,3.7108,3.7127,3.7108,3.7089,3.6992,3.6829,3.6705,3.6623,3.6544,3.6385,3.6318,2.0877,2.2913,2.4966,0.0,0.0,0.0,0.0,0.0,0.0,0.0,0.0,0.0,0.0,0.0,0.0,0.0,0.0,0.0,0.0,0.0,0.0,0.0,0.0,0.0,0.0,0.0,0.0,0.0,0.0,3.5521,3.5821,3.5853,3.5836,3.5857,3.5441,3.4775,3.3814,3.3152,3.2317,3.1329,3.1067,3.0697,3.0247,3.0168,3.0262,3.0466,3.0592,3.0481,3.0192,3.0358,3.0688,3.1116,3.1622,3.2061,3.248,3.3081,3.3309,3.3309,3.3309,3.3309,3.3309,3.3309,3.3309,3.3309,3.3309,3.3309,3.3309,3.3309,3.3309,3.3309,3.3309,3.3309,3.3309,3.3309,3.3309,3.3309,3.3309,3.3309,3.3309,3.3309,3.3203,3.3016,3.28,3.2676,3.2551,3.2425,3.2398,3.2586,3.3145,3.3726,3.4292,3.4816,3.5492,3.5954,3.6127,3.6255,3.6398,3.6492,3.6673,3.6791,3.6869,3.6911,3.697,3.7048,3.697,3.6891,3.6809,3.6664,3.6602,3.6602,3.6464,3.644,0.0,0.0,2.4116,0.0,0.0,0.0,0.0,0.0,0.0,0.0,0.0,0.0,0.0,0.0,0.0,0.0,0.0,0.0,0.0,0.0,0.0,0.0,0.0,0.0,0.0,0.0,0.0,0.0,0.0,3.4936,3.5094,3.511,3.5133,3.5166,3.4632,3.3981,3.3171,3.2332,3.1366,3.0259,3.0259,3.0101,2.9761,2.9665,2.9651,2.9761,2.9761,2.9931,3.0267,2.9946,3.0312,3.1073,3.1478,3.1864,3.2244,3.3011,3.3309,3.3309,3.3309,3.3309,3.3309,3.3309,3.3309,3.3309,3.3309,3.3309,3.3309,3.3309,3.3309,3.3309,3.3309,3.3309,3.3309,3.3309,3.3309,3.3309,3.3309,3.3309,3.3309,3.3309,3.3229,3.3096,3.2924,3.2773,3.2621,3.2425,3.252,3.2803,3.3313,3.3869,3.4407,3.4951,3.5447,3.5817,3.5975,3.6101,3.6191,3.6301,3.6402,3.6502,3.6602,3.6708,3.6829,3.6928,3.6751,3.6708,3.6768,3.6564,3.6502,3.6602,3.6523,3.6523,0.0,2.0693,0.0,0.0,0.0,0.0,0.0,0.0,0.0,0.0,0.0,0.0,0.0,0.0,0.0,0.0,0.0,0.0,0.0,0.0,0.0,0.0,0.0,0.0,0.0,0.0,0.0,0.0,0.0,3.3688,3.432,3.4352,3.4403,3.4545,3.4517,3.3857,3.2556,3.1233,3.0293,2.9659,2.9659,2.9631,2.9602,2.9602,2.9602,2.9602,2.9602,2.9634,2.9696,3.0237,3.0146,2.9867,3.1637,3.202,3.168,3.2877,3.3309,3.3309,3.3309,3.3309,3.3309,3.3309,3.3309,3.3309,3.3309,3.3309,3.3309,3.3309,3.3309,3.3309,3.3309,3.3309,3.3309,3.3309,3.3309,3.3309,3.3309,3.3309,3.3309,3.3309,3.3309,3.3203,3.2951,3.2897,3.2773,3.2453,3.2841,3.3339,3.3894,3.4431,3.4975,3.5492,3.56,3.5711,3.5975,3.5997,3.6105,3.6301,3.6301,3.6322,3.6322,3.6564,3.6702,3.6722,3.6464,3.6444,3.6702,3.6444,3.6322,3.6322,3.6444,3.6423,0.0,0.0,0.0,0.0,0.0,0.0,0.0,0.0,0.0,0.0,0.0,0.0,0.0,0.0,0.0,0.0,0.0,0.0,0.0,0.0,0.0,0.0,0.0,0.0,0.0,0.0,0.0,0.0,0.0,0.0,3.2525,3.2497,3.2534,3.2562,3.2562,3.2151,3.1234,3.0352,2.9806,2.9602,2.9602,2.9602,2.9602,2.9602,2.9602,2.9602,2.9602,2.9806,3.0176,2.9976,3.0282,3.0896,3.1566,3.1936,3.216,3.2985,3.3309,3.3309,3.3309,3.3309,3.3309,3.3309,3.3309,3.3309,3.3309,3.3309,3.3309,3.3309,3.3309,3.3309,3.3309,3.3309,3.3309,3.3309,3.3309,3.3309,3.3309,3.3309,3.3309,3.3309,3.3229,3.3096,3.2924,3.2773,3.2742,3.2895,3.3093,3.3521,3.439,3.4673,3.4998,3.5554,3.56,3.5711,3.5975,3.5844,3.5844,3.6088,3.5954,3.5915,3.6105,3.6191,3.6377,3.6702,3.6398,3.6297,3.6444,3.6212,3.6105,3.6127,3.6297,3.636,1.9138,0.0,0.0,0.0,0.0,0.0,0.0,0.0,0.0,0.0,0.0,0.0,0.0,0.0,0.0,0.0,0.0,0.0,0.0,0.0,0.0,0.0,0.0,0.0,0.0,0.0,0.0,0.0,0.0,0.0,3.1794,3.1595,3.1393,3.1175,3.0984,3.0658,3.0206,2.9806,2.9602,2.9602,2.9602,2.9602,2.9602,2.9602,2.9602,2.9602,2.9602,2.9837,3.0176,2.9976,3.0388,3.1219,3.1652,3.2048,3.248,3.3081,3.3309,3.3309,3.3309,3.3309,3.3309,3.3309,3.3309,3.3309,3.3309,3.3309,3.3309,3.3309,3.3229,3.3176,3.3176,3.3176,3.3176,3.3176,3.3229,3.3309,3.3309,3.3309,3.3282,3.3229,3.315,3.3032,3.2827,3.2676,3.2726,3.3145,3.3339,3.3777,3.4673,3.4951,3.5201,3.5577,3.56,3.5711,3.5975,3.5756,3.5711,3.5975,3.5756,3.5689,3.5866,3.5954,3.6187,3.6544,3.6297,3.6191,3.622,3.6127,3.6084,3.617,3.6259,3.6301,0.0,0.0,0.0,0.0,0.0,0.0,0.0,0.0,0.0,0.0,0.0,0.0,0.0,0.0,0.0,0.0,0.0,0.0,0.0,0.0,0.0,0.0,0.0,0.0,0.0,0.0,0.0,0.0,0.0,3.1709,3.2272,3.1766,3.116,3.0494,2.9898,2.9602,2.9602,2.9602,2.9602,2.9602,2.9602,2.9602,2.9602,2.9602,2.9602,2.9602,2.9602,2.9602,2.9634,3.0237,3.0494,3.0599,3.1892,3.2398,3.248,3.3081,3.3309,3.3309,3.3309,3.3309,3.3282,3.3309,3.3309,3.3282,3.3309,3.3309,3.3282,3.3282,3.3096,3.2897,3.2897,3.2897,3.2897,3.2897,3.3096,3.3309,3.3309,3.3309,3.3256,3.3123,3.3096,3.2989,3.2676,3.2594,3.2726,3.3172,3.3665,3.421,3.4745,3.527,3.56,3.56,3.56,3.5711,3.5975,3.5756,3.5711,3.5975,3.5756,3.56,3.56,3.5844,3.6105,3.6301,3.6178,3.6097,3.6118,3.617,3.6272,3.6444,3.636,3.6301,1.7647,0.0,0.0,0.0,0.0,0.0,0.0,0.0,0.0,0.0,0.0,0.0,0.0,0.0,0.0,0.0,0.0,0.0,0.0,0.0,0.0,0.0,0.0,0.0,0.0,0.0,0.0,0.0,3.0614,3.0644,3.0388,3.0221,3.0038,2.9867,2.9696,2.9602,2.9602,2.9602,2.9602,2.9602,2.9602,2.9602,2.9602,2.9602,2.9602,2.9602,2.9602,2.9602,2.9602,2.9775,3.0115,3.0584,3.1377,3.1962,3.248,3.3081,3.3309,3.3309,3.3309,3.3176,3.3032,3.3229,3.3176,3.3058,3.3229,3.315,3.3005,3.3005,3.2784,3.2551,3.2551,3.2718,3.2897,3.2897,3.3096,3.3309,3.3309,3.3309,3.3256,3.3123,3.2893,3.2703,3.2621,3.2523,3.2765,3.364,3.3894,3.4333,3.5247,3.5509,3.56,3.56,3.56,3.5711,3.5975,3.5756,3.5711,3.5975,3.5756,3.56,3.56,3.5667,3.591,3.6301,3.611,3.6191,3.6523,3.6127,3.5827,3.5717,3.5958,3.6067,0.0,0.0,0.0,0.0,0.0,0.0,2.2026,2.2564,2.3313,0.0,0.0,0.0,0.0,0.0,0.0,0.0,0.0,0.0,0.0,0.0,0.0,0.0,0.0,0.0,0.0,0.0,0.0,2.9976,3.0068,2.9976,2.9602,2.9602,2.9602,2.9602,2.9602,2.9602,2.9602,2.9602,2.9602,2.9602,2.9602,2.9602,2.9602,2.9602,2.9602,2.9602,2.9602,2.9509,2.9383,2.9383,2.9822,3.0584,3.1463,3.1877,3.2089,3.285,3.2947,3.2742,3.2877,3.2823,3.2703,3.2877,3.2812,3.273,3.2877,3.2812,3.2676,3.2676,3.2484,3.2191,3.2051,3.2262,3.2554,3.2648,3.2935,3.315,3.3282,3.3203,3.3096,3.3032,3.2854,3.2676,3.2551,3.2629,3.3029,3.3869,3.421,3.4649,3.5492,3.56,3.56,3.56,3.56,3.5667,3.5822,3.5689,3.5667,3.5822,3.5689,3.56,3.56,3.56,3.5761,3.6174,3.6062,3.6122,3.6331,3.6084,3.5844,3.5577,3.5756,3.5844,0.0,0.0,0.0,0.0,0.0,0.0,2.2186,2.2015,2.1963,0.0,0.0,0.0,0.0,0.0,0.0,0.0,0.0,0.0,0.0,0.0,0.0,0.0,0.0,0.0,0.0,2.9602,2.9806,3.0343,2.9884,2.9602,2.9602,2.9602,2.9602,2.9602,2.9602,2.9571,2.954,2.954,2.954,2.9477,2.9477,2.9477,2.9477,2.954,2.954,2.954,2.954,2.9383,2.9099,2.9067,2.9543,3.0419,3.1622,3.1692,3.1304,3.2358,3.2358,3.1908,3.2272,3.237,3.237,3.2398,3.237,3.237,3.2398,3.237,3.2342,3.2315,3.2135,3.1883,3.1597,3.1769,3.2066,3.2287,3.2621,3.2924,3.3203,3.3043,3.287,3.2924,3.287,3.2746,3.2453,3.2841,3.3365,3.3919,3.4456,3.4998,3.5515,3.56,3.56,3.56,3.56,3.56,3.56,3.56,3.56,3.56,3.56,3.56,3.56,3.56,3.5734,3.5997,3.5997,3.5932,3.5817,3.6014,3.5971,3.5728,3.5639,3.5554,0.0,0.0,0.0,0.0,0.0,0.0,1.9872,1.9682,1.996,0.0,0.0,0.0,0.0,0.0,0.0,0.0,0.0,0.0,0.0,0.0,0.0,0.0,0.0,0.0,0.0,2.9602,2.9634,2.9789,2.9665,2.9602,2.9602,2.9602,2.9602,2.9602,2.9602,2.9477,2.9194,2.9194,2.9067,2.8812,2.8812,2.8812,2.8812,2.9067,2.9194,2.9194,2.9194,2.9162,2.9067,2.8812,2.8812,2.904,2.9797,2.9983,3.0013,3.1246,3.1607,3.1578,3.2188,3.2274,3.2122,3.2315,3.2247,3.2122,3.2342,3.2247,3.201,3.1754,3.164,3.1582,3.1511,3.1769,3.2025,3.2066,3.2274,3.2578,3.2924,3.2812,3.2726,3.3016,3.2757,3.2523,3.2551,3.2911,3.3365,3.3919,3.4456,3.4998,3.5515,3.56,3.56,3.56,3.56,3.56,3.56,3.56,3.56,3.56,3.56,3.56,3.56,3.56,3.5734,3.5997,3.5997,3.5975,3.5954,3.5639,3.5389,3.5228,3.5337,3.536,0.0,0.0,0.0,1.9179,0.0,0.0,0.0,1.91,1.9155,0.0,0.0,0.0,0.0,0.0,0.0,0.0,0.0,0.0,0.0,0.0,0.0,0.0,0.0,0.0,0.0,2.9451,2.9602,2.9602,2.9602,2.9602,2.9602,2.9602,2.9602,2.9602,2.9446,2.9257,2.9099,2.894,2.878,2.8587,2.8587,2.8587,2.8619,2.878,2.8844,2.8844,2.8844,2.8748,2.8587,2.8438,2.8229,2.8151,2.9111,2.93,2.9202,3.03,3.0525,3.0359,3.1189,3.1349,3.135,3.1781,3.1853,3.1783,3.191,3.1868,3.1712,3.1568,3.1511,3.1511,3.1511,3.1611,3.1798,3.1968,3.2094,3.2302,3.266,3.2617,3.259,3.2935,3.2676,3.2535,3.2926,3.3413,3.3885,3.4333,3.4857,3.531,3.5577,3.56,3.56,3.56,3.56,3.56,3.56,3.56,3.56,3.56,3.56,3.56,3.56,3.56,3.5667,3.58,3.58,3.58,3.58,3.5543,3.5406,3.5458,3.5458,3.5412,0.0,0.0,0.0,0.0,0.0,1.8772,0.0,0.0,0.0,0.0,0.0,0.0,0.0,0.0,0.0,0.0,0.0,0.0,0.0,0.0,0.0,0.0,0.0,0.0,0.0,2.8886,2.9307,2.942,2.9434,2.949,2.9602,2.9602,2.9571,2.9509,2.918,2.9004,2.8908,2.8587,2.8425,2.8392,2.8392,2.8392,2.8392,2.8471,2.8503,2.8503,2.8503,2.8341,2.8079,2.8013,2.7802,2.7623,2.8698,2.8821,2.8509,2.9376,2.939,2.9149,3.0162,3.0494,3.0614,3.1278,3.1511,3.1511,3.1511,3.1511,3.1511,3.1511,3.1511,3.1511,3.1511,3.1511,3.1568,3.1855,3.1883,3.1981,3.2437,3.2355,3.2342,3.2773,3.2715,3.2776,3.3345,3.3901,3.4415,3.4785,3.531,3.5622,3.56,3.56,3.56,3.56,3.56,3.56,3.56,3.56,3.56,3.56,3.56,3.56,3.56,3.56,3.56,3.56,3.56,3.56,3.56,3.5566,3.5633,3.5795,3.5667,3.5554,0.0,0.0,0.0,0.0,1.8088,0.0,0.0,0.0,0.0,0.0,0.0,0.0,0.0,0.0,0.0,0.0,0.0,0.0,0.0,0.0,0.0,0.0,0.0,0.0,0.0,0.0,2.8241,2.8759,2.8788,2.904,2.9574,2.9602,2.9446,2.9162,2.8944,2.8624,2.821,2.7987,2.7789,2.7623,2.7623,2.7623,2.7636,2.8,2.8145,2.8145,2.8145,2.8145,2.8079,2.7703,2.7536,2.7523,2.7676,2.7689,2.7723,2.8417,2.8643,2.8771,3.0056,3.0494,3.0614,3.1278,3.1511,3.1511,3.1511,3.1511,3.1511,3.1511,3.1511,3.1511,3.1511,3.1511,3.1511,3.1568,3.1467,3.1538,3.2135,3.1923,3.1794,3.2492,3.3002,3.3339,3.3531,3.3928,3.439,3.4904,3.5424,3.5728,3.5622,3.56,3.56,3.56,3.56,3.56,3.56,3.56,3.56,3.56,3.56,3.56,3.56,3.56,3.56,3.56,3.56,3.56,3.56,3.5706,3.5773,3.5795,3.5667,3.56,0.0,0.0,0.0,0.0,0.0,0.0,1.7857,0.0,1.758,0.0,0.0,0.0,0.0,0.0,0.0,0.0,0.0,0.0,0.0,0.0,0.0,0.0,0.0,0.0,0.0,0.0,0.0,0.0,2.8207,2.8527,2.8778,2.8937,2.8972,2.8812,2.8541,2.8295,2.8112,2.7769,2.759,2.749,2.749,2.749,2.7503,2.7669,2.7736,2.7736,2.7736,2.7736,2.7736,2.757,2.749,2.749,2.749,2.749,2.7523,2.7809,2.7908,2.8091,2.9456,2.9919,3.0072,3.1161,3.1511,3.1511,3.1511,3.1511,3.1511,3.1511,3.1511,3.1511,3.1511,3.1511,3.1511,3.1511,3.1467,3.1524,3.1883,3.171,3.1737,3.2559,3.2895,3.3339,3.426,3.4664,3.5045,3.5402,3.5644,3.5751,3.5622,3.56,3.56,3.56,3.56,3.56,3.56,3.56,3.56,3.56,3.56,3.56,3.56,3.56,3.56,3.56,3.56,3.56,3.56,3.5644,3.5756,3.591,3.5866,3.5778,1.653,0.0,0.0,0.0,0.0,0.0,0.0,0.0,0.0,0.0,0.0,0.0,0.0,0.0,0.0,0.0,0.0,0.0,0.0,0.0,0.0,0.0,0.0,0.0,0.0,0.0,0.0,2.6633,2.7204,2.7652,2.7817,2.8175,2.8311,2.8214,2.8084,2.8,2.7947,2.7603,2.7469,2.749,2.749,2.749,2.749,2.749,2.749,2.749,2.749,2.7456,2.7356,2.7356,2.7289,2.7188,2.7188,2.7188,2.7222,2.7423,2.7423,2.7543,2.8698,2.9348,2.9813,3.0896,3.1351,3.1511,3.1511,3.1511,3.1511,3.1511,3.1539,3.1568,3.1511,3.1539,3.1523,3.1271,3.1198,3.1241,3.147,3.1312,3.1384,3.2266,3.2718,3.3245,3.4203,3.4918,3.5476,3.5861,3.5905,3.5839,3.5667,3.5644,3.5644,3.56,3.56,3.56,3.56,3.56,3.56,3.56,3.56,3.56,3.56,3.56,3.56,3.56,3.5397,3.5295,3.5295,3.5092,3.5101,3.5313,3.5788,3.5954,0.0,0.0,0.0,1.6993,0.0,0.0,0.0,0.0,1.6811,0.0,0.0,0.0,0.0,0.0,0.0,0.0,0.0,0.0,0.0,0.0,0.0,0.0,0.0,0.0,0.0,0.0,0.0,2.4947,2.559,2.6272,2.6914,2.7441,2.7566,2.7264,2.7616,2.7723,2.7523,2.7369,2.7369,2.749,2.749,2.749,2.749,2.749,2.749,2.749,2.749,2.7323,2.7007,2.7007,2.6803,2.6449,2.6449,2.6449,2.6517,2.7255,2.7276,2.7095,2.7802,2.888,3.0029,3.0419,3.097,3.1511,3.1511,3.1511,3.1511,3.1511,3.1641,3.1756,3.1539,3.1641,3.159,3.073,3.044,3.0427,3.0762,3.047,3.0436,3.1375,3.2482,3.3171,3.2833,3.4129,3.5419,3.6101,3.6204,3.6079,3.5817,3.5795,3.5734,3.5622,3.56,3.56,3.56,3.56,3.56,3.56,3.56,3.56,3.56,3.56,3.56,3.56,3.4895,3.4523,3.4523,3.3829,3.3474,3.3508,3.5206,3.5997,0.0,0.0,1.7514,1.7189,0.0,0.0,0.0,0.0,0.0,0.0,0.0,0.0,0.0,0.0,0.0,0.0,0.0,0.0,0.0,0.0,0.0,0.0,0.0,0.0,0.0,0.0,0.0,2.4161,2.5116,2.5746,2.5901,2.625,2.6585,2.6841,2.7019,2.721,2.749,2.7469,2.7469,2.749,2.749,2.749,2.749,2.749,2.749,2.749,2.749,2.7323,2.7007,2.7007,2.6769,2.638,2.638,2.638,2.6427,2.6701,2.6688,2.6688,2.7378,2.8579,2.9832,2.9938,3.0539,3.1249,3.1351,3.138,3.1409,3.1641,3.1756,3.1784,3.1727,3.1756,3.159,3.07,3.0479,3.0347,3.0081,2.9784,2.9816,3.0608,3.1072,3.1622,3.2596,3.3299,3.4103,3.5232,3.5407,3.5515,3.5773,3.5728,3.5689,3.5728,3.5644,3.56,3.56,3.56,3.538,3.4912,3.5329,3.538,3.4895,3.5329,3.5363,3.4878,3.4624,3.4252,3.3778,3.3525,3.3406,3.3406,3.3999,3.4279,1.7306,1.7585,0.0,1.7311,1.6821,0.0,1.5947,0.0,0.0,0.0,0.0,0.0,0.0,0.0,0.0,0.0,0.0,0.0,0.0,0.0,0.0,0.0,0.0,0.0,0.0,0.0,2.293,2.3002,2.3957,2.4592,0.0,0.0,2.5556,2.592,2.6432,2.6857,2.7223,2.7385,2.749,2.749,2.749,2.749,2.749,2.749,2.749,2.749,2.749,2.7222,2.6803,2.6803,2.6483,2.6,2.6,2.6,2.6035,2.6311,2.6324,2.6289,2.6731,2.788,2.9181,2.9306,3.0147,3.1117,3.122,3.1234,3.1292,3.1626,3.1655,3.1655,3.1841,3.1603,3.1157,3.0355,2.9971,2.9632,2.9203,2.8963,2.9089,2.9792,3.0112,3.0557,3.153,3.2192,3.3153,3.4818,3.5052,3.5253,3.58,3.58,3.5756,3.5795,3.5728,3.5644,3.56,3.56,3.5397,3.4928,3.5329,3.538,3.4912,3.5346,3.538,3.4895,3.437,3.388,3.3406,3.2882,3.2628,3.2628,3.2628,3.2628]}]]